[[{"header":{"parameterUnit":"m.s-1","parameterCategory":1,"la1":30.6,"la2":29.2853,"lo1":-89.7004,"lo2":-87.6739,"dy":0.0162,"dx":0.0183,"nx":112,"ny":82,"refTime":"2023-06-03T06:00:00:Z","depth":0,"parameterNumber":2,"parameterNumberName":"U-component_of_WINDS"},"data":[0.0,0.0,0.0,0.0,0.0,0.0,0.0,0.0,0.0,0.0,0.0,0.0,0.0,0.0,0.0,0.0,0.0,0.0,0.0,0.0,0.0,0.0,0.0,0.0,0.0,0.0,0.0,0.0,0.0,0.0,0.0,0.0,0.0,0.0,0.0,0.0,0.0,0.0,0.0,0.0,0.0,0.0,0.0,0.0,0.0,0.0,0.0,0.0,0.0,0.0,0.0,0.0,0.0,0.0,0.0,0.0,0.0,0.0,0.0,0.0,0.0,0.0,0.0,0.0,0.0,0.0,0.0,0.0,0.0,0.0,0.0,0.0,0.0,0.0,0.0,0.0,0.0,0.0,0.0,0.0,0.0,0.0,0.0,0.0,0.0,0.0,0.0,0.0,0.0,0.0,-2.6529,-2.6104,-2.6517,-2.7,-2.7451,-2.749,-2.749,-2.749,0.0,0.0,0.0,0.0,0.0,0.0,0.0,0.0,0.0,0.0,0.0,0.0,0.0,0.0,0.0,0.0,0.0,0.0,0.0,0.0,0.0,0.0,0.0,0.0,0.0,0.0,0.0,0.0,0.0,0.0,0.0,0.0,0.0,0.0,0.0,0.0,0.0,0.0,0.0,0.0,0.0,0.0,0.0,0.0,0.0,0.0,0.0,0.0,0.0,0.0,0.0,0.0,0.0,0.0,0.0,0.0,0.0,0.0,0.0,0.0,0.0,0.0,0.0,0.0,0.0,0.0,0.0,0.0,0.0,0.0,0.0,0.0,0.0,0.0,0.0,0.0,0.0,0.0,0.0,0.0,0.0,0.0,0.0,0.0,0.0,0.0,0.0,0.0,0.0,0.0,0.0,0.0,0.0,0.0,0.0,0.0,0.0,0.0,0.0,0.0,0.0,0.0,0.0,0.0,-2.6855,-2.721,-2.7307,-2.7398,-2.749,-2.749,-2.749,-2.749,0.0,0.0,0.0,0.0,0.0,0.0,0.0,0.0,0.0,0.0,0.0,0.0,0.0,0.0,0.0,0.0,0.0,0.0,0.0,0.0,0.0,0.0,0.0,0.0,0.0,0.0,0.0,0.0,0.0,0.0,0.0,0.0,0.0,0.0,0.0,0.0,0.0,0.0,0.0,0.0,0.0,0.0,0.0,0.0,0.0,0.0,0.0,0.0,0.0,0.0,0.0,0.0,0.0,0.0,0.0,0.0,0.0,0.0,0.0,0.0,0.0,0.0,0.0,0.0,0.0,0.0,0.0,0.0,0.0,0.0,0.0,0.0,0.0,0.0,0.0,0.0,0.0,0.0,0.0,0.0,0.0,0.0,0.0,0.0,0.0,0.0,0.0,0.0,0.0,0.0,0.0,0.0,0.0,0.0,0.0,0.0,0.0,0.0,0.0,0.0,0.0,0.0,0.0,-2.7131,-2.7236,-2.7464,-2.749,-2.749,-2.749,-2.749,-2.749,-2.749,-2.749,0.0,0.0,0.0,0.0,0.0,0.0,0.0,0.0,0.0,0.0,0.0,0.0,0.0,0.0,0.0,0.0,0.0,0.0,0.0,0.0,0.0,0.0,0.0,0.0,0.0,0.0,0.0,0.0,0.0,0.0,0.0,0.0,0.0,0.0,0.0,0.0,0.0,0.0,0.0,0.0,0.0,0.0,0.0,0.0,0.0,0.0,0.0,0.0,0.0,0.0,0.0,0.0,0.0,0.0,0.0,0.0,0.0,0.0,0.0,0.0,0.0,0.0,0.0,0.0,0.0,0.0,0.0,0.0,0.0,0.0,0.0,0.0,0.0,0.0,0.0,0.0,0.0,0.0,0.0,0.0,0.0,0.0,0.0,0.0,0.0,0.0,0.0,0.0,0.0,0.0,0.0,0.0,0.0,0.0,0.0,0.0,0.0,0.0,0.0,0.0,0.0,0.0,-2.749,-2.749,-2.749,-2.749,-2.749,-2.749,-2.749,-2.749,-2.749,-2.749,0.0,0.0,0.0,0.0,0.0,0.0,0.0,0.0,0.0,0.0,0.0,0.0,0.0,0.0,0.0,0.0,0.0,0.0,0.0,0.0,0.0,0.0,0.0,0.0,0.0,0.0,0.0,0.0,0.0,0.0,0.0,0.0,0.0,0.0,0.0,0.0,0.0,0.0,0.0,0.0,0.0,0.0,0.0,0.0,0.0,0.0,0.0,0.0,0.0,0.0,0.0,0.0,0.0,0.0,0.0,0.0,0.0,0.0,0.0,0.0,0.0,0.0,0.0,0.0,0.0,0.0,0.0,0.0,0.0,0.0,0.0,0.0,0.0,0.0,0.0,0.0,0.0,0.0,0.0,0.0,0.0,0.0,0.0,0.0,0.0,0.0,0.0,0.0,0.0,0.0,0.0,0.0,0.0,0.0,0.0,0.0,0.0,0.0,0.0,0.0,0.0,0.0,-2.749,-2.749,-2.749,-2.749,-2.749,-2.749,-2.749,-2.749,-2.749,-2.749,0.0,0.0,0.0,0.0,0.0,0.0,0.0,0.0,0.0,0.0,0.0,0.0,0.0,0.0,0.0,0.0,0.0,0.0,0.0,0.0,0.0,0.0,0.0,0.0,0.0,0.0,0.0,0.0,0.0,0.0,0.0,0.0,0.0,0.0,0.0,0.0,0.0,0.0,0.0,0.0,0.0,0.0,0.0,0.0,0.0,0.0,0.0,0.0,0.0,0.0,0.0,0.0,0.0,0.0,0.0,0.0,0.0,0.0,0.0,0.0,0.0,0.0,0.0,0.0,0.0,0.0,0.0,0.0,0.0,0.0,0.0,0.0,0.0,0.0,0.0,0.0,0.0,0.0,0.0,0.0,0.0,0.0,0.0,0.0,0.0,0.0,0.0,0.0,0.0,0.0,0.0,0.0,0.0,0.0,0.0,0.0,0.0,0.0,0.0,0.0,0.0,0.0,-2.718,-2.7248,0.0,-2.7369,-2.7369,-2.7369,-2.7469,-2.7613,-2.7841,0.0,0.0,0.0,0.0,0.0,0.0,0.0,0.0,0.0,0.0,0.0,0.0,0.0,0.0,0.0,0.0,0.0,0.0,0.0,0.0,0.0,0.0,0.0,0.0,0.0,0.0,0.0,0.0,0.0,0.0,0.0,0.0,0.0,0.0,0.0,0.0,0.0,0.0,0.0,0.0,0.0,0.0,0.0,0.0,0.0,0.0,0.0,0.0,0.0,0.0,0.0,0.0,0.0,0.0,0.0,0.0,0.0,0.0,0.0,0.0,0.0,0.0,0.0,0.0,0.0,0.0,0.0,0.0,0.0,0.0,0.0,0.0,0.0,0.0,0.0,0.0,0.0,0.0,0.0,0.0,0.0,0.0,0.0,0.0,0.0,0.0,0.0,0.0,0.0,0.0,0.0,0.0,0.0,0.0,0.0,0.0,0.0,0.0,0.0,0.0,0.0,0.0,-2.699,-2.7131,-2.7302,0.0,-2.7627,-2.7696,-2.7696,-2.7799,-2.8002,-2.8381,0.0,0.0,0.0,0.0,0.0,0.0,0.0,0.0,0.0,0.0,0.0,0.0,0.0,0.0,0.0,0.0,0.0,0.0,0.0,0.0,0.0,0.0,0.0,0.0,0.0,0.0,0.0,0.0,0.0,0.0,0.0,0.0,0.0,0.0,0.0,0.0,0.0,0.0,0.0,0.0,0.0,0.0,0.0,0.0,0.0,0.0,0.0,0.0,0.0,0.0,0.0,0.0,0.0,0.0,0.0,0.0,0.0,0.0,0.0,0.0,0.0,0.0,0.0,0.0,0.0,0.0,0.0,0.0,0.0,0.0,0.0,0.0,0.0,0.0,0.0,0.0,0.0,0.0,0.0,0.0,0.0,0.0,0.0,0.0,0.0,0.0,0.0,0.0,0.0,0.0,0.0,0.0,0.0,0.0,0.0,0.0,0.0,0.0,0.0,0.0,0.0,0.0,-2.7003,-2.7464,-2.7783,-2.7818,-2.8283,-2.8615,-2.8615,-2.8615,-2.8713,0.0,0.0,0.0,0.0,0.0,0.0,0.0,0.0,0.0,0.0,0.0,0.0,0.0,0.0,0.0,0.0,0.0,0.0,0.0,0.0,0.0,0.0,0.0,0.0,0.0,0.0,0.0,0.0,0.0,0.0,0.0,0.0,0.0,0.0,0.0,0.0,0.0,0.0,0.0,0.0,0.0,0.0,0.0,0.0,0.0,0.0,0.0,0.0,0.0,0.0,0.0,0.0,0.0,0.0,0.0,0.0,0.0,0.0,0.0,0.0,0.0,0.0,0.0,0.0,0.0,0.0,0.0,0.0,0.0,0.0,0.0,0.0,0.0,0.0,0.0,0.0,0.0,0.0,0.0,0.0,0.0,0.0,0.0,0.0,0.0,0.0,0.0,0.0,0.0,0.0,0.0,0.0,0.0,0.0,0.0,0.0,0.0,0.0,0.0,0.0,0.0,0.0,0.0,-2.7713,-2.7902,-2.8075,-2.8196,-2.8371,-2.8473,-2.8473,-2.8556,-2.8758,-2.913,0.0,0.0,0.0,0.0,0.0,0.0,0.0,0.0,0.0,0.0,0.0,0.0,0.0,0.0,0.0,0.0,0.0,0.0,0.0,0.0,0.0,0.0,0.0,0.0,0.0,0.0,0.0,0.0,0.0,0.0,0.0,0.0,0.0,0.0,0.0,0.0,0.0,0.0,0.0,0.0,0.0,0.0,0.0,0.0,0.0,0.0,0.0,0.0,0.0,0.0,0.0,0.0,0.0,0.0,0.0,0.0,0.0,0.0,0.0,0.0,0.0,0.0,0.0,0.0,0.0,0.0,0.0,0.0,0.0,0.0,0.0,0.0,0.0,0.0,0.0,0.0,0.0,0.0,0.0,0.0,0.0,0.0,0.0,0.0,0.0,0.0,0.0,0.0,0.0,0.0,0.0,0.0,0.0,0.0,0.0,0.0,0.0,0.0,0.0,0.0,0.0,0.0,-2.8059,-2.8298,-2.8473,-2.8596,-2.8798,-2.8949,-2.8949,-2.9036,-2.9237,-2.953,0.0,0.0,0.0,0.0,0.0,0.0,0.0,0.0,0.0,0.0,0.0,0.0,0.0,0.0,0.0,0.0,0.0,0.0,0.0,0.0,0.0,0.0,0.0,0.0,0.0,0.0,0.0,0.0,0.0,0.0,0.0,0.0,0.0,0.0,0.0,0.0,0.0,0.0,0.0,0.0,0.0,0.0,0.0,0.0,0.0,0.0,0.0,0.0,0.0,0.0,0.0,0.0,0.0,0.0,0.0,0.0,0.0,0.0,0.0,0.0,0.0,0.0,0.0,0.0,0.0,0.0,0.0,0.0,0.0,0.0,0.0,0.0,0.0,0.0,0.0,0.0,0.0,0.0,0.0,0.0,0.0,0.0,0.0,0.0,0.0,0.0,0.0,0.0,0.0,0.0,0.0,0.0,0.0,0.0,0.0,0.0,0.0,0.0,0.0,0.0,0.0,0.0,-2.8211,-2.8662,-2.8976,-2.8963,-2.9478,-2.9792,-2.9792,-2.9792,-2.9869,-3.0049,0.0,0.0,0.0,0.0,0.0,0.0,0.0,0.0,0.0,0.0,0.0,0.0,0.0,0.0,0.0,0.0,0.0,0.0,0.0,0.0,0.0,0.0,0.0,0.0,0.0,0.0,0.0,0.0,0.0,0.0,0.0,0.0,0.0,0.0,0.0,0.0,0.0,0.0,0.0,0.0,0.0,0.0,0.0,0.0,0.0,0.0,0.0,0.0,0.0,0.0,0.0,0.0,0.0,0.0,0.0,0.0,0.0,0.0,0.0,0.0,-2.5047,0.0,0.0,0.0,0.0,0.0,0.0,0.0,0.0,0.0,0.0,0.0,0.0,0.0,0.0,0.0,0.0,0.0,0.0,0.0,0.0,0.0,0.0,0.0,0.0,0.0,0.0,0.0,0.0,0.0,0.0,0.0,0.0,0.0,0.0,0.0,0.0,0.0,0.0,0.0,0.0,0.0,-2.9059,-2.9221,-2.9373,-2.9603,-2.9716,-2.9792,-2.9792,-2.9792,-2.983,-2.9869,-2.9869,0.0,0.0,0.0,0.0,0.0,0.0,0.0,0.0,0.0,0.0,0.0,0.0,0.0,0.0,0.0,0.0,0.0,0.0,0.0,0.0,0.0,0.0,0.0,0.0,0.0,0.0,0.0,0.0,0.0,0.0,0.0,0.0,0.0,0.0,0.0,0.0,0.0,0.0,0.0,0.0,0.0,0.0,0.0,0.0,0.0,0.0,0.0,0.0,0.0,0.0,0.0,0.0,0.0,0.0,0.0,0.0,0.0,0.0,0.0,0.0,-2.5119,0.0,0.0,0.0,0.0,0.0,0.0,0.0,0.0,0.0,0.0,0.0,0.0,0.0,0.0,0.0,0.0,0.0,0.0,0.0,0.0,0.0,0.0,0.0,0.0,0.0,0.0,0.0,0.0,0.0,0.0,0.0,0.0,0.0,0.0,0.0,0.0,0.0,0.0,0.0,0.0,-2.9199,-2.9275,-2.9326,-2.9456,-2.9456,-2.9495,-2.9599,-2.9611,-2.965,-2.9792,-2.9792,0.0,0.0,0.0,0.0,0.0,0.0,0.0,0.0,0.0,0.0,0.0,0.0,0.0,0.0,0.0,0.0,0.0,0.0,0.0,0.0,0.0,0.0,0.0,0.0,0.0,0.0,0.0,0.0,0.0,0.0,0.0,0.0,0.0,0.0,0.0,0.0,0.0,0.0,0.0,0.0,0.0,0.0,0.0,0.0,0.0,0.0,0.0,0.0,0.0,0.0,0.0,0.0,0.0,0.0,-2.4581,-2.541,-2.6042,-2.5643,-2.4482,-2.4401,-2.4457,-2.4724,0.0,0.0,0.0,0.0,0.0,0.0,0.0,0.0,0.0,0.0,0.0,0.0,0.0,0.0,0.0,0.0,0.0,0.0,0.0,0.0,0.0,0.0,0.0,0.0,0.0,-2.697,-2.6947,0.0,0.0,0.0,0.0,0.0,0.0,0.0,0.0,0.0,0.0,0.0,0.0,-2.9052,-2.9052,-2.9052,-2.9091,-2.9091,-2.917,-2.9341,-2.9341,-2.9443,-2.9663,-2.9675,-2.9675,0.0,0.0,0.0,0.0,0.0,0.0,0.0,0.0,0.0,0.0,0.0,0.0,0.0,0.0,0.0,0.0,0.0,0.0,0.0,0.0,0.0,0.0,0.0,0.0,0.0,0.0,0.0,0.0,0.0,0.0,0.0,0.0,-2.0104,-1.9731,0.0,0.0,0.0,0.0,0.0,0.0,0.0,0.0,0.0,0.0,0.0,0.0,0.0,0.0,-2.3025,-2.4056,-2.4385,-2.3928,-2.4266,-2.4513,-2.4634,-2.4752,-2.4673,-2.4555,-2.5186,0.0,-2.5474,-2.5797,0.0,0.0,0.0,0.0,0.0,0.0,0.0,0.0,0.0,0.0,0.0,0.0,0.0,0.0,0.0,0.0,0.0,0.0,0.0,0.0,0.0,0.0,-2.6898,-2.6898,-2.7246,-2.7596,0.0,-2.7212,-2.6935,-2.6973,0.0,0.0,0.0,0.0,0.0,0.0,0.0,0.0,-2.8803,-2.8843,-2.8922,-2.9091,-2.9091,-2.9091,-2.9131,-2.9131,-2.917,-2.9182,-2.917,-2.917,-2.917,-2.917,0.0,0.0,0.0,0.0,0.0,0.0,0.0,0.0,0.0,0.0,0.0,0.0,0.0,0.0,0.0,0.0,0.0,0.0,0.0,0.0,0.0,0.0,0.0,0.0,0.0,0.0,0.0,0.0,0.0,-2.1009,-2.0707,-2.0534,-2.0888,-2.1156,0.0,0.0,0.0,0.0,0.0,0.0,0.0,0.0,0.0,-2.3312,-2.4126,-2.4348,-2.3831,-2.4426,-2.4659,-2.4541,-2.477,-2.5022,-2.5284,-2.5284,-2.5308,-2.5315,-2.5672,-2.6165,-2.6713,-2.6479,-2.7175,-2.8312,0.0,0.0,0.0,0.0,0.0,-2.8384,-2.7606,0.0,0.0,0.0,0.0,0.0,0.0,0.0,0.0,0.0,0.0,0.0,0.0,0.0,0.0,-2.7813,-2.7993,-2.8162,-2.8162,-2.7981,-2.7813,0.0,-2.8005,-2.8162,-2.8162,0.0,0.0,0.0,0.0,0.0,-2.8618,-2.8618,-2.8657,-2.8736,-2.8736,-2.8816,-2.8922,-2.8922,-2.8961,-2.9091,-2.9091,-2.9091,-2.9091,-2.9091,-2.9091,0.0,0.0,0.0,0.0,0.0,0.0,0.0,0.0,0.0,0.0,0.0,0.0,0.0,0.0,0.0,0.0,0.0,0.0,0.0,0.0,0.0,0.0,0.0,0.0,0.0,0.0,0.0,0.0,-2.1365,-2.1346,-2.1558,-2.1727,-2.1945,0.0,0.0,0.0,0.0,0.0,0.0,-2.287,-2.3753,-2.4233,-2.4093,-2.4465,-2.4727,-2.4847,-2.4847,-2.5022,-2.5401,-2.548,-2.5732,-2.6092,-2.6134,-2.6129,-2.6138,-2.6613,-2.7066,-2.7382,-2.7085,-2.7525,-2.8411,-2.8546,-2.9085,-2.9702,-2.9171,-2.8792,-2.8436,-2.7501,-2.7095,-2.7069,-2.7424,0.0,-2.7839,-2.8535,0.0,0.0,0.0,0.0,-2.8499,-2.8481,0.0,-2.851,-2.851,-2.851,-2.851,-2.851,-2.851,-2.851,0.0,-2.851,-2.851,-2.851,0.0,0.0,0.0,0.0,-2.851,-2.851,-2.851,-2.851,-2.851,-2.851,-2.8538,-2.8724,-2.8724,-2.8803,-2.8934,-2.8934,-2.8934,-2.8934,-2.8934,-2.8934,-2.8934,0.0,0.0,0.0,0.0,0.0,0.0,0.0,0.0,0.0,0.0,0.0,0.0,0.0,0.0,0.0,0.0,0.0,0.0,0.0,0.0,0.0,0.0,0.0,0.0,0.0,0.0,0.0,0.0,0.0,-2.2535,-2.2035,0.0,0.0,0.0,0.0,-2.398,-2.3825,-2.3875,-2.4355,-2.446,-2.469,-2.5128,-2.5161,-2.536,-2.583,-2.583,-2.5841,-2.5874,-2.6332,-2.653,-2.6551,-2.6691,-2.6766,-2.6852,-2.8566,-2.8379,-2.6872,-2.7097,-2.7648,-2.8461,-2.9294,-2.9654,-2.9731,-3.0152,-2.9616,-2.8751,-2.9127,-2.8995,-2.8667,-2.8718,-2.8981,-2.9293,-2.9332,-2.937,0.0,0.0,-2.8924,-2.8514,-2.851,-2.851,-2.851,-2.851,-2.851,-2.851,-2.851,-2.851,-2.851,0.0,-2.851,-2.851,-2.851,0.0,-2.851,-2.851,-2.851,-2.851,-2.851,-2.851,-2.851,-2.851,-2.851,-2.851,-2.851,-2.851,-2.851,-2.851,-2.855,-2.855,-2.855,-2.855,-2.855,-2.855,-2.855,0.0,0.0,0.0,0.0,0.0,0.0,0.0,0.0,0.0,0.0,0.0,0.0,0.0,0.0,0.0,0.0,0.0,0.0,0.0,0.0,0.0,0.0,0.0,0.0,0.0,0.0,0.0,0.0,-2.3075,-2.3515,0.0,-2.4336,-2.4161,-2.4384,-2.5165,-2.487,-2.4847,-2.5292,-2.5381,-2.5766,-2.6521,-2.6532,-2.6945,-2.7759,-2.7471,-2.7299,-2.7299,-2.7118,-2.7064,-2.7064,-2.6867,-2.8009,-3.0134,-3.0254,-3.0353,-3.0421,-2.9931,-3.0033,-3.0493,-3.0918,-3.124,-3.1433,-3.1074,-3.0393,-2.9679,-2.9266,-2.8797,-2.8331,-2.8259,-2.8498,-2.8803,-2.8803,-2.8803,-2.8876,-2.9229,-2.9177,-2.9104,-2.946,-2.9508,-2.9544,-2.9538,-2.9535,-2.9508,-2.9508,-2.9547,-2.9532,-2.9532,-2.8979,-2.851,-2.851,-2.851,-2.851,-2.851,-2.851,-2.851,-2.851,-2.851,-2.851,-2.851,-2.851,-2.851,-2.851,-2.851,-2.851,-2.851,-2.851,-2.851,-2.851,-2.851,-2.851,-2.851,-2.851,-2.851,0.0,0.0,0.0,0.0,0.0,0.0,0.0,0.0,0.0,0.0,0.0,0.0,0.0,0.0,0.0,0.0,0.0,0.0,0.0,0.0,0.0,0.0,0.0,0.0,0.0,0.0,-2.4495,-2.4527,-2.4971,-2.537,-2.5607,-2.5572,-2.5808,-2.6507,-2.6316,-2.6289,-2.6569,-2.6791,-2.7073,-2.7557,-2.7728,-2.8026,-2.8551,-2.8432,-2.8258,-2.8084,-2.8221,-2.8444,-2.8699,-2.864,-3.017,-3.2734,-3.2476,-3.2664,-3.3178,-3.2482,-3.2272,-3.2426,-3.2364,-3.2358,-3.2304,-3.1876,-3.1396,-3.0945,-3.048,-2.993,-2.9358,-2.9056,-2.8999,-2.9039,-2.9039,-2.9039,-2.9112,-2.946,-2.9569,-2.9658,-3.0017,-3.0119,-3.0089,-3.0079,-3.0086,-3.0104,-3.0097,-3.0098,-3.0097,-3.0098,-2.952,-2.9039,-2.9039,-2.9039,-2.9039,-2.9039,-2.9039,-2.9039,-2.9039,-2.9039,-2.9039,-2.9039,-2.9039,-2.9039,-2.9039,-2.9039,-2.8967,-2.8787,-2.8775,-2.8703,-2.8522,-2.851,-2.851,-2.851,-2.851,-2.851,-2.851,0.0,0.0,0.0,0.0,0.0,0.0,0.0,0.0,0.0,0.0,0.0,0.0,0.0,0.0,0.0,0.0,0.0,0.0,0.0,0.0,0.0,0.0,0.0,-2.6111,-2.5733,-2.5877,-2.6786,-2.6276,-2.6205,-2.707,-2.6774,-2.695,-2.7969,-2.8038,-2.8057,-2.8137,-2.8573,-2.8628,-2.8216,-2.8662,-2.8685,-2.8261,-2.8697,-2.8697,-2.8272,-2.9701,-3.0781,-3.1484,-3.2133,-3.3089,-3.4313,-3.5228,-3.5296,-3.4667,-3.4533,-3.4327,-3.4059,-3.3622,-3.2949,-3.2209,-3.262,-3.2646,-3.2501,-3.2857,-3.258,-3.1915,-3.1279,-3.0646,-3.0086,-3.0086,-3.0086,-3.0086,-3.011,-3.011,-3.0122,-3.0134,-3.0134,-3.017,-3.0148,-3.016,-3.0147,-3.0169,-3.0172,-3.0143,-3.014,-3.0134,-3.0122,-3.0098,-3.0086,-3.0086,-3.0086,-3.0086,0.0,-3.0086,-3.0086,-3.0086,-3.0086,-3.0086,-3.0086,-3.0086,-3.0086,-2.9869,-2.9352,-2.9304,-2.9076,-2.8558,-2.8522,-2.851,-2.851,-2.851,-2.851,-2.851,0.0,0.0,0.0,0.0,0.0,0.0,0.0,0.0,0.0,0.0,0.0,0.0,0.0,0.0,0.0,0.0,0.0,0.0,0.0,0.0,0.0,0.0,-2.7193,-2.6353,-2.6697,-2.6987,-2.6663,-2.7025,-2.7526,-2.8139,-2.7818,-2.8138,-2.9433,-2.8931,-2.8703,-2.9044,-2.9242,-2.9612,-3.0192,-3.0699,-3.1266,-3.1849,-3.1608,-3.1413,-3.1321,-3.1923,-3.2306,-3.2536,-3.413,-3.5048,-3.5401,-3.6131,-3.6582,-3.6636,-3.6122,-3.6183,-3.6429,-3.5291,-3.4527,-3.4085,-3.4177,-3.3896,-3.3456,-3.3105,-3.258,-3.1915,-3.1279,-3.0646,-3.0086,-3.0086,-3.0086,-3.017,-3.0555,-3.0663,-3.0747,-3.1175,-3.1271,-3.1259,-3.1243,-3.128,-3.1248,-3.1261,-3.128,-3.1256,-3.124,-3.1271,-3.1031,-3.0218,-3.0086,-3.0086,-3.0086,0.0,0.0,-3.0086,-3.0086,-3.0086,-3.0086,-3.0086,-3.0086,-3.0086,-3.0086,-3.0025,-2.9881,-2.9508,-2.9232,-2.9088,-2.8715,-2.851,-2.851,-2.851,-2.851,0.0,0.0,0.0,0.0,0.0,0.0,0.0,0.0,0.0,0.0,0.0,0.0,0.0,0.0,0.0,0.0,0.0,0.0,0.0,0.0,0.0,0.0,-2.7704,-2.7687,-2.7573,-2.7837,-2.7941,-2.7716,-2.8132,-2.8685,-2.9196,-2.9022,-2.9413,-3.0687,-3.0316,-3.02,-3.0667,-3.0996,-3.1301,-3.1617,-3.2165,-3.2624,-3.2934,-3.2887,-3.2864,-3.2968,-3.3591,-3.4198,-3.4828,-3.62,-3.6957,0.0,-3.739,-3.7644,-3.7838,-3.7169,-3.716,0.0,0.0,0.0,0.0,0.0,-3.571,-3.5372,-3.4995,-3.4439,-3.3755,-3.2857,-3.212,-3.1467,-3.0948,-3.0747,-3.0862,-3.1163,-3.1247,-3.132,-3.1633,-3.1705,-3.1705,-3.1705,-3.1705,-3.1705,-3.1705,-3.1705,-3.1705,-3.1705,0.0,0.0,-3.0898,-3.0747,-3.0747,-3.0747,-3.0747,-3.0747,0.0,-3.0747,-3.0747,-3.0747,-3.0747,-3.0747,-3.0747,-3.0747,0.0,0.0,0.0,-2.9761,-2.9316,-2.9003,0.0,0.0,0.0,-2.851,0.0,0.0,0.0,0.0,-2.851,-2.851,0.0,0.0,0.0,0.0,0.0,0.0,0.0,0.0,0.0,0.0,0.0,0.0,0.0,0.0,0.0,0.0,-2.7822,-2.8222,-2.9172,-2.8943,-2.8871,-2.9328,-2.9388,-2.9617,-3.0206,-3.0266,-3.0742,-3.1813,-3.1898,-3.207,-3.2582,0.0,0.0,0.0,0.0,-3.3253,-3.2759,-3.3217,-3.3613,-3.3866,-3.4972,-3.619,-3.7505,-3.8066,-3.8666,-3.9278,-3.8735,-3.8518,-3.8477,-3.7905,-3.7689,-3.7675,-3.754,-3.7485,-3.7485,-3.7485,-3.7485,0.0,0.0,0.0,0.0,-3.5193,-3.4343,-3.3607,-3.2462,-3.2051,-3.2019,-3.2019,-3.193,-3.1898,-3.1898,-3.1898,-3.1886,-3.1862,-3.1858,-3.189,-3.1853,-3.1865,-3.1898,-3.1898,-3.1898,-3.1874,-3.1813,-3.1753,-3.1705,-3.1705,-3.1705,0.0,-3.1705,-3.1705,-3.1705,-3.1705,0.0,0.0,-3.1705,-3.1705,-3.1512,-3.1043,-3.0946,-3.0477,-2.9436,-2.9388,-2.9172,-2.8703,-2.8691,-2.8691,-2.8691,-2.8691,-2.8691,-2.8691,-2.857,-2.851,0.0,0.0,0.0,0.0,0.0,0.0,0.0,0.0,0.0,0.0,0.0,0.0,0.0,0.0,0.0,-2.8349,-2.8715,-2.9063,-2.9268,-2.9581,-2.9821,-2.9917,-2.9941,-3.0314,-3.1308,-3.1404,-3.1849,-3.2899,-3.2971,-3.3021,-3.3133,-3.3622,0.0,-3.3696,-3.4258,-3.4474,-3.4378,-3.4461,-3.4876,-3.5536,0.0,0.0,-3.8087,-3.8747,-3.9172,-3.9292,-3.9183,-3.9129,-3.9129,-3.9007,-3.8952,-3.8871,-3.7865,-3.7485,-3.7485,-3.7485,-3.7485,-3.7485,-3.7485,-3.7075,-3.6462,-3.6213,-3.5665,-3.5079,-3.4819,-3.4361,0.0,-3.3892,-3.3451,-3.2971,-3.2971,-3.2971,-3.2969,-3.2971,-3.3003,-3.2975,-3.3009,-3.2987,-3.2971,-3.2971,-3.2971,-3.2839,-3.2406,-3.2006,-3.1705,-3.1705,-3.1705,-3.1705,-3.1705,-3.1705,-3.1705,-3.1705,-3.1705,-3.1705,-3.1705,-3.1705,-3.1669,-3.156,-3.1151,-3.0591,-2.9965,-2.9941,-2.9893,-2.9785,-2.9785,-2.9785,-2.9785,-2.9785,-2.9785,-2.9761,-2.8907,-2.851,0.0,0.0,0.0,0.0,0.0,0.0,0.0,0.0,0.0,0.0,0.0,-2.85,0.0,0.0,-2.8901,-2.8899,-2.9352,-2.9785,-3.005,-3.0543,-3.0922,-3.0922,-3.0922,-3.1344,-3.2415,-3.2524,-3.2803,-3.3609,-3.3669,-3.3777,-3.4042,-3.4246,-3.439,-3.439,-3.4643,-3.4775,-3.4775,-3.5197,-3.5792,-3.6555,-3.754,-3.8283,-3.8756,-3.9114,-3.9305,-3.9305,-3.9305,-3.9305,-3.9305,-3.9305,-3.9305,-3.9237,-3.8654,-3.8423,-3.8423,-3.8423,-3.8423,-3.8423,-3.8423,-3.8179,-3.7762,-3.6739,-3.6159,-3.5705,-3.4685,-3.4156,-3.386,-3.386,-3.3596,-3.3284,-3.3284,-3.3284,-3.3306,-3.3291,-3.3295,-3.3274,-3.3301,-3.3313,-3.33,-3.33,-3.331,-3.32,-3.2947,-3.2659,-3.2331,-3.1789,-3.1705,-3.1705,-3.1705,-3.1705,-3.1705,-3.1705,-3.1705,-3.1705,-3.1705,-3.1705,-3.1705,-3.1705,-3.1464,-3.1079,-3.0506,-3.0482,-3.035,-3.0098,-3.0086,-3.0086,-3.0086,-3.0086,-3.0086,-3.0074,-2.9544,-2.9304,0.0,0.0,0.0,0.0,0.0,0.0,0.0,-2.8038,-2.8262,-2.7908,-2.821,-2.8523,-2.8638,-2.9015,-2.9328,-2.9436,-2.9893,-3.0422,-3.0995,-3.1536,-3.1946,-3.2094,-3.209,-3.2403,-3.3344,-3.344,-3.3645,-3.4102,-3.415,-3.433,-3.4763,-3.4775,-3.4775,-3.4775,-3.4969,-3.4945,-3.4788,-3.5422,-3.6213,-3.7119,-3.7978,-3.8711,-3.9305,-3.9305,-3.9305,-3.9305,-3.9305,-3.9305,-3.9305,-3.9305,-3.9305,-3.9305,-3.9305,-3.9305,-3.9305,-3.9305,-3.9305,-3.9305,-3.9305,-3.9305,-3.9033,-3.7408,-3.689,-3.6586,-3.4982,-3.4351,-3.4225,-3.4086,-3.3959,-3.3772,-3.3632,-3.3585,-3.3585,-3.3585,-3.3564,-3.3589,-3.3589,-3.3589,-3.3589,-3.3589,-3.3599,-3.3561,-3.3452,-3.344,-3.3104,-3.2175,-3.203,-3.1982,-3.1886,-3.1874,-3.1837,-3.1717,-3.1705,-3.1705,-3.1705,-3.1705,-3.1705,-3.1705,-3.1705,-3.1524,-3.1091,-3.1067,-3.0874,-3.0398,-3.0398,-3.0398,-3.0398,-3.0398,-3.0398,-3.0398,-3.0398,-3.029,-2.6837,-2.7331,-2.7717,-2.7701,-2.7348,-2.7122,0.0,-2.7736,-2.7932,-2.8306,-2.8466,-2.8662,-2.9112,-2.9256,-2.9448,-2.9917,-3.0446,-3.1019,-3.1548,-3.2058,-3.2743,-3.3622,-3.338,-3.3332,-3.385,-3.391,-3.4126,-3.4655,-3.4691,-3.4715,-3.4775,-3.4775,-3.4775,-3.4775,-3.5488,-3.5544,-3.4833,-3.4892,-3.5674,-3.7131,-3.8519,-3.9203,-3.9305,-3.9305,-3.9305,-3.9305,-3.9305,-3.9305,-3.9305,-3.9305,-3.9305,-3.9305,-3.9305,-3.9305,-3.9305,-3.9305,-3.9305,-3.9305,-3.9305,-3.9305,-3.9247,-3.9033,-3.8961,-3.8903,-3.8716,-3.8182,-3.7502,-3.687,-3.6216,-3.5554,-3.48,-3.4607,-3.4607,-3.4607,-3.4619,-3.4643,-3.4643,-3.4643,-3.4643,-3.4643,-3.4619,-3.4462,-3.3982,-3.391,-3.3765,-3.3188,-3.3104,-3.2935,-3.2466,-3.2406,-3.2214,-3.1765,-3.1705,-3.1705,-3.1705,-3.1705,-3.1705,-3.1705,-3.1705,-3.1681,-3.1621,-3.1621,-3.1585,-3.1536,-3.1536,-3.1536,-3.1536,-3.1536,-3.1536,-3.1536,-3.1536,-3.1031,-2.7329,-2.7377,-2.7336,-2.7627,-2.7545,-2.7498,-2.8026,-2.8186,-2.8246,-2.8462,-2.8751,-2.9039,-2.9256,-2.9797,-3.029,0.0,-3.1264,-3.1901,-3.2118,-3.2875,-3.3514,-3.3934,-3.4078,-3.427,-3.4426,-3.445,-3.4546,-3.4763,-3.4775,-3.4775,-3.4775,-3.4775,-3.5017,-3.5488,-3.5823,-3.5876,-3.5697,-3.6238,-3.6884,-3.7534,-3.8738,-3.9305,-3.9305,-3.9305,-3.9305,-3.9305,-3.9305,-3.9305,-3.9305,-3.9305,-3.9305,-3.9305,-3.9305,-3.9305,-3.9305,-3.9305,-3.9305,-3.9305,-3.9305,-3.9305,-3.9203,-3.88,-3.8666,-3.8517,-3.7638,-3.7176,-3.6756,-3.5966,-3.5548,-3.5211,-3.4872,-3.4775,-3.4775,-3.4775,-3.4775,-3.4775,-3.4775,-3.4775,-3.4775,-3.4775,-3.4775,-3.4715,-3.4486,-3.445,-3.4378,-3.4222,-3.3669,-3.3212,-3.2984,-3.2959,-3.2755,-3.2202,-3.2154,-3.2022,-3.1741,-3.1705,-3.1705,-3.1705,-3.1705,-3.1705,-3.1705,-3.1705,-3.1705,-3.1705,-3.1705,-3.1705,-3.1705,-3.1705,-3.1705,-3.1705,-3.1705,-3.1476,-2.7939,-2.7692,-2.7424,-2.7801,-2.7906,-2.8041,-2.8426,-2.851,-2.8546,-2.8703,-2.9027,-2.9388,-2.9677,-3.0362,-3.097,-3.1115,-3.1889,-3.2551,-3.2695,-3.3477,-3.4042,-3.4186,-3.4546,-3.4775,-3.4775,-3.4775,-3.4775,-3.4775,-3.4775,-3.4775,-3.4775,-3.5017,-3.5391,-3.5966,-3.6307,-3.651,-3.6514,-3.7658,-3.8204,-3.8217,-3.8939,-3.9305,-3.9305,-3.9305,-3.9305,-3.9305,-3.9305,-3.9305,-3.9305,-3.9305,-3.9305,-3.9305,-3.9305,-3.9305,-3.9305,-3.9305,-3.9305,-3.9305,-3.9305,-3.9305,-3.9216,-3.8666,-3.8517,-3.8291,-3.7222,-3.6896,-3.6756,-3.5953,-3.5715,-3.5667,-3.5488,-3.5427,-3.5391,-3.5163,-3.5114,-3.5066,-3.4823,-3.4775,-3.4775,-3.4775,-3.4775,-3.4775,-3.4775,-3.4775,-3.4775,-3.4775,-3.4186,-3.3657,-3.3513,-3.3368,-3.314,-3.2755,-3.2719,-3.2491,-3.1982,-3.1934,-3.1874,-3.1717,-3.1705,-3.1705,-3.1705,-3.1705,-3.1705,-3.1705,-3.1705,-3.1705,-3.1705,-3.1705,-3.1705,-3.1705,-3.1705,-3.1705,-2.8575,-2.851,-2.8456,-2.8473,-2.8486,-2.8486,-2.851,-2.851,-2.8655,-2.9172,-2.9292,-2.9617,-3.0639,-3.0898,-3.1091,-3.1597,-3.213,-3.2683,-3.3188,-3.3705,-3.4186,-3.4691,-3.4775,-3.4775,0.0,-3.4775,-3.4775,-3.4775,-3.4775,-3.4775,-3.4775,-3.5536,-3.5966,-3.6013,-3.7119,-3.7515,-3.7079,-3.8537,-3.9247,-3.9247,-3.9305,-3.9305,-3.9305,-3.9305,-3.9305,-3.9305,-3.9305,-3.9305,-3.9305,-3.9305,-3.9305,-3.9305,-3.9305,-3.9305,-3.9305,-3.9305,-3.9305,-3.9305,-3.9305,-3.9305,-3.9305,-3.9247,-3.9261,-3.9261,-3.9216,-3.9216,-3.9024,-3.8291,-3.8109,-3.7913,-3.7209,-3.701,-3.6824,-3.6143,-3.5966,-3.5727,-3.4969,-3.4775,-3.4775,-3.4775,-3.4775,-3.4775,-3.4775,-3.4775,-3.4775,-3.4775,-3.4751,-3.4546,-3.403,-3.3585,-3.3284,-3.3272,-3.3272,-3.3056,-3.2515,-3.2478,-3.2238,-3.1741,-3.1705,-3.1705,-3.1705,-3.1705,-3.1705,-3.1705,-3.1705,-3.1705,-3.1705,-3.1705,-3.1705,-3.1705,-3.1705,-3.1705,-2.9137,-2.8809,-2.8518,-2.8502,-2.851,-2.851,-2.851,-2.8787,-2.9088,-2.9256,-2.9857,-3.0446,-3.0807,-3.1199,-3.15,-3.1681,-3.243,-3.308,-3.326,-3.403,-3.4583,-3.4763,-3.4775,0.0,0.0,0.0,0.0,-3.4775,-3.4775,-3.4775,-3.4775,-3.5584,-3.6238,-3.6696,-3.7429,-3.8028,-3.8537,-3.906,-3.9305,-3.9305,-3.9305,-3.9305,-3.9305,-3.9305,-3.9305,-3.9305,-3.9305,-3.9305,-3.9305,-3.9305,-3.9305,-3.9305,-3.9305,-3.9305,-3.9305,-3.9305,-3.9305,-3.9305,-3.9305,-3.9305,-3.9305,-3.9305,-3.9305,-3.9216,-3.8711,-3.8575,-3.8427,-3.7684,-3.7487,-3.7394,-3.715,-3.6743,-3.6332,-3.6061,-3.5584,-3.5163,-3.5078,-3.5078,-3.5138,-3.5284,-3.5332,-3.532,-3.5308,-3.5345,-3.532,-3.5332,-3.503,-3.4715,-3.4534,-3.4366,-3.4174,-3.3825,-3.3742,-3.3585,-3.3068,-3.302,-3.2947,-3.2755,-3.2418,-3.2214,-3.2214,-3.191,-3.1705,-3.1705,-3.1705,-3.1705,-3.1705,-3.1705,-3.1705,-3.1705,-3.1705,-3.1705,-2.9397,-2.8961,-2.851,-2.851,-2.851,-2.851,-2.851,-2.8919,-2.9352,-2.9544,-3.0266,-3.1014,-3.1466,-3.1608,-3.1793,-3.2013,-3.2756,-3.3284,-3.3284,-3.4174,-3.4775,-3.4775,-3.4775,-3.4775,0.0,0.0,0.0,-3.4775,-3.4775,-3.4775,-3.4775,-3.581,-3.6602,-3.7103,-3.788,-3.863,-3.9292,-3.9305,-3.9305,-3.9305,-3.9305,-3.9305,-3.9305,-3.9305,-3.9305,-3.9305,-3.9305,-3.9305,-3.9305,-3.9305,-3.9305,-3.9305,-3.9305,-3.9305,-3.9305,-3.9305,-3.9305,-3.9305,-3.9305,-3.9305,-3.9305,-3.9305,-3.9305,-3.9216,-3.8756,-3.8562,-3.8472,-3.8037,-3.79,-3.79,-3.79,-3.7407,-3.6862,-3.6615,-3.6001,-3.544,-3.5368,-3.5271,-3.5235,-3.5404,-3.5368,-3.5307,-3.5296,-3.5392,-3.5404,-3.532,-3.5126,-3.492,-3.492,-3.4884,-3.4703,-3.445,-3.4318,-3.4114,-3.3737,-3.3608,-3.3489,-3.3308,-3.2971,-3.2791,-3.2791,-3.243,-3.2283,-3.2283,-3.2058,-3.2006,-3.2006,-3.1801,-3.1813,-3.2006,-3.2006,-3.2114,-2.938,-2.8922,-2.851,-2.851,-2.851,-2.851,-2.851,-2.8943,-2.9484,-2.9989,-3.0573,-3.1331,0.0,0.0,-3.1969,-3.2537,-3.3003,-3.326,-3.3284,-3.415,-3.4751,0.0,0.0,0.0,0.0,0.0,0.0,-3.4775,0.0,-3.4835,-3.4872,-3.6273,-3.7116,-3.715,-3.8549,-3.9305,-3.9305,-3.9305,-3.9305,-3.9305,-3.9305,-3.9305,-3.9305,-3.9305,-3.9305,-3.9305,-3.9305,-3.9305,-3.9305,-3.9305,-3.9305,-3.9305,-3.9305,-3.9305,-3.9305,-3.9305,-3.9305,-3.9305,-3.9305,-3.9305,-3.9305,-3.9305,-3.9305,-3.9305,-3.9305,-3.9305,-3.9305,-3.9305,-3.9305,-3.9349,-3.9349,-3.8993,-3.8453,-3.7697,-3.7083,-3.6487,-3.5752,-3.5416,-3.5211,-3.5235,-3.5017,-3.4872,-3.4872,-3.5088,-3.5197,-3.4908,-3.5078,-3.5223,-3.5223,-3.4981,-3.4932,-3.5175,-3.4981,-3.4727,-3.4458,-3.4185,-3.3885,-3.3392,-3.3344,-3.3332,-3.3332,-3.3308,-3.3284,-3.3284,-3.2803,-3.2539,-3.2539,-3.2054,-3.2022,-3.2539,-3.2539,-3.2803,-2.8855,-2.863,-2.851,-2.851,-2.851,-2.851,-2.851,-2.922,-2.9917,-3.0062,-3.1248,-3.2203,-3.1989,-3.2232,0.0,-3.2013,-3.2385,0.0,-3.3236,-3.3837,0.0,-3.4727,-3.4775,-3.4775,-3.4775,-3.4775,0.0,0.0,-3.4775,-3.5066,-3.5679,-3.6602,-3.7348,-3.7913,-3.8845,-3.9305,-3.9305,-3.9305,-3.9305,-3.9305,-3.9305,-3.9305,-3.9305,-3.9305,-3.9305,-3.9305,-3.9305,-3.9305,-3.9305,-3.9305,-3.9305,-3.9305,-3.9305,-3.9305,-3.9305,-3.9305,-3.9305,-3.9305,-3.9305,-3.9305,-3.9305,-3.9305,-3.9305,-3.9305,-3.9305,-3.9305,-3.9305,-3.9305,-3.9557,-3.9821,-3.9821,-3.9587,-3.9118,-3.8179,-3.725,-3.6436,-3.574,-3.5572,-3.5489,-3.5525,-3.5587,-3.5758,-3.5977,-3.6072,-3.6079,-3.5991,-3.5895,-3.5668,-3.5271,-3.5126,-3.5126,-3.5175,-3.5126,-3.5066,-3.498,-3.4727,-3.4619,-3.469,-3.4161,-3.3802,-3.3802,-3.3489,-3.3284,-3.3284,-3.3152,-3.3092,-3.3092,-3.2947,-3.2947,-3.3092,-3.3092,-3.3164,-2.859,-2.851,-2.851,-2.851,-2.851,-2.857,-2.8799,-2.9508,-3.0199,-3.0443,-3.1459,-3.242,-3.2574,-3.2466,-3.237,0.0,0.0,0.0,-3.3212,-3.3717,-3.4186,0.0,-3.4775,0.0,-3.4775,-3.4775,-3.4775,0.0,-3.5114,-3.5536,-3.5966,-3.7036,-3.7776,-3.82,-3.8935,-3.9305,-3.9305,-3.9305,-3.9305,-3.9305,-3.9305,-3.9305,-3.9305,-3.9305,-3.9305,-3.9305,0.0,-3.9305,-3.9305,-3.9305,-3.9305,-3.9305,-3.9305,-3.9305,-3.9305,-3.9305,-3.9305,-3.9305,-3.9305,-3.9305,-3.9305,-3.9305,-3.9305,-3.9305,-3.9305,-3.9305,-3.9305,-3.9305,-3.9482,-3.9689,-3.9689,-3.9424,-3.8953,-3.8056,-3.7322,-3.6649,-3.5943,-3.5764,-3.5753,-3.5635,-3.5707,-3.5888,-3.6045,-3.614,-3.616,-3.6061,-3.6026,-3.5908,-3.5572,-3.5464,-3.5416,-3.5524,-3.532,-3.5271,-3.538,-3.503,-3.492,-3.5175,-3.4799,-3.4534,-3.4534,-3.4257,-3.4064,-3.397,-3.3741,-3.3621,-3.3621,-3.3392,-3.3404,-3.3621,-3.3621,-3.3741,-2.851,-2.851,-2.851,-2.851,-2.851,-2.8631,-2.9209,-2.9747,-3.0363,-3.0876,-3.1554,-3.2351,-3.3353,-3.2679,-3.2269,-3.3267,0.0,-3.2599,-3.32,-3.3669,-3.4114,-3.4715,-3.4775,-3.4775,-3.4775,-3.4775,-3.4775,-3.4775,-3.5536,-3.6061,-3.6143,-3.7361,-3.8154,-3.8336,-3.898,-3.9305,-3.9305,-3.9305,-3.9305,-3.9305,-3.9305,-3.9305,-3.9305,-3.9305,-3.9305,-3.9305,0.0,0.0,-3.9305,-3.9305,-3.9305,-3.9305,-3.9305,-3.9305,-3.9305,-3.9305,-3.9305,-3.9305,-3.9305,-3.9305,-3.9305,-3.9305,-3.9305,-3.9305,-3.9305,-3.9305,-3.9305,-3.9394,-3.9438,-3.9526,-3.9557,-3.9305,-3.8845,-3.8096,-3.7625,-3.7142,-3.637,-3.6051,-3.5922,-3.5745,-3.5679,-3.567,-3.5705,-3.5921,-3.5949,-3.5761,-3.5918,-3.6063,-3.6063,-3.5812,-3.5716,-3.5968,-3.5572,-3.5416,-3.562,-3.5175,-3.503,-3.5223,-3.5223,-3.5175,-3.5126,-3.5126,-3.503,-3.4775,-3.433,-3.4102,-3.4102,-3.3705,-3.3717,-3.4102,-3.4102,-3.4342,-2.851,-2.851,-2.851,-2.851,-2.851,-2.8642,-2.9229,-2.9797,-3.0371,-3.0976,-3.1953,-3.262,-3.2285,-3.2452,-3.2494,-3.2189,-3.1968,-3.2199,-3.3152,-3.3368,-3.3765,0.0,-3.4775,-3.4775,-3.4775,-3.4775,0.0,0.0,0.0,0.0,-3.6883,-3.715,-3.7854,-3.9069,-3.9203,-3.9305,-3.9305,-3.9305,-3.9305,-3.9305,-3.9305,-3.9305,-3.9305,-3.9305,-3.9305,-3.9305,0.0,0.0,-3.9305,-3.9305,-3.9305,-3.9305,-3.9305,-3.9305,-3.9305,-3.9305,-3.9305,-3.9305,-3.9305,-3.9305,-3.9305,-3.9305,-3.9305,-3.9305,-3.9305,-3.9305,-3.9394,-3.9777,-4.017,-4.0573,-4.0958,-4.1269,-4.1255,-4.0303,-3.9271,-3.8243,-3.7368,-3.638,-3.5764,-3.6171,-3.6053,-3.5992,-3.6225,-3.632,-3.6332,-3.625,-3.631,-3.6323,-3.6323,-3.6098,-3.5968,-3.6015,-3.592,-3.5872,-3.592,-3.562,-3.5476,-3.5524,-3.532,-3.5126,-3.4884,-3.4884,-3.4823,-3.4775,-3.4691,-3.4643,-3.4643,-3.4607,-3.4607,-3.4643,-3.4643,-3.4691,-2.851,-2.851,-2.851,-2.851,-2.851,-2.873,-2.9621,-3.0052,-3.0494,-3.1371,-3.2077,-3.2513,-3.255,-3.2463,-3.2351,-3.2339,-3.1992,-3.2008,-3.2765,-3.3116,-3.3573,-3.4282,-3.4619,-3.4775,-3.4775,-3.4775,0.0,0.0,0.0,0.0,-3.6521,-3.7256,-3.8187,-3.9261,-3.9305,-3.9305,-3.9305,-3.9305,-3.9305,-3.9305,-3.9305,-3.9305,-3.9305,-3.9305,-3.9305,-3.9305,-3.9305,0.0,-3.9305,-3.9305,-3.9305,-3.9305,-3.9305,-3.9305,-3.9305,-3.9305,-3.9305,-3.9305,-3.9305,-3.9305,-3.9305,-3.9305,-3.9305,-3.9305,-3.9305,-3.9305,-3.9394,-3.995,-4.0467,-4.094,-4.1015,-4.1185,-4.1156,-4.0287,-3.9064,-3.7984,-3.7704,-3.6756,-3.6086,-3.6358,-3.6313,-3.6243,-3.637,-3.6405,-3.6405,-3.6405,-3.6405,-3.6405,-3.6405,-3.6275,-3.6181,-3.6181,-3.6098,-3.6015,-3.6015,-3.5764,-3.5668,-3.5812,-3.5668,-3.5524,-3.5223,-3.5223,-3.5078,-3.4835,-3.4775,-3.4884,-3.503,-3.503,-3.503,-3.503,-3.503,-3.503,-2.851,-2.851,-2.851,-2.851,-2.851,-2.8806,-2.9953,-3.0251,-3.0636,-3.1813,-3.2149,-3.2354,-3.283,-3.2417,-3.211,-3.2536,-3.2143,-3.1964,-3.2436,-3.2959,-3.3477,-3.3934,-3.445,0.0,-3.4775,-3.4775,0.0,0.0,0.0,0.0,-3.6427,-3.7743,-3.8711,-3.9305,-3.9305,-3.9305,-3.9305,-3.9305,-3.9305,-3.9305,-3.9305,-3.9305,-3.9305,-3.9305,-3.9305,-3.9305,-3.9305,0.0,0.0,-3.9305,-3.9305,-3.9305,-3.9305,-3.9305,-3.9305,-3.9305,-3.9305,-3.9305,-3.9305,-3.9305,-3.9305,-3.9305,-3.9305,-3.9305,-3.9305,-3.9305,-3.9394,-3.9865,-4.0435,-4.0907,-4.0872,-4.083,-4.0688,-3.9998,-3.8765,-3.7782,-3.7808,-3.7036,-3.6405,-3.6405,-3.6405,-3.6405,-3.6405,-3.6405,-3.6405,-3.6405,-3.6405,-3.6405,-3.6405,-3.6405,-3.6405,-3.6405,-3.6181,-3.6098,-3.6098,-3.5908,-3.586,-3.5968,-3.6015,-3.5872,-3.562,-3.562,-3.5416,-3.4981,-3.492,-3.4981,-3.5223,-3.5126,-3.5126,-3.5126,-3.5175,-3.5223,-2.851,-2.851,-2.851,-2.851,-2.851,-2.8828,-3.0011,-3.0279,-3.0646,-3.193,-3.2173,-3.2232,-3.2286,-3.2137,-3.198,-3.197,-3.1905,-3.1964,-3.2436,-3.2959,-3.3477,-3.3934,0.0,0.0,-3.4775,-3.4775,0.0,0.0,0.0,0.0,0.0,-3.8756,-3.9203,-3.9305,-3.9305,-3.9305,-3.9305,-3.9305,-3.9305,-3.9305,-3.9305,-3.9305,-3.9305,-3.9305,-3.9305,-3.9305,0.0,0.0,0.0,-3.9305,-3.9305,-3.9305,-3.9305,-3.9305,-3.9305,-3.9305,-3.9305,-3.9305,-3.9305,-3.9305,-3.9305,-3.9305,-3.9305,-3.9305,-3.9305,-3.9305,-3.9295,-3.9355,-3.9826,-4.0469,-4.1156,-4.1354,-4.1213,-4.066,-3.9768,-3.881,-3.7978,-3.7036,-3.6405,-3.6405,-3.6405,-3.6405,-3.6405,-3.6405,-3.6405,-3.6405,-3.6405,-3.6405,-3.6405,-3.6405,-3.6405,-3.6405,-3.6358,-3.6358,-3.6358,-3.6358,-3.6228,-3.6015,-3.6015,-3.5872,-3.562,-3.562,-3.5572,-3.5524,-3.5271,-3.5175,-3.5223,-3.4981,-3.4823,-3.4823,-3.5078,-3.5223,-2.851,-2.851,-2.851,-2.851,-2.851,-2.8816,-3.0012,-3.0279,-3.0671,-3.195,-3.2218,-3.2218,-3.2218,-3.2175,-3.2082,-3.1935,-3.2228,-3.2492,-3.2591,-3.3355,-3.398,-3.4188,-3.4545,0.0,0.0,0.0,0.0,0.0,0.0,0.0,0.0,-3.8485,-3.8845,-3.9305,-3.9305,-3.9305,-3.9305,-3.9305,-3.9305,-3.9305,-3.9305,-3.9305,-3.9305,-3.9305,-3.9305,-3.9305,0.0,0.0,0.0,-3.9305,-3.9305,-3.9305,-3.9305,-3.9482,-3.9733,-3.9733,-3.9908,-4.0112,-3.9929,-3.9844,-3.9871,-4.0099,-4.0126,-4.0039,-3.9482,-3.9285,-3.9467,-4.0158,-4.0557,-4.0928,-4.1634,-4.1829,-4.1787,-4.1535,-4.0317,-3.9121,-3.872,-3.7933,-3.7083,-3.6499,-3.6877,-3.7061,-3.6502,-3.6405,-3.6405,-3.6405,-3.6405,-3.6405,-3.6405,-3.6405,-3.6405,-3.6405,-3.6405,-3.6405,-3.6405,-3.6405,-3.637,-3.6228,-3.6228,-3.6146,-3.586,-3.5812,-3.5764,-3.562,-3.5524,-3.5524,-3.5668,-3.5416,-3.5271,-3.5271,-3.5368,-3.5416,-2.851,-2.851,-2.851,-2.851,-2.8618,-2.904,-3.0063,-3.0431,-3.0897,-3.1986,-3.2218,-3.2218,-3.2218,-3.2218,-3.2216,-3.2214,-3.2435,-3.2649,-3.2678,-3.3444,-3.3998,-3.3998,0.0,0.0,0.0,0.0,0.0,0.0,0.0,0.0,0.0,-3.8063,-3.853,-3.9305,-3.9305,-3.9305,-3.9305,-3.9305,-3.9305,-3.9305,-3.9305,-3.9305,-3.9305,-3.9438,-3.9526,-3.9526,0.0,0.0,0.0,-3.9557,-3.9601,-3.9689,-3.9689,-3.9908,-4.0213,-4.0213,-4.0457,-4.0773,-4.0447,-4.0518,-4.0773,-4.0801,-4.0957,-4.0971,-4.0108,-3.9555,-3.955,-4.0772,-4.1128,-4.1298,-4.1689,-4.1939,-4.2092,-4.2092,-4.0816,-3.9593,-3.9593,-3.8899,-3.7933,-3.6989,-3.7593,-3.7837,-3.6597,-3.664,-3.6722,-3.6452,-3.6405,-3.6405,-3.6405,-3.6405,-3.6405,-3.6405,-3.6405,-3.6405,-3.6405,-3.6405,-3.6405,-3.6405,-3.6405,-3.6323,-3.6146,-3.6098,-3.6051,-3.5847,-3.5764,-3.5812,-3.6015,-3.5716,-3.562,-3.562,-3.5668,-3.5764,-2.851,-2.851,-2.851,-2.851,-2.8961,-2.9535,-3.0165,-3.0771,-3.1381,-3.2059,-3.2218,-3.2218,-3.2218,-3.2218,-3.2364,-3.2802,-3.2355,-3.2079,-3.2648,-3.3052,-3.3284,0.0,0.0,0.0,0.0,0.0,0.0,0.0,0.0,0.0,0.0,0.0,-3.853,-3.9305,-3.9305,-3.9305,-3.9305,-3.9305,-3.9305,-3.9305,-3.9305,-3.9305,-3.9305,-3.9777,-3.9996,0.0,0.0,0.0,0.0,-4.017,-4.0257,-4.0702,-4.0702,-4.0702,-4.0702,-4.0702,-4.0872,-4.1056,-4.0787,-4.1312,-4.1967,-4.1312,-4.154,-4.1965,-4.1284,-4.0263,-3.9558,-4.0773,-4.1242,-4.1339,-4.1141,-4.1576,-4.2092,-4.2092,-4.1339,-4.0603,-4.0603,-3.9855,-3.8899,-3.7978,-3.8554,-3.8585,-3.6722,-3.7176,-3.7453,-3.6546,-3.6405,-3.6405,-3.6405,-3.6405,-3.6405,-3.6405,-3.6405,-3.6405,-3.6405,-3.6405,-3.6405,-3.6405,-3.6405,-3.6405,-3.6405,-3.6405,-3.6405,-3.6405,-3.6146,-3.6015,-3.6015,-3.5716,-3.562,-3.562,-3.5872,-3.6146,-2.851,-2.851,-2.859,-2.9,-2.9263,-2.9678,-3.0696,-3.1071,-3.1381,-3.2059,-3.2218,-3.2218,-3.2218,-3.2218,-3.2364,-3.2802,-3.2712,-3.2757,-3.3305,0.0,0.0,-3.3986,0.0,0.0,0.0,0.0,0.0,0.0,0.0,0.0,0.0,0.0,-3.8004,-3.9247,-3.9305,-3.9305,-3.9305,-3.9305,-3.9305,-3.9305,-3.9645,-3.9848,-3.9933,-4.0328,0.0,0.0,0.0,0.0,0.0,-4.053,-4.0573,-4.0702,-4.0702,-4.0915,-4.1185,-4.1185,-4.1424,-4.1761,-4.1676,-4.1846,-4.2045,-4.1846,-4.193,-4.2069,-4.1874,-4.1197,-4.0647,-4.117,-4.1565,-4.187,-4.1785,-4.1939,-4.2092,-4.2092,-4.1339,-4.0603,-4.0603,-4.0375,-3.9899,-3.8944,-3.8988,-3.8814,-3.756,-3.7052,-3.6722,-3.6452,-3.6405,-3.6405,-3.6405,-3.6405,-3.6405,-3.6405,-3.6405,-3.6405,-3.6405,-3.6405,-3.6405,-3.6405,-3.6405,-3.6405,-3.6405,-3.6405,-3.6405,-3.6405,-3.6323,-3.6275,-3.6275,-3.6003,-3.586,-3.5872,-3.5968,-3.6146,-2.8776,-2.8855,-2.8961,-2.96,-2.9909,-3.0279,-3.1033,-3.1381,-3.1703,-3.2096,-3.2218,-3.2218,-3.2218,-3.2218,-3.2452,-3.3178,-3.3079,-3.3091,-3.3643,0.0,0.0,-3.4446,0.0,0.0,0.0,0.0,0.0,0.0,0.0,0.0,0.0,0.0,-3.805,-3.9247,-3.9305,-3.9305,-3.9305,-3.9305,-3.9394,-3.9557,-3.9865,-4.0154,-4.0413,-4.0801,0.0,0.0,0.0,0.0,0.0,-4.1043,-4.1086,-4.1227,-4.1227,-4.1396,-4.1662,-4.1662,-4.1829,-4.2092,-4.2092,-4.2092,-4.2092,-4.2092,-4.2092,-4.2092,-4.2092,-4.1827,-4.1492,-4.1647,-4.187,-4.2092,-4.2092,-4.2092,-4.2092,-4.2092,-4.1619,-4.1156,-4.1156,-4.1156,-4.0887,-3.9899,-4.0057,-3.9768,-3.8073,-3.7593,-3.7219,-3.6521,-3.6405,-3.6405,-3.6405,-3.6405,-3.6405,-3.6405,-3.6405,-3.6405,-3.6405,-3.6405,-3.6405,-3.6405,-3.6405,-3.6405,-3.6405,-3.6405,-3.6405,-3.6405,-3.6405,-3.6405,-3.6405,-3.6228,-3.6146,-3.6146,-3.6146,-3.6228,0.0,-2.938,-2.9496,-3.0126,-3.0733,-3.1158,-3.127,-3.174,0.0,-3.2218,-3.2218,-3.2218,-3.2218,-3.2218,-3.2562,-3.3718,-3.3287,-3.3038,0.0,-3.3997,0.0,0.0,0.0,0.0,0.0,0.0,0.0,0.0,0.0,0.0,0.0,0.0,0.0,-3.9305,-3.9349,-3.9349,-3.9305,-3.9305,-3.9526,-3.9996,-4.0039,-4.03,-4.0787,-4.1227,0.0,0.0,0.0,0.0,0.0,-4.162,-4.1704,-4.2092,-4.2092,-4.2092,-4.2092,-4.2092,-4.2092,-4.2092,-4.2092,-4.2092,-4.2092,-4.2092,-4.2092,-4.2092,-4.2092,-4.2092,-4.2092,-4.2092,-4.2092,-4.2092,-4.2092,-4.2092,-4.2092,-4.2092,-4.2092,-4.2092,-4.2092,-4.2092,-4.1814,-4.0873,-4.1395,-4.11,-3.836,-3.8568,-3.8487,-3.6684,-3.6405,-3.6405,-3.6405,-3.6405,-3.6405,-3.6405,-3.6405,-3.6405,-3.6405,-3.6405,-3.6405,-3.6405,-3.6405,-3.6405,-3.6405,-3.6405,-3.6405,-3.6405,-3.6405,-3.6405,-3.6405,-3.6405,-3.6405,-3.6405,-3.6405,-3.6405,-2.9236,0.0,-2.8961,-3.0024,-3.0406,-3.0784,0.0,-3.2096,-3.2218,-3.2218,-3.2218,-3.2218,-3.2218,-3.2218,-3.2562,-3.3718,-3.2896,-3.2515,-3.3546,0.0,0.0,0.0,0.0,0.0,0.0,0.0,0.0,0.0,0.0,0.0,0.0,0.0,0.0,-3.9305,-3.9645,-3.9645,-3.9305,-3.9305,-3.9526,-3.9996,-4.0343,-4.0787,-4.1269,-4.1704,0.0,0.0,0.0,0.0,-4.2092,-4.1968,-4.2009,-4.2092,-4.2092,-4.2092,-4.2092,-4.2092,-4.2092,-4.2092,-4.2092,-4.2092,-4.2092,-4.2092,-4.2092,-4.2092,-4.2092,-4.2092,-4.2092,-4.2092,-4.2092,-4.2092,-4.2092,-4.2092,-4.2092,-4.2092,-4.2092,-4.2092,-4.2092,-4.2092,-4.2051,-4.1773,-4.1296,-4.049,-3.9131,-3.8475,-3.7717,-3.6568,-3.6405,-3.6405,-3.6405,-3.6405,-3.6405,-3.6405,-3.6405,-3.6405,-3.6405,-3.6405,-3.6405,-3.6405,-3.6405,-3.6405,-3.6405,-3.6405,-3.6405,-3.6405,-3.6405,-3.6405,-3.6405,-3.6405,-3.6405,-3.6405,-3.6405,-3.6405,-2.8895,-2.8961,-2.9197,-3.0393,-3.0507,-3.0633,-3.19,-3.1973,-3.1827,-3.2132,-3.2218,-3.2218,-3.2218,-3.2165,-3.2399,-3.3309,-3.3067,0.0,0.0,0.0,0.0,0.0,0.0,0.0,0.0,0.0,0.0,0.0,0.0,0.0,0.0,0.0,0.0,0.0,-4.0083,-4.0083,-3.9645,-3.9821,-4.017,-4.0659,-4.0915,-4.1269,-4.1745,-4.1968,0.0,0.0,0.0,0.0,-4.2092,-4.2092,-4.2092,-4.2092,-4.2092,-4.2092,-4.2092,-4.2092,-4.2092,-4.2092,-4.2092,-4.2092,-4.2092,-4.2092,-4.2092,-4.2092,-4.2092,-4.2092,-4.2092,-4.2092,-4.2092,-4.2092,-4.2092,-4.2092,-4.2092,-4.2092,-4.2092,-4.2092,-4.2092,-4.2092,-4.2092,-4.2092,-4.1675,-4.0831,-3.9431,-3.8778,-3.7998,-3.6606,-3.6405,-3.6405,-3.6405,-3.6405,-3.6405,-3.6405,-3.6405,-3.6405,-3.6405,-3.6405,-3.6405,-3.6405,-3.6405,-3.6405,-3.6405,-3.6405,-3.6405,-3.6405,-3.6405,-3.6405,-3.6405,-3.6405,-3.6405,-3.6405,-3.6405,-3.6405,-2.851,-2.8882,-2.9523,-3.0658,-3.062,-3.0595,-3.1666,-3.1629,-3.1468,-3.1936,-3.2132,-3.2209,-3.2168,-3.2088,-3.2186,0.0,0.0,0.0,0.0,0.0,0.0,0.0,0.0,0.0,0.0,0.0,0.0,0.0,0.0,0.0,0.0,0.0,0.0,0.0,-4.0573,-4.0616,-4.0213,-4.053,-4.0958,-4.1396,-4.1396,-4.1662,-4.2092,-4.2092,0.0,0.0,0.0,0.0,-4.2092,-4.2092,-4.2092,-4.2092,-4.2092,-4.2092,-4.2092,-4.2092,-4.2092,-4.2092,-4.2092,-4.2092,-4.2092,-4.2092,-4.2092,-4.2092,-4.2092,-4.2092,-4.2092,-4.2092,-4.2092,-4.2092,-4.2092,-4.2092,-4.2092,-4.2092,-4.2092,-4.2092,-4.2092,-4.2092,-4.2092,-4.2092,-4.2092,-4.1549,-3.9738,-3.9414,-3.8775,-3.6888,-3.6628,-3.6546,-3.6405,-3.6405,-3.6405,-3.6405,-3.6405,-3.6405,-3.6405,-3.6405,-3.6405,-3.6405,-3.6405,-3.6405,-3.6405,-3.6405,-3.6405,-3.6405,-3.6405,-3.6405,-3.6405,-3.6405,-3.6405,-3.6405,-3.6405,-3.6405,-2.851,-2.859,-2.8816,-2.9496,-2.9973,-3.0355,-3.0558,-3.1371,-3.19,-3.1468,-3.1813,-3.2171,-3.2031,-3.2,-3.2162,-3.2737,0.0,0.0,0.0,0.0,0.0,0.0,0.0,0.0,0.0,0.0,0.0,0.0,0.0,0.0,0.0,0.0,0.0,0.0,-4.1043,-4.1269,-4.1185,-4.0873,-4.0958,-4.1396,-4.1396,-4.1662,-4.2092,-4.2092,-4.2092,0.0,0.0,-4.2092,-4.2092,-4.2092,-4.2092,-4.2092,-4.2092,-4.2092,-4.2092,-4.2092,-4.2092,-4.2092,-4.2092,-4.2092,-4.2092,-4.2092,-4.2092,-4.2092,-4.2092,-4.2092,-4.2092,-4.2092,-4.2092,-4.2092,-4.2092,-4.2092,-4.2092,-4.2092,-4.2092,-4.2092,-4.2092,-4.2092,-4.2092,-4.2092,-4.2092,-4.1717,-4.056,-4.0374,-3.9736,-3.7854,-3.7592,-3.7315,-3.6499,-3.6405,-3.6405,-3.6405,-3.6405,-3.6405,-3.6405,-3.6405,-3.6405,-3.6405,-3.6405,-3.6405,-3.6405,-3.6405,-3.6405,-3.6405,-3.6405,-3.6405,-3.6405,-3.6405,-3.6405,-3.6405,-3.6405,-3.6405,-2.851,-2.851,-2.859,-2.8843,-2.9118,-2.9496,-3.0126,-3.052,-3.0671,-3.0696,-3.1209,-3.1641,-3.1525,-3.2032,-3.266,-3.3206,0.0,0.0,0.0,0.0,0.0,0.0,0.0,0.0,0.0,0.0,0.0,0.0,0.0,0.0,0.0,0.0,0.0,0.0,-4.1522,-4.1787,-4.1787,-4.1578,-4.1578,-4.1787,-4.1787,-4.1885,-4.2092,-4.2092,-4.2092,-4.2092,0.0,-4.2092,-4.2092,-4.2092,-4.2092,-4.2092,-4.2092,-4.2092,-4.2092,-4.2092,-4.2092,-4.2092,-4.2092,-4.2092,-4.2092,-4.2092,-4.2092,-4.2092,-4.2092,-4.2092,-4.2092,-4.2092,-4.2092,-4.2092,-4.2092,-4.2092,-4.2092,-4.2092,-4.2092,-4.2092,-4.2092,-4.2092,-4.2092,-4.2092,-4.2092,-4.1773,-4.0774,-4.0603,-4.0116,-3.8765,-3.8554,-3.8419,-3.7965,-3.7487,-3.7176,-3.7176,-3.6675,-3.6405,-3.6405,-3.6405,-3.6405,-3.6405,-3.6405,-3.6405,-3.6405,-3.6405,-3.6405,-3.6405,-3.6405,-3.6405,-3.6405,-3.6405,-3.6405,-3.6405,-3.6405,-3.6405,-2.851,-2.851,-2.851,-2.851,-2.863,-2.8922,-2.9716,-2.9755,-2.9716,-3.0024,-3.0661,-3.1148,-3.1095,-3.2052,0.0,-3.3403,0.0,0.0,0.0,0.0,0.0,0.0,0.0,0.0,0.0,0.0,0.0,0.0,0.0,0.0,0.0,0.0,0.0,0.0,-4.1926,-4.2092,-4.2092,-4.2092,-4.2092,-4.2092,-4.2092,-4.2092,-4.2092,-4.2092,-4.2092,-4.2092,-4.2092,-4.2092,-4.2092,-4.2092,-4.2092,-4.2092,-4.2092,-4.2092,-4.2092,-4.2092,-4.2092,-4.2092,-4.2092,-4.2092,-4.2092,-4.2092,-4.2092,-4.2092,-4.2092,-4.2092,-4.2092,-4.2092,-4.2092,-4.2092,-4.2092,-4.2092,-4.2092,-4.2092,-4.2092,-4.2092,-4.2092,-4.2092,-4.2092,-4.2092,-4.2092,-4.1856,-4.1057,-4.0972,-4.0617,-3.9681,-3.9505,-3.9461,-3.9241,-3.8392,-3.7815,-3.7808,-3.6956,-3.6405,-3.6405,-3.6405,-3.6405,-3.6405,-3.6405,-3.6405,-3.6405,-3.6405,-3.6405,-3.6405,-3.6405,-3.6405,-3.6405,-3.6405,-3.6405,-3.6405,-3.6405,-3.6405,-2.851,-2.851,-2.851,-2.851,-2.8922,-2.9223,-2.8736,-2.9445,-3.0101,-2.9574,-3.0352,-3.1081,-3.1007,-3.195,-3.2753,-3.2785,0.0,0.0,0.0,0.0,0.0,0.0,0.0,0.0,0.0,0.0,0.0,0.0,0.0,0.0,0.0,0.0,0.0,0.0,0.0,-4.2092,-4.2092,-4.2092,-4.2092,-4.2092,-4.2092,-4.2092,-4.2092,-4.2092,-4.2092,-4.2092,-4.2092,-4.2092,-4.2092,-4.2092,-4.2092,-4.2092,-4.2092,-4.2092,-4.2092,-4.2092,-4.2092,-4.2092,-4.2092,-4.2092,-4.2092,-4.2092,-4.2092,-4.2092,-4.2092,-4.2092,-4.2092,-4.2092,-4.2092,-4.2092,-4.2092,-4.2092,-4.2092,-4.2092,-4.2092,-4.2092,-4.2092,-4.2092,-4.2092,-4.2092,-4.2092,-4.2092,-4.1995,-4.1995,-4.1675,-4.0646,-4.0504,-4.0159,-3.9285,-3.8376,-3.7821,-3.7795,-3.6956,-3.6405,-3.6405,-3.6405,-3.6405,-3.6405,-3.6405,-3.6405,-3.6405,-3.6405,-3.6405,-3.6405,-3.6405,-3.6405,-3.6405,-3.6405,-3.6405,-3.6405,-3.6405,-3.6405,-2.851,-2.851,-2.851,-2.851,-2.8657,-2.8776,-2.855,-2.9157,-2.9661,-2.9389,-2.997,-3.0849,-3.1905,0.0,-3.3343,0.0,0.0,0.0,0.0,0.0,0.0,0.0,0.0,0.0,0.0,0.0,0.0,0.0,0.0,0.0,0.0,0.0,0.0,0.0,0.0,-4.2092,-4.2092,-4.2092,-4.2092,-4.2092,-4.2092,-4.2092,-4.2092,-4.2092,-4.2092,-4.2092,-4.2092,-4.2092,-4.2092,-4.2092,-4.2092,-4.2092,-4.2092,-4.2092,-4.2092,-4.2092,-4.2092,-4.2092,-4.2092,-4.2092,-4.2092,-4.2092,-4.2092,-4.2092,-4.2092,-4.2092,-4.2092,-4.2092,-4.2092,-4.2092,-4.2092,-4.2092,-4.2092,-4.2092,-4.2092,-4.2092,-4.2092,-4.2092,-4.2092,-4.2092,-4.2092,-4.2092,-4.2092,-4.2092,-4.1953,-4.1577,-4.1535,-4.1395,-4.1057,-3.9653,-3.8653,-3.8675,-3.7302,-3.6405,-3.6405,-3.6405,-3.6405,-3.6405,-3.6405,-3.6405,-3.6405,-3.6405,-3.6405,-3.6405,-3.6405,-3.6405,-3.6405,-3.6405,-3.6405,-3.6405,-3.6405,-3.6405,-2.851,-2.851,-2.851,-2.851,-2.8657,-2.8736,-2.855,-2.8816,-2.916,-2.9265,-2.9914,-3.0828,-3.2193,-3.298,0.0,0.0,0.0,0.0,0.0,0.0,0.0,0.0,0.0,0.0,0.0,0.0,0.0,0.0,0.0,0.0,0.0,0.0,0.0,0.0,0.0,0.0,-4.2092,-4.2092,-4.2092,-4.2092,-4.2092,-4.2092,-4.2092,-4.2092,-4.2092,-4.2092,-4.2092,-4.2092,-4.2092,-4.2092,-4.2092,-4.2092,-4.2092,-4.2092,-4.2092,-4.2092,-4.2092,-4.2092,-4.2092,-4.2092,-4.2092,-4.2092,-4.2092,-4.2092,-4.2092,-4.2092,-4.2092,-4.2092,-4.2092,-4.2092,-4.2092,-4.2092,-4.2092,-4.2092,-4.2092,-4.2092,-4.2092,-4.2092,-4.2092,-4.2092,-4.2092,-4.2092,-4.2092,-4.2092,-4.2092,-4.2092,-4.2092,-4.2092,-4.2092,-4.0647,-3.9415,-3.8805,-3.7356,-3.6405,-3.6405,-3.6405,-3.6405,-3.6405,-3.6405,-3.6405,-3.6405,-3.6405,-3.6405,-3.6405,-3.6405,-3.6405,-3.6405,-3.6405,-3.6405,-3.6405,-3.6405,-3.6405,-2.851,-2.851,-2.851,-2.851,-2.8961,-2.9223,-2.863,-2.851,-2.8667,-2.9208,-3.0188,-3.1091,-3.1609,-3.2276,0.0,0.0,0.0,0.0,0.0,0.0,0.0,0.0,0.0,0.0,0.0,0.0,0.0,0.0,0.0,0.0,0.0,0.0,0.0,0.0,0.0,0.0,-4.2092,-4.2092,-4.2092,-4.2092,-4.2092,-4.2092,-4.2092,-4.2092,-4.2092,-4.2092,-4.2092,-4.2092,-4.2092,-4.2092,-4.2092,-4.2092,-4.2092,-4.2092,-4.2092,-4.2092,-4.2092,-4.2092,-4.2092,-4.2092,-4.2092,-4.2092,-4.2092,-4.2092,-4.2092,-4.2092,-4.2092,-4.2092,-4.2092,-4.2092,-4.2092,-4.2092,-4.2092,-4.2092,-4.2092,-4.2092,-4.2092,-4.2092,-4.2092,-4.2092,-4.2092,-4.2092,-4.2092,-4.2092,-4.2092,-4.2092,-4.2092,-4.2092,-4.2092,-4.1202,-3.9872,-3.8031,-3.6993,-3.6405,-3.6405,-3.6405,-3.6405,-3.6405,-3.6405,-3.6405,-3.6405,-3.6405,-3.6405,-3.6405,-3.6405,-3.6405,-3.6405,-3.6405,-3.6405,-3.6405,-3.6405,-3.6405,-2.851,-2.851,-2.851,-2.851,-2.8618,-2.8736,-2.855,-2.9095,-2.9821,-3.0344,-3.1753,-3.2757,-3.2457,-3.333,0.0,0.0,0.0,0.0,0.0,0.0,0.0,0.0,0.0,0.0,0.0,0.0,0.0,0.0,0.0,0.0,0.0,0.0,0.0,0.0,0.0,0.0,-4.2092,-4.2092,-4.2092,-4.2092,-4.2092,-4.2092,-4.2092,-4.2092,-4.2092,-4.2092,-4.2092,-4.2092,-4.2092,-4.2092,-4.2092,-4.2092,-4.2092,-4.2092,-4.2092,-4.2092,-4.2092,-4.2092,-4.2092,-4.2092,-4.2092,-4.2092,-4.2092,-4.2092,-4.2092,-4.2092,-4.2092,-4.2092,-4.2092,-4.2092,-4.2092,-4.2092,-4.2092,-4.2092,-4.2092,-4.2092,-4.2092,-4.2092,-4.2092,-4.2092,-4.2092,-4.2092,-4.2092,-4.2092,-4.2092,-4.2092,-4.2092,-4.1856,-4.1156,-4.0788,-4.0121,-3.8907,-3.8559,-3.8102,-3.7441,-3.7361,-3.7083,-3.6452,-3.6405,-3.6405,-3.6405,-3.6405,-3.6405,-3.6405,-3.6405,-3.6405,-3.6405,-3.6405,-3.6405,-3.6405,-3.6405,-3.6405,-2.851,-2.851,-2.851,-2.851,-2.851,-2.857,-2.8775,-2.9505,-3.038,-3.1156,-3.2376,-3.3258,-3.3129,-3.3755,0.0,0.0,0.0,0.0,0.0,0.0,0.0,0.0,0.0,0.0,0.0,0.0,0.0,0.0,0.0,0.0,0.0,0.0,0.0,0.0,0.0,0.0,-4.2092,-4.2092,-4.2092,-4.2092,-4.2092,-4.2092,-4.2092,-4.2092,-4.2092,-4.2092,-4.2092,-4.2092,-4.2092,-4.2092,-4.2092,-4.2092,-4.2092,-4.2092,-4.2092,-4.2092,-4.2092,-4.2092,-4.2092,-4.2092,-4.2092,-4.2092,-4.2092,-4.2092,-4.2092,-4.2092,-4.2092,-4.2092,-4.2092,-4.2092,-4.2092,-4.2092,-4.2092,-4.2092,-4.2092,-4.2092,-4.2092,-4.2092,-4.2092,-4.2092,-4.2092,-4.2092,-4.2092,-4.2092,-4.2092,-4.2092,-4.2092,-4.1856,-4.1254,-4.0831,-4.0375,-3.9812,-3.9417,-3.8988,-3.8419,-3.8373,-3.8102,-3.7566,-3.752,-3.7348,-3.6956,-3.6593,-3.6405,-3.6405,-3.6405,-3.6405,-3.6405,-3.6405,-3.6405,-3.6405,-3.6405,-3.6405,-2.855,-2.851,-2.851,-2.851,-2.851,-2.8631,-2.9193,-2.9718,-3.0462,-3.1749,-3.2416,-3.3,-3.3713,0.0,0.0,0.0,0.0,0.0,0.0,0.0,0.0,0.0,0.0,0.0,0.0,0.0,0.0,0.0,0.0,0.0,0.0,0.0,0.0,0.0,0.0,0.0,-4.2092,-4.2092,-4.2092,0.0,-4.2092,-4.2092,-4.2092,-4.2092,-4.2092,-4.2092,-4.2092,-4.2092,-4.2092,-4.2092,-4.2092,-4.2092,-4.2092,-4.2092,-4.2092,-4.2092,-4.2092,-4.2092,-4.2092,-4.2092,-4.2092,-4.2092,-4.2092,-4.2092,-4.2092,-4.2092,-4.2092,-4.2092,-4.2092,-4.2092,-4.2092,-4.2092,-4.2092,-4.2092,-4.2092,-4.2092,-4.2092,-4.2092,-4.2092,-4.2092,-4.2092,-4.2092,-4.2092,-4.2092,-4.2092,-4.2092,-4.2092,-4.2092,-4.2092,-4.1296,-4.0731,-4.0731,-3.9942,-3.9431,-3.9343,-3.9329,-3.9285,-3.921,-3.921,-3.881,-3.7933,-3.7049,-3.6499,-3.6405,-3.6405,-3.6405,-3.6405,-3.6405,-3.6405,-3.6405,-3.6405,-3.6405,-2.855,-2.851,-2.851,-2.851,-2.851,-2.8654,-2.9226,-2.9756,-3.0446,-3.1676,-3.2765,-3.3784,-3.4787,0.0,0.0,0.0,0.0,0.0,0.0,0.0,0.0,0.0,0.0,0.0,0.0,0.0,0.0,0.0,0.0,0.0,0.0,0.0,0.0,0.0,0.0,-4.2092,-4.2092,-4.2092,-4.2092,0.0,-4.2092,-4.2092,-4.2092,-4.2092,-4.2092,-4.2092,-4.2092,-4.2092,-4.2092,-4.2092,-4.2092,-4.2092,-4.2092,-4.2092,-4.2092,-4.2092,-4.2092,-4.2092,-4.2092,-4.2092,-4.2092,-4.2092,-4.2092,-4.2092,-4.2092,-4.2092,-4.2092,-4.2092,-4.2092,-4.2092,-4.2092,-4.2092,-4.2092,-4.2092,-4.2092,-4.2092,-4.2092,-4.2092,-4.2092,-4.2092,-4.2092,-4.2092,-4.2092,-4.2092,-4.2092,-4.2092,-4.2092,-4.2092,-4.2092,-4.1912,-4.1773,-4.1773,-4.1591,-4.1184,-4.0389,-4.0289,-3.9986,-3.9241,-3.921,-3.9121,-3.8899,-3.7978,-3.7129,-3.6405,-3.6405,-3.6405,-3.6405,-3.6405,-3.6405,-3.6405,-3.6405,-3.6405,-2.8697,-2.8657,-2.8657,-2.8657,-2.8578,-2.8657,-2.9263,-2.9798,-3.0659,-3.2397,-3.3235,-3.4204,0.0,0.0,0.0,0.0,0.0,0.0,0.0,0.0,0.0,0.0,0.0,0.0,0.0,0.0,0.0,0.0,0.0,0.0,0.0,0.0,0.0,0.0,-4.2092,-4.2092,-4.2092,-4.2092,-4.2092,-4.2092,-4.2092,-4.2092,-4.2092,-4.2092,-4.2092,-4.2092,-4.2092,-4.2092,-4.2092,-4.2092,-4.2092,-4.2092,-4.2092,-4.2092,-4.2092,-4.2092,-4.2092,-4.2092,-4.2092,-4.2092,-4.2092,-4.2092,-4.2092,-4.2092,-4.2092,-4.2092,-4.2092,-4.2092,-4.2092,-4.2092,-4.2092,-4.2092,-4.2092,-4.2092,-4.2092,-4.2092,-4.2092,-4.2092,-4.2092,-4.2092,-4.2092,-4.2092,-4.2092,-4.2092,-4.2092,-4.2092,-4.2092,-4.2092,-4.2092,-4.2092,-4.2092,-4.2092,-4.2092,-4.1912,-4.1339,-4.1296,-4.1128,-4.0603,-4.0603,-4.0158,-3.9241,-3.872,-3.8011,-3.7083,-3.664,-3.6405,-3.6405,-3.6405,-3.6405,-3.6405,-3.6405,-3.6405,-2.887,-2.8764,-2.8764,-2.8843,-2.8657,-2.8657,-2.9184,-2.9762,-3.0817,-3.3008,-3.3659,0.0,0.0,0.0,0.0,0.0,0.0,0.0,0.0,0.0,0.0,0.0,0.0,0.0,0.0,0.0,0.0,0.0,0.0,0.0,0.0,0.0,-4.1947,-4.2092,-4.2092,-4.2092,-4.2092,-4.2092,-4.2092,-4.2092,-4.2092,-4.2092,-4.2092,-4.2092,-4.2092,-4.2092,-4.2092,-4.2092,-4.2092,-4.2092,-4.2092,-4.2092,-4.2092,-4.2092,-4.2092,-4.2092,-4.2092,-4.2092,-4.2092,-4.2092,-4.2092,-4.2092,-4.2092,-4.2092,-4.2092,-4.2092,-4.2092,-4.2092,-4.2092,-4.2092,-4.2092,-4.2092,-4.2092,-4.2092,-4.2092,-4.2092,-4.2092,-4.2092,-4.2092,-4.2092,-4.2092,-4.2092,-4.2092,-4.2092,-4.2092,-4.2092,-4.2092,-4.2092,-4.2092,-4.2092,-4.2092,-4.2092,-4.2092,-4.2092,-4.2092,-4.2092,-4.2092,-4.2092,-4.2092,-4.1367,-3.9796,-3.9387,-3.881,-3.8069,-3.6943,-3.6405,-3.6405,-3.6405,-3.6405,-3.6405,-3.6405,-3.6405,-2.891,-2.8657,-2.8618,-2.8973,-2.8788,-2.859,-2.8843,-2.9564,-3.0664,0.0,0.0,0.0,0.0,0.0,0.0,0.0,0.0,0.0,0.0,0.0,0.0,0.0,0.0,0.0,0.0,0.0,0.0,0.0,0.0,0.0,0.0,-4.1053,-4.1314,-4.2078,-4.2092,-4.2092,-4.2092,-4.2092,-4.2092,-4.2092,-4.2092,-4.2092,-4.2092,-4.2092,-4.2092,-4.2092,-4.2092,-4.2092,-4.2092,-4.2092,-4.2092,-4.2092,-4.2092,-4.2092,-4.2092,-4.2092,-4.2092,-4.2092,-4.2092,-4.2092,-4.2092,-4.2092,-4.2092,-4.2092,-4.2092,-4.2092,-4.2092,-4.2092,-4.2092,-4.2092,-4.2092,-4.2092,-4.2092,-4.2092,-4.2092,-4.2092,-4.2092,-4.2092,-4.2092,-4.2092,-4.2092,-4.2092,-4.2092,-4.2092,-4.2092,-4.2092,-4.2092,-4.2092,-4.2092,-4.2092,-4.2092,-4.2092,-4.2092,-4.2092,-4.2092,-4.2092,-4.2092,-4.2092,-4.2092,-4.1968,-4.1731,-4.0114,-3.9166,-3.9033,-3.7302,-3.6405,-3.6405,-3.6405,-3.6405,-3.6405,-3.6405,-3.6405,-2.9858,-2.925,-2.8736,-2.9013,-2.9223,-2.9433,-2.9884,-3.075,-3.188,0.0,0.0,0.0,0.0,0.0,0.0,0.0,0.0,0.0,0.0,0.0,0.0,0.0,0.0,0.0,0.0,0.0,0.0,0.0,0.0,0.0,-4.0525,-4.0456,-4.0586,-4.096,-4.1337,0.0,-4.1541,-4.1903,-4.2092,-4.2092,-4.2092,-4.2092,-4.2092,-4.2092,-4.2092,-4.2092,-4.2092,-4.2092,-4.2092,-4.2092,-4.2092,-4.2092,-4.2092,-4.2092,-4.2092,-4.2092,-4.2092,-4.2092,-4.2092,-4.2092,-4.2092,-4.2092,-4.2092,-4.2092,-4.2092,-4.2092,-4.2092,-4.2092,-4.2092,-4.2092,-4.2092,-4.2092,-4.2092,-4.2092,-4.2092,-4.2092,-4.2092,-4.2092,-4.2092,-4.2092,-4.2092,-4.2092,-4.2092,-4.2092,-4.2092,-4.2092,-4.2092,-4.2092,-4.2092,-4.2092,-4.2092,-4.2092,-4.2092,-4.2092,-4.2092,-4.2092,-4.2092,-4.2092,-4.2092,-4.1856,-4.1296,-4.0432,-3.9724,-3.921,-3.7348,-3.6405,-3.6405,-3.6405,-3.6405,-3.6405,-3.6405,-3.6405,-3.0431,-2.9793,-2.9184,-2.9248,-2.969,-3.0228,-3.0707,0.0,-3.2751,0.0,0.0,0.0,0.0,0.0,0.0,0.0,0.0,0.0,0.0,0.0,0.0,0.0,0.0,0.0,0.0,0.0,0.0,0.0,0.0,0.0,-3.9857,-3.9871,-3.9944,-4.0104,-4.0583,-4.0844,-4.0844,-4.1337,-4.1671,-4.1845,-4.1845,-4.1932,-4.2092,-4.2092,-4.2092,-4.2092,-4.2092,-4.2092,-4.2092,-4.2092,-4.2092,-4.2092,-4.2092,-4.2092,-4.2092,-4.2092,-4.2092,-4.2092,-4.2092,-4.2092,-4.2092,-4.2092,-4.2092,-4.2092,-4.2092,-4.2092,-4.2092,-4.2092,-4.2092,-4.2092,-4.2092,-4.2092,-4.2092,-4.2092,-4.2092,-4.2092,-4.2092,-4.2092,-4.2092,-4.2092,-4.2092,-4.2092,-4.2092,-4.2092,-4.2092,-4.2092,-4.2092,-4.2092,-4.2092,-4.2092,-4.2092,-4.2092,-4.2092,-4.2092,-4.2092,-4.2092,-4.2092,-4.2092,-4.2092,-4.1758,-4.1015,-4.0731,-4.0289,-3.9549,-3.7965,-3.6989,-3.6769,-3.6769,-3.6628,-3.6405,-3.6405,-3.6405,-2.996,-3.0024,-3.0152,-2.9856,-3.0024,-3.0355,0.0,0.0,0.0,0.0,0.0,0.0,0.0,0.0,0.0,0.0,0.0,0.0,0.0,0.0,0.0,0.0,0.0,0.0,0.0,0.0,0.0,0.0,0.0,0.0,-3.9218,-3.9247,-3.9509,-4.0075,-4.0133,-4.0147,-4.0147,-4.0191,-4.0525,-4.1149,-4.1149,-4.1482,-4.2092,-4.2092,-4.2092,-4.2092,-4.2092,-4.2092,-4.2092,-4.2092,-4.2092,-4.2092,-4.2092,-4.2092,-4.2092,-4.2092,-4.2092,-4.2092,-4.2092,-4.2092,-4.2092,-4.2092,-4.2092,-4.2092,-4.2092,-4.2092,-4.2092,-4.2092,-4.2092,-4.2092,-4.2092,-4.2092,-4.2092,-4.2092,-4.2092,-4.2092,-4.2092,-4.2092,-4.2092,-4.2092,-4.2092,-4.2092,-4.2092,-4.2092,-4.2092,-4.2092,-4.2092,-4.2092,-4.2092,-4.2092,-4.2092,-4.2092,-4.2092,-4.2092,-4.2092,-4.2092,-4.2092,-4.2092,-4.2092,-4.2092,-4.2009,-4.1113,-4.0589,-4.0504,-3.9549,-3.8644,-3.7717,-3.7717,-3.7268,-3.6405,-3.6405,-3.6405,-3.1182,-3.1281,-3.1244,-3.1108,-3.1182,-3.1429,-3.1951,-3.2492,0.0,0.0,0.0,0.0,0.0,0.0,0.0,0.0,0.0,0.0,0.0,0.0,0.0,0.0,0.0,0.0,0.0,0.0,0.0,0.0,0.0,0.0,-3.8551,-3.8565,-3.8667,-3.887,-3.9291,-3.9712,-4.0104,-4.0104,-4.022,-4.0452,-4.0452,-4.0583,-4.0815,-4.0815,-4.1299,-4.2088,-4.1637,-4.17,-4.2092,-4.2092,-4.2092,-4.2092,-4.2092,-4.2092,-4.2092,-4.2092,-4.2092,-4.2092,-4.2092,-4.2092,-4.2092,-4.2092,-4.2092,-4.2092,-4.2092,-4.2092,-4.2092,-4.2092,-4.2092,-4.2092,-4.2092,-4.2092,-4.2092,-4.2092,-4.2092,-4.2092,-4.2092,-4.2092,-4.2092,-4.2092,-4.2092,-4.2092,-4.2092,-4.2092,-4.2092,-4.2092,-4.2092,-4.2092,-4.2092,-4.2092,-4.2092,-4.2092,-4.2092,-4.2092,-4.2092,-4.2092,-4.2092,-4.2092,-4.2092,-4.2092,-4.2092,-4.1758,-4.1577,-4.1577,-4.1226,-4.0287,-3.8675,-3.8069,-3.7625,-3.7268,-3.6675,-3.6405,-3.1636,-3.1965,-3.2218,-3.1978,-3.2074,-3.2398,-3.2897,0.0,0.0,0.0,0.0,0.0,0.0,0.0,0.0,0.0,0.0,0.0,0.0,0.0,0.0,0.0,0.0,0.0,0.0,0.0,0.0,0.0,0.0,0.0,-3.8202,-3.8202,-3.8202,-3.8202,-3.8638,-3.9059,-3.9465,-3.9465,-3.9581,-3.9799,-3.9799,-3.99,-4.0104,-4.0104,-4.06,-4.1401,-4.0953,-4.1265,-4.2092,-4.2092,-4.2092,-4.2092,-4.2092,-4.2092,-4.2092,-4.2092,-4.2092,-4.2092,-4.2092,-4.2092,-4.2092,-4.2092,-4.2092,-4.2092,-4.2092,-4.2092,-4.2092,-4.2092,-4.2092,-4.2092,-4.2092,-4.2092,-4.2092,-4.2092,-4.2092,-4.2092,-4.2092,-4.2092,-4.2092,-4.2092,-4.2092,-4.2092,-4.2092,-4.2092,-4.2092,-4.2092,-4.2092,-4.2092,-4.2092,-4.2092,-4.2092,-4.2092,-4.2092,-4.2092,-4.2092,-4.2092,-4.2092,-4.2092,-4.2092,-4.2092,-4.2092,-4.2092,-4.2092,-4.2092,-4.2092,-4.1451,-4.0158,-3.921,-3.8599,-3.8238,-3.7612,-3.7335,0.0,0.0,0.0,-3.234,0.0,0.0,-3.3213,0.0,0.0,0.0,0.0,0.0,0.0,0.0,0.0,0.0,0.0,0.0,0.0,0.0,0.0,0.0,0.0,0.0,0.0,0.0,0.0,0.0,0.0,-3.8188,-3.8202,-3.8202,-3.8202,-3.8202,-3.8202,-3.8202,-3.8202,-3.8202,-3.8522,-3.9175,-3.9175,-3.9479,-4.0046,-4.0046,-4.0046,-4.0075,-4.0075,-4.0815,-4.2034,-4.2034,-4.2049,-4.2063,-4.2063,-4.2078,-4.2092,-4.2092,-4.2092,-4.2092,-4.2092,-4.2092,-4.2092,-4.2092,-4.2092,-4.2092,-4.2092,-4.2092,-4.2092,-4.2092,-4.2092,-4.2092,-4.2092,-4.2092,-4.2092,-4.2092,-4.2092,-4.2092,-4.2092,-4.2092,-4.2092,-4.2092,-4.2092,-4.2092,-4.2092,-4.2092,-4.2092,-4.2092,-4.2092,-4.2092,-4.2092,-4.2092,-4.2092,-4.2092,-4.2092,-4.2092,-4.2092,-4.2092,-4.2092,-4.2092,-4.2092,-4.2092,-4.2092,-4.2092,-4.2092,-4.2092,-4.2092,-4.2092,-4.2092,-4.1099,-4.0116,-3.9241,-3.921,-3.921,-3.1819,0.0,0.0,0.0,0.0,0.0,0.0,0.0,0.0,0.0,0.0,0.0,0.0,0.0,0.0,0.0,0.0,0.0,0.0,0.0,0.0,0.0,0.0,0.0,0.0,0.0,0.0,0.0,-3.7549,-3.7738,-3.8188,-3.8202,-3.8202,-3.8202,-3.8202,-3.8202,-3.8202,-3.8202,-3.8289,-3.8478,-3.8478,-3.8565,-3.8725,-3.8725,-3.8986,-3.945,-3.945,-3.99,-4.0655,-4.0655,-4.0945,-4.1381,-4.1381,-4.1671,-4.2092,-4.2092,-4.2092,-4.2092,-4.2092,-4.2092,-4.2092,-4.2092,-4.2092,-4.2092,-4.2092,-4.2092,-4.2092,-4.2092,-4.2092,-4.2092,-4.2092,-4.2092,-4.2092,-4.2092,-4.2092,-4.2092,-4.2092,-4.2092,-4.2092,-4.2092,-4.2092,-4.2092,-4.2092,-4.2092,-4.2092,-4.2092,-4.2092,-4.2092,-4.2092,-4.2092,-4.2092,-4.2092,-4.2092,-4.2092,-4.2092,-4.2092,-4.2092,-4.2092,-4.2092,-4.2092,-4.2092,-4.2092,-4.2092,-4.2092,-4.2092,-4.2092,-4.2092,-4.1099,-4.0461,-4.0202,-3.9505,-3.921,-3.211,-3.3241,-3.4414,-3.4414,0.0,0.0,-3.4298,-3.4045,0.0,0.0,0.0,0.0,0.0,0.0,0.0,0.0,0.0,0.0,0.0,0.0,0.0,0.0,0.0,0.0,0.0,0.0,0.0,0.0,-3.6881,-3.7172,-3.7796,-3.8072,-3.8202,-3.8202,-3.8202,-3.8202,-3.8202,-3.8202,-3.8202,-3.8202,-3.8202,-3.8202,-3.8202,-3.8202,-3.8405,-3.8783,-3.8783,-3.8986,-3.9305,-3.9305,-3.9842,-4.067,-4.067,-4.0916,-4.1294,-4.157,-4.1671,-4.1715,-4.199,-4.2092,-4.2092,-4.2092,-4.2092,-4.2092,-4.2092,-4.2092,-4.2092,-4.2092,-4.2092,-4.2092,-4.2092,-4.2092,-4.2092,-4.2092,-4.2092,-4.2092,-4.2092,-4.2092,-4.2092,-4.2092,-4.2092,-4.2092,-4.2092,-4.2092,-4.2092,-4.2092,-4.2092,-4.2092,-4.2092,-4.2092,-4.2092,-4.2092,-4.2092,-4.2092,-4.2092,-4.2092,-4.2092,-4.2092,-4.2092,-4.2092,-4.2092,-4.2092,-4.2092,-4.2092,-4.2092,-4.2092,-4.2092,-4.1535,-4.1212,-4.1198,-4.0674,-4.0417,-3.211,-3.3241,-3.4414,-3.4414,0.0,0.0,-3.4414,-3.4414,0.0,0.0,0.0,0.0,0.0,0.0,0.0,0.0,0.0,0.0,0.0,0.0,0.0,0.0,0.0,0.0,0.0,0.0,-3.6127,-3.6199,-3.6272,-3.6562,-3.7172,-3.7709,-3.8028,-3.8101,-3.8101,-3.813,-3.8202,-3.8202,-3.8202,-3.8202,-3.8202,-3.8202,-3.8202,-3.8202,-3.8202,-3.8202,-3.8202,-3.8202,-3.8202,-3.8202,-3.8913,-4.0002,-4.0002,-4.0046,-4.0162,-4.0771,-4.0989,-4.1076,-4.1758,-4.199,-4.199,-4.2078,-4.2092,-4.2092,-4.2092,-4.2092,-4.2092,-4.2092,-4.2092,-4.2092,-4.2092,-4.2092,-4.2092,-4.2092,-4.2092,-4.2092,-4.2092,-4.2092,-4.2092,-4.2092,-4.2092,-4.2092,-4.2092,-4.2092,-4.2092,-4.2092,-4.2092,-4.2092,-4.2092,-4.2092,-4.2092,-4.2092,-4.2092,-4.2092,-4.2092,-4.2092,-4.2092,-4.2092,-4.2092,-4.2092,-4.2092,-4.2092,-4.2092,-4.2092,-4.2092,-4.2092,-4.2092,-4.2092,-4.2092,-4.2092,-4.2092,-4.2092,-3.211,-3.3241,-3.4414,0.0,0.0,0.0,-3.4414,-3.4414,-3.4414,0.0,0.0,0.0,0.0,0.0,0.0,0.0,0.0,0.0,0.0,0.0,0.0,0.0,0.0,0.0,0.0,0.0,-3.4994,-3.5552,-3.6025,-3.6359,-3.6504,-3.662,-3.6925,-3.7462,-3.7491,-3.7709,-3.8202,-3.8202,-3.8202,-3.8202,-3.8202,-3.8202,-3.8202,-3.8202,-3.8202,-3.8202,-3.8202,-3.8202,-3.8202,-3.8202,-3.8667,-3.9378,-3.9378,-3.9668,-4.0118,-4.0249,-4.0292,-4.0379,-4.1062,-4.1294,-4.1381,-4.1918,-4.2092,-4.2092,-4.2092,-4.2092,-4.2092,-4.2092,-4.2092,-4.2092,-4.2092,-4.2092,-4.2092,-4.2092,-4.2092,-4.2092,-4.2092,-4.2092,-4.2092,-4.2092,-4.2092,-4.2092,-4.2092,-4.2092,-4.2092,-4.2092,-4.2092,-4.2092,-4.2092,-4.2092,-4.2092,-4.2092,-4.2092,-4.2092,-4.2092,-4.2092,-4.2092,-4.2092,-4.2092,-4.2092,-4.2092,-4.2092,-4.2092,-4.2092,-4.2092,-4.2092,-4.2092,-4.2092,-4.2092,-4.2092,-4.2092,-4.2092,0.0,0.0,0.0,-3.4414,0.0,0.0,0.0,-3.4414,-3.4414,0.0,0.0,0.0,0.0,0.0,0.0,0.0,0.0,0.0,0.0,0.0,0.0,0.0,0.0,0.0,0.0,0.0,-3.4545,-3.4864,-3.5473,-3.5836,-3.5836,-3.6141,-3.646,-3.6794,-3.7128,-3.7462,-3.7752,-3.8057,-3.8202,-3.8202,-3.8202,-3.8202,-3.8202,-3.8202,-3.8202,-3.8202,-3.8202,-3.8202,-3.8202,-3.8202,-3.8405,-3.8696,-3.8696,-3.8884,-3.9189,-3.9523,-3.9654,-3.9741,-4.0379,-4.0597,-4.0713,-4.1381,-4.1599,-4.1657,-4.199,-4.2092,-4.2092,-4.2092,-4.2092,-4.2092,-4.2092,-4.2092,-4.2092,-4.2092,-4.2092,-4.2092,-4.2092,-4.2092,-4.2092,-4.2092,-4.2092,-4.2092,-4.2092,-4.2092,-4.2092,-4.2092,-4.2092,-4.2092,-4.2092,-4.2092,-4.2092,-4.2092,-4.2092,-4.2092,-4.2092,-4.2092,-4.2092,-4.2092,-4.2092,-4.2092,-4.2092,-4.2092,-4.2092,-4.2092,-4.2092,-4.2092,-4.2092,-4.2092,-4.2092,-4.2092,-4.2092,-4.2092,0.0,0.0,0.0,0.0,0.0,-3.4414,0.0,0.0,0.0,0.0,0.0,0.0,0.0,0.0,0.0,0.0,0.0,0.0,0.0,0.0,0.0,0.0,0.0,0.0,0.0,0.0,-3.4414,-3.4414,-3.4893,-3.5218,-3.5218,-3.5662,-3.5996,-3.6112,-3.6649,-3.6997,-3.7114,-3.7723,-3.8028,-3.8028,-3.8144,-3.8202,-3.8202,-3.8202,-3.8202,-3.8202,-3.8202,-3.8202,-3.8202,-3.8202,-3.8202,-3.8202,-3.8202,-3.8202,-3.8275,-3.8812,-3.9015,-3.9102,-3.9712,-3.9929,-4.0031,-4.0684,-4.0989,-4.1221,-4.1903,-4.2092,-4.2092,-4.2092,-4.2092,-4.2092,-4.2092,-4.2092,-4.2092,-4.2092,-4.2092,-4.2092,-4.2092,-4.2092,-4.2092,-4.2092,-4.2092,-4.2092,-4.2092,-4.2092,-4.2092,-4.2092,-4.2092,-4.2092,-4.2092,-4.2092,-4.2092,-4.2092,-4.2092,-4.2092,-4.2092,-4.2092,-4.2092,-4.2092,-4.2092,-4.2092,-4.2092,-4.2092,-4.2092,-4.2092,-4.2092,-4.2092,-4.2092,-4.2092,-4.2092,-4.2092,-4.2092,-4.2092,0.0,0.0,0.0,0.0,-3.4414,0.0,0.0,0.0,0.0,0.0,0.0,-3.4414,-3.4414,0.0,0.0,0.0,0.0,0.0,0.0,0.0,0.0,0.0,0.0,0.0,0.0,0.0,0.0,-3.4414,-3.4486,-3.4516,-3.4516,-3.4588,-3.4893,-3.5494,-3.5581,-3.5886,-3.6417,-3.707,-3.7404,-3.7418,-3.7941,-3.8202,-3.8202,-3.8202,-3.8202,-3.8202,-3.8202,-3.8202,-3.8202,-3.8202,-3.8202,-3.8202,-3.8202,-3.8202,-3.8217,-3.8289,-3.8318,-3.8405,-3.9073,-3.9305,-3.9407,-4.0017,-4.0612,-4.1221,-4.1903,-4.2092,-4.2092,-4.2092,-4.2092,-4.2092,-4.2092,-4.2092,-4.2092,-4.2092,-4.2092,-4.2092,-4.2092,-4.2092,-4.2092,-4.2092,-4.2092,-4.2092,-4.2092,-4.2092,-4.2092,-4.2092,-4.2092,-4.2092,-4.2092,-4.2092,-4.2092,-4.2092,-4.2092,-4.2092,-4.2092,-4.2092,-4.2092,-4.2092,-4.2092,-4.2092,-4.2092,-4.2092,-4.2092,-4.2092,-4.2092,-4.2092,-4.2092,-4.2092,-4.2092,-4.2092,-4.2092,-4.2092,0.0,0.0,0.0,0.0,0.0,0.0,-3.4414,0.0,-3.4414,0.0,0.0,0.0,0.0,0.0,0.0,0.0,0.0,0.0,0.0,0.0,0.0,0.0,0.0,0.0,0.0,0.0,0.0,0.0,0.0,-3.4414,-3.4414,-3.4414,-3.453,-3.4806,-3.5203,-3.5523,-3.5799,-3.6402,-3.6925,-3.7302,-3.7564,-3.7868,-3.8202,-3.8202,-3.8202,-3.8202,-3.8202,-3.8202,-3.8202,-3.8202,-3.8202,-3.8202,-3.8202,-3.8202,-3.8202,-3.8202,-3.8202,-3.8246,-3.8522,-3.8623,-3.8658,-3.8924,-3.9671,-4.0641,-4.1308,-4.1512,-4.1599,-4.199,-4.2092,-4.2092,-4.2092,-4.2092,-4.2092,-4.2092,-4.2092,-4.2092,-4.2092,-4.2092,-4.2092,-4.2092,-4.2092,-4.2092,-4.2092,-4.2092,-4.2092,-4.2092,-4.2092,-4.2092,-4.2092,-4.2092,-4.2092,-4.2092,-4.2092,-4.2092,-4.2092,-4.2092,-4.2092,-4.2092,-4.2092,-4.2092,-4.2092,-4.2092,-4.2092,-4.2092,-4.2092,-4.2092,-4.2092,-4.2092,-4.2092,-4.2092,-4.2092,-4.2092,-3.2398,0.0,0.0,0.0,0.0,0.0,0.0,0.0,0.0,0.0,0.0,0.0,0.0,0.0,-3.4356,-3.4182,0.0,0.0,0.0,0.0,0.0,0.0,0.0,0.0,0.0,0.0,0.0,0.0,0.0,0.0,-3.4414,-3.4414,-3.4414,-3.4414,-3.4864,-3.5145,-3.5145,-3.5735,-3.6286,-3.678,-3.7128,-3.7535,-3.797,-3.813,-3.8202,-3.8202,-3.8202,-3.8202,-3.8202,-3.8202,-3.8202,-3.8202,-3.8202,-3.8202,-3.8202,-3.8202,-3.8202,-3.8202,-3.8202,-3.8202,-3.8237,-3.8481,-3.9001,-3.971,-4.0445,-4.0862,-4.1192,-4.1686,-4.1961,-4.2092,-4.2092,-4.2092,-4.2092,-4.2092,-4.2092,-4.2092,-4.2092,-4.2092,-4.2092,-4.2092,-4.2092,-4.2092,-4.2092,-4.2092,-4.2092,-4.2092,-4.2092,-4.2092,-4.2092,-4.2092,-4.2092,-4.2092,-4.2092,-4.2092,-4.2092,-4.2092,-4.2092,-4.2092,-4.2092,-4.2092,-4.2092,-4.2092,-4.2092,-4.2092,-4.2092,-4.2092,-4.2092,-4.2092,-4.2092,-4.2092,-4.2092,-4.2092,0.0,0.0,0.0,-3.4414,0.0,0.0,0.0,0.0,-3.4414,0.0,0.0,0.0,0.0,-3.4414,-3.4211,-3.3634,-3.4008,0.0,0.0,0.0,0.0,0.0,0.0,0.0,0.0,0.0,0.0,0.0,0.0,0.0,-3.4414,-3.4414,-3.4414,-3.4414,-3.4428,-3.4443,-3.4443,-3.5101,-3.5436,-3.5479,-3.6707,-3.7317,-3.736,-3.7941,-3.8202,-3.8202,-3.8202,-3.8202,-3.8202,-3.8202,-3.8202,-3.8202,-3.8202,-3.8202,-3.8202,-3.8202,-3.8202,-3.8202,-3.8202,-3.8202,-3.8333,-3.9164,-3.8943,-3.8418,-3.9269,-4.0289,-4.1091,-4.112,-4.1599,-4.2092,-4.2092,-4.2092,-4.2092,-4.2092,-4.2092,-4.2092,-4.2092,-4.2092,-4.2092,-4.2092,-4.2092,-4.2092,-4.2092,-4.2092,-4.2092,-4.2092,-4.2092,-4.2092,-4.2092,-4.2092,-4.2092,-4.2092,-4.2092,-4.2092,-4.2092,-4.2092,-4.2092,-4.2092,-4.2092,-4.2092,-4.2092,-4.2092,-4.2092,-4.2092,-4.2092,-4.2092,-4.2092,-4.2092,-4.2092,-4.2092,-4.2092,-4.2092,0.0,0.0,-3.4414,-3.4414,0.0,0.0,0.0,0.0,0.0,0.0,0.0,0.0,0.0,-3.4414,-3.4341,-3.4124,-3.4283,-3.4341,0.0,0.0,0.0,0.0,0.0,0.0,0.0,0.0,0.0,0.0,0.0,0.0,0.0,-3.4414,-3.4414,-3.4414,-3.4414,-3.4414,-3.4414,-3.4617,-3.4951,-3.5407,-3.5842,-3.6475,-3.7317,-3.752,-3.7825,-3.8202,-3.8202,-3.8202,-3.8202,-3.8202,-3.8202,-3.8202,-3.8202,-3.8202,-3.8202,-3.8202,-3.8202,-3.8202,-3.8202,-3.8202,-3.8246,-3.8545,-3.844,-3.8245,-3.8539,-3.9213,-3.9929,-4.0321,-4.0916,-4.1439,-4.1439,-4.1758,-4.2092,-4.2092,-4.2092,-4.2092,-4.2092,-4.2092,-4.2092,-4.2092,-4.2092,-4.2092,-4.2092,-4.2092,-4.2092,-4.2092,-4.2092,-4.2092,-4.2092,-4.2092,-4.2092,-4.2092,-4.2092,-4.2092,-4.2092,-4.2092,-4.2092,-4.2092,-4.2092,-4.2092,-4.2092,-4.2092,-4.2092,-4.2092,-4.2092,-4.2092,-4.2092,-4.2092,-4.2092,-4.2092,-4.2092,-4.2092,-3.3638,-3.4011,0.0,-3.4414,-3.4414,0.0,-3.4414,0.0,0.0,0.0,0.0,0.0,0.0,-3.4414,-3.4414,-3.4414,-3.4414,-3.4414,0.0,-3.4414,0.0,0.0,0.0,0.0,0.0,0.0,0.0,0.0,-3.4414,0.0,0.0,0.0,-3.4414,-3.4414,-3.4414,-3.4414,-3.4414,-3.4414,-3.4617,-3.5058,-3.529,-3.5842,-3.6635,-3.7099,-3.752,-3.7897,-3.8115,-3.8202,-3.8202,-3.8202,-3.8202,-3.8202,-3.8202,-3.8202,-3.8202,-3.8202,-3.8202,-3.8202,-3.8202,-3.8202,-3.8202,-3.8202,-3.8202,-3.8194,-3.8207,-3.8673,-3.9334,-3.9929,-4.0408,-4.08,-4.1033,-4.1236,-4.1381,-4.1381,-4.1381,-4.1453,-4.1686,-4.1744,-4.1802,-4.2049,-4.2092,-4.2092,-4.2092,-4.2092,-4.2092,-4.2092,-4.2092,-4.2092,-4.2092,-4.2092,-4.2092,-4.2092,-4.2092,-4.2092,-4.2092,-4.2092,-4.2092,-4.2092,-4.2092,-4.2092,-4.2092,-4.2092,-4.199,-4.1744,-4.1976,-4.1976,-4.1744,-4.1976,-4.2092,-4.2092,-4.2092,-4.2092]},{"header":{"parameterUnit":"m.s-1","parameterCategory":1,"la1":30.6,"la2":29.2853,"lo1":-89.7004,"lo2":-87.6739,"dy":0.0162,"dx":0.0183,"nx":112,"ny":82,"refTime":"2023-06-03T06:00:00:Z","depth":0,"parameterNumber":3,"parameterNumberName":"V-component_of_WINDS"},"data":[0.0,0.0,0.0,0.0,0.0,0.0,0.0,0.0,0.0,0.0,0.0,0.0,0.0,0.0,0.0,0.0,0.0,0.0,0.0,0.0,0.0,0.0,0.0,0.0,0.0,0.0,0.0,0.0,0.0,0.0,0.0,0.0,0.0,0.0,0.0,0.0,0.0,0.0,0.0,0.0,0.0,0.0,0.0,0.0,0.0,0.0,0.0,0.0,0.0,0.0,0.0,0.0,0.0,0.0,0.0,0.0,0.0,0.0,0.0,0.0,0.0,0.0,0.0,0.0,0.0,0.0,0.0,0.0,0.0,0.0,0.0,0.0,0.0,0.0,0.0,0.0,0.0,0.0,0.0,0.0,0.0,0.0,0.0,0.0,0.0,0.0,0.0,0.0,0.0,0.0,-2.8325,-2.8928,-2.945,-2.9987,-3.0554,-3.0598,-3.0598,-3.0598,0.0,0.0,0.0,0.0,0.0,0.0,0.0,0.0,0.0,0.0,0.0,0.0,0.0,0.0,0.0,0.0,0.0,0.0,0.0,0.0,0.0,0.0,0.0,0.0,0.0,0.0,0.0,0.0,0.0,0.0,0.0,0.0,0.0,0.0,0.0,0.0,0.0,0.0,0.0,0.0,0.0,0.0,0.0,0.0,0.0,0.0,0.0,0.0,0.0,0.0,0.0,0.0,0.0,0.0,0.0,0.0,0.0,0.0,0.0,0.0,0.0,0.0,0.0,0.0,0.0,0.0,0.0,0.0,0.0,0.0,0.0,0.0,0.0,0.0,0.0,0.0,0.0,0.0,0.0,0.0,0.0,0.0,0.0,0.0,0.0,0.0,0.0,0.0,0.0,0.0,0.0,0.0,0.0,0.0,0.0,0.0,0.0,0.0,0.0,0.0,0.0,0.0,0.0,0.0,-2.9565,-3.0219,-3.0394,-3.0496,-3.0598,-3.0598,-3.0598,-3.0598,0.0,0.0,0.0,0.0,0.0,0.0,0.0,0.0,0.0,0.0,0.0,0.0,0.0,0.0,0.0,0.0,0.0,0.0,0.0,0.0,0.0,0.0,0.0,0.0,0.0,0.0,0.0,0.0,0.0,0.0,0.0,0.0,0.0,0.0,0.0,0.0,0.0,0.0,0.0,0.0,0.0,0.0,0.0,0.0,0.0,0.0,0.0,0.0,0.0,0.0,0.0,0.0,0.0,0.0,0.0,0.0,0.0,0.0,0.0,0.0,0.0,0.0,0.0,0.0,0.0,0.0,0.0,0.0,0.0,0.0,0.0,0.0,0.0,0.0,0.0,0.0,0.0,0.0,0.0,0.0,0.0,0.0,0.0,0.0,0.0,0.0,0.0,0.0,0.0,0.0,0.0,0.0,0.0,0.0,0.0,0.0,0.0,0.0,0.0,0.0,0.0,0.0,0.0,-3.0132,-3.0248,-3.0569,-3.0598,-3.0598,-3.0598,-3.0598,-3.0598,-3.0598,-3.0598,0.0,0.0,0.0,0.0,0.0,0.0,0.0,0.0,0.0,0.0,0.0,0.0,0.0,0.0,0.0,0.0,0.0,0.0,0.0,0.0,0.0,0.0,0.0,0.0,0.0,0.0,0.0,0.0,0.0,0.0,0.0,0.0,0.0,0.0,0.0,0.0,0.0,0.0,0.0,0.0,0.0,0.0,0.0,0.0,0.0,0.0,0.0,0.0,0.0,0.0,0.0,0.0,0.0,0.0,0.0,0.0,0.0,0.0,0.0,0.0,0.0,0.0,0.0,0.0,0.0,0.0,0.0,0.0,0.0,0.0,0.0,0.0,0.0,0.0,0.0,0.0,0.0,0.0,0.0,0.0,0.0,0.0,0.0,0.0,0.0,0.0,0.0,0.0,0.0,0.0,0.0,0.0,0.0,0.0,0.0,0.0,0.0,0.0,0.0,0.0,0.0,0.0,-3.0598,-3.0598,-3.0598,-3.0598,-3.0598,-3.0598,-3.0598,-3.0598,-3.0598,-3.0598,0.0,0.0,0.0,0.0,0.0,0.0,0.0,0.0,0.0,0.0,0.0,0.0,0.0,0.0,0.0,0.0,0.0,0.0,0.0,0.0,0.0,0.0,0.0,0.0,0.0,0.0,0.0,0.0,0.0,0.0,0.0,0.0,0.0,0.0,0.0,0.0,0.0,0.0,0.0,0.0,0.0,0.0,0.0,0.0,0.0,0.0,0.0,0.0,0.0,0.0,0.0,0.0,0.0,0.0,0.0,0.0,0.0,0.0,0.0,0.0,0.0,0.0,0.0,0.0,0.0,0.0,0.0,0.0,0.0,0.0,0.0,0.0,0.0,0.0,0.0,0.0,0.0,0.0,0.0,0.0,0.0,0.0,0.0,0.0,0.0,0.0,0.0,0.0,0.0,0.0,0.0,0.0,0.0,0.0,0.0,0.0,0.0,0.0,0.0,0.0,0.0,0.0,-3.0598,-3.0598,-3.0598,-3.0598,-3.0598,-3.0598,-3.0598,-3.0598,-3.0598,-3.0598,0.0,0.0,0.0,0.0,0.0,0.0,0.0,0.0,0.0,0.0,0.0,0.0,0.0,0.0,0.0,0.0,0.0,0.0,0.0,0.0,0.0,0.0,0.0,0.0,0.0,0.0,0.0,0.0,0.0,0.0,0.0,0.0,0.0,0.0,0.0,0.0,0.0,0.0,0.0,0.0,0.0,0.0,0.0,0.0,0.0,0.0,0.0,0.0,0.0,0.0,0.0,0.0,0.0,0.0,0.0,0.0,0.0,0.0,0.0,0.0,0.0,0.0,0.0,0.0,0.0,0.0,0.0,0.0,0.0,0.0,0.0,0.0,0.0,0.0,0.0,0.0,0.0,0.0,0.0,0.0,0.0,0.0,0.0,0.0,0.0,0.0,0.0,0.0,0.0,0.0,0.0,0.0,0.0,0.0,0.0,0.0,0.0,0.0,0.0,0.0,0.0,0.0,-3.0925,-3.0866,0.0,-3.0732,-3.0732,-3.0732,-3.0642,-3.0802,-3.1331,0.0,0.0,0.0,0.0,0.0,0.0,0.0,0.0,0.0,0.0,0.0,0.0,0.0,0.0,0.0,0.0,0.0,0.0,0.0,0.0,0.0,0.0,0.0,0.0,0.0,0.0,0.0,0.0,0.0,0.0,0.0,0.0,0.0,0.0,0.0,0.0,0.0,0.0,0.0,0.0,0.0,0.0,0.0,0.0,0.0,0.0,0.0,0.0,0.0,0.0,0.0,0.0,0.0,0.0,0.0,0.0,0.0,0.0,0.0,0.0,0.0,0.0,0.0,0.0,0.0,0.0,0.0,0.0,0.0,0.0,0.0,0.0,0.0,0.0,0.0,0.0,0.0,0.0,0.0,0.0,0.0,0.0,0.0,0.0,0.0,0.0,0.0,0.0,0.0,0.0,0.0,0.0,0.0,0.0,0.0,0.0,0.0,0.0,0.0,0.0,0.0,0.0,-3.1117,-3.1279,-3.1338,0.0,-3.1364,-3.1512,-3.1512,-3.1421,-3.1581,-3.2079,0.0,0.0,0.0,0.0,0.0,0.0,0.0,0.0,0.0,0.0,0.0,0.0,0.0,0.0,0.0,0.0,0.0,0.0,0.0,0.0,0.0,0.0,0.0,0.0,0.0,0.0,0.0,0.0,0.0,0.0,0.0,0.0,0.0,0.0,0.0,0.0,0.0,0.0,0.0,0.0,0.0,0.0,0.0,0.0,0.0,0.0,0.0,0.0,0.0,0.0,0.0,0.0,0.0,0.0,0.0,0.0,0.0,0.0,0.0,0.0,0.0,0.0,0.0,0.0,0.0,0.0,0.0,0.0,0.0,0.0,0.0,0.0,0.0,0.0,0.0,0.0,0.0,0.0,0.0,0.0,0.0,0.0,0.0,0.0,0.0,0.0,0.0,0.0,0.0,0.0,0.0,0.0,0.0,0.0,0.0,0.0,0.0,0.0,0.0,0.0,0.0,0.0,-3.1132,-3.1663,-3.2032,-3.2001,-3.2607,-3.2991,-3.2991,-3.2991,-3.2958,0.0,0.0,0.0,0.0,0.0,0.0,0.0,0.0,0.0,0.0,0.0,0.0,0.0,0.0,0.0,0.0,0.0,0.0,0.0,0.0,0.0,0.0,0.0,0.0,0.0,0.0,0.0,0.0,0.0,0.0,0.0,0.0,0.0,0.0,0.0,0.0,0.0,0.0,0.0,0.0,0.0,0.0,0.0,0.0,0.0,0.0,0.0,0.0,0.0,0.0,0.0,0.0,0.0,0.0,0.0,0.0,0.0,0.0,0.0,0.0,0.0,0.0,0.0,0.0,0.0,0.0,0.0,0.0,0.0,0.0,0.0,0.0,0.0,0.0,0.0,0.0,0.0,0.0,0.0,0.0,0.0,0.0,0.0,0.0,0.0,0.0,0.0,0.0,0.0,0.0,0.0,0.0,0.0,0.0,0.0,0.0,0.0,0.0,0.0,0.0,0.0,0.0,0.0,-3.2735,-3.2959,-3.3017,-3.294,-3.3072,-3.3191,-3.3191,-3.3068,-3.3229,-3.3733,0.0,0.0,0.0,0.0,0.0,0.0,0.0,0.0,0.0,0.0,0.0,0.0,0.0,0.0,0.0,0.0,0.0,0.0,0.0,0.0,0.0,0.0,0.0,0.0,0.0,0.0,0.0,0.0,0.0,0.0,0.0,0.0,0.0,0.0,0.0,0.0,0.0,0.0,0.0,0.0,0.0,0.0,0.0,0.0,0.0,0.0,0.0,0.0,0.0,0.0,0.0,0.0,0.0,0.0,0.0,0.0,0.0,0.0,0.0,0.0,0.0,0.0,0.0,0.0,0.0,0.0,0.0,0.0,0.0,0.0,0.0,0.0,0.0,0.0,0.0,0.0,0.0,0.0,0.0,0.0,0.0,0.0,0.0,0.0,0.0,0.0,0.0,0.0,0.0,0.0,0.0,0.0,0.0,0.0,0.0,0.0,0.0,0.0,0.0,0.0,0.0,0.0,-3.344,-3.3724,-3.3857,-3.3779,-3.4017,-3.4196,-3.4196,-3.4072,-3.4157,-3.4575,0.0,0.0,0.0,0.0,0.0,0.0,0.0,0.0,0.0,0.0,0.0,0.0,0.0,0.0,0.0,0.0,0.0,0.0,0.0,0.0,0.0,0.0,0.0,0.0,0.0,0.0,0.0,0.0,0.0,0.0,0.0,0.0,0.0,0.0,0.0,0.0,0.0,0.0,0.0,0.0,0.0,0.0,0.0,0.0,0.0,0.0,0.0,0.0,0.0,0.0,0.0,0.0,0.0,0.0,0.0,0.0,0.0,0.0,0.0,0.0,0.0,0.0,0.0,0.0,0.0,0.0,0.0,0.0,0.0,0.0,0.0,0.0,0.0,0.0,0.0,0.0,0.0,0.0,0.0,0.0,0.0,0.0,0.0,0.0,0.0,0.0,0.0,0.0,0.0,0.0,0.0,0.0,0.0,0.0,0.0,0.0,0.0,0.0,0.0,0.0,0.0,0.0,-3.3695,-3.4234,-3.4608,-3.4593,-3.513,-3.5504,-3.5504,-3.5504,-3.5439,-3.5261,0.0,0.0,0.0,0.0,0.0,0.0,0.0,0.0,0.0,0.0,0.0,0.0,0.0,0.0,0.0,0.0,0.0,0.0,0.0,0.0,0.0,0.0,0.0,0.0,0.0,0.0,0.0,0.0,0.0,0.0,0.0,0.0,0.0,0.0,0.0,0.0,0.0,0.0,0.0,0.0,0.0,0.0,0.0,0.0,0.0,0.0,0.0,0.0,0.0,0.0,0.0,0.0,0.0,0.0,0.0,0.0,0.0,0.0,0.0,0.0,-3.0861,0.0,0.0,0.0,0.0,0.0,0.0,0.0,0.0,0.0,0.0,0.0,0.0,0.0,0.0,0.0,0.0,0.0,0.0,0.0,0.0,0.0,0.0,0.0,0.0,0.0,0.0,0.0,0.0,0.0,0.0,0.0,0.0,0.0,0.0,0.0,0.0,0.0,0.0,0.0,0.0,0.0,-3.5174,-3.5369,-3.5396,-3.528,-3.5415,-3.5504,-3.5504,-3.5504,-3.5472,-3.5439,-3.5439,0.0,0.0,0.0,0.0,0.0,0.0,0.0,0.0,0.0,0.0,0.0,0.0,0.0,0.0,0.0,0.0,0.0,0.0,0.0,0.0,0.0,0.0,0.0,0.0,0.0,0.0,0.0,0.0,0.0,0.0,0.0,0.0,0.0,0.0,0.0,0.0,0.0,0.0,0.0,0.0,0.0,0.0,0.0,0.0,0.0,0.0,0.0,0.0,0.0,0.0,0.0,0.0,0.0,0.0,0.0,0.0,0.0,0.0,0.0,0.0,-3.1579,0.0,0.0,0.0,0.0,0.0,0.0,0.0,0.0,0.0,0.0,0.0,0.0,0.0,0.0,0.0,0.0,0.0,0.0,0.0,0.0,0.0,0.0,0.0,0.0,0.0,0.0,0.0,0.0,0.0,0.0,0.0,0.0,0.0,0.0,0.0,0.0,0.0,0.0,0.0,0.0,-3.5817,-3.5831,-3.5814,-3.5733,-3.5733,-3.5701,-3.5589,-3.5604,-3.5572,-3.5504,-3.5504,0.0,0.0,0.0,0.0,0.0,0.0,0.0,0.0,0.0,0.0,0.0,0.0,0.0,0.0,0.0,0.0,0.0,0.0,0.0,0.0,0.0,0.0,0.0,0.0,0.0,0.0,0.0,0.0,0.0,0.0,0.0,0.0,0.0,0.0,0.0,0.0,0.0,0.0,0.0,0.0,0.0,0.0,0.0,0.0,0.0,0.0,0.0,0.0,0.0,0.0,0.0,0.0,0.0,0.0,-3.4382,-3.5542,-3.5033,-3.5375,-3.6211,-3.4367,-3.3508,-3.3336,0.0,0.0,0.0,0.0,0.0,0.0,0.0,0.0,0.0,0.0,0.0,0.0,0.0,0.0,0.0,0.0,0.0,0.0,0.0,0.0,0.0,0.0,0.0,0.0,0.0,-3.4597,-3.4491,0.0,0.0,0.0,0.0,0.0,0.0,0.0,0.0,0.0,0.0,0.0,0.0,-3.6037,-3.6037,-3.6037,-3.6005,-3.6005,-3.5941,-3.5752,-3.5752,-3.5718,-3.5587,-3.5602,-3.5602,0.0,0.0,0.0,0.0,0.0,0.0,0.0,0.0,0.0,0.0,0.0,0.0,0.0,0.0,0.0,0.0,0.0,0.0,0.0,0.0,0.0,0.0,0.0,0.0,0.0,0.0,0.0,0.0,0.0,0.0,0.0,0.0,-2.6498,-2.6971,0.0,0.0,0.0,0.0,0.0,0.0,0.0,0.0,0.0,0.0,0.0,0.0,0.0,0.0,-3.3423,-3.3725,-3.4186,-3.4816,-3.5556,-3.6002,-3.6179,-3.6099,-3.6152,-3.6233,-3.5391,0.0,-3.5063,-3.4704,0.0,0.0,0.0,0.0,0.0,0.0,0.0,0.0,0.0,0.0,0.0,0.0,0.0,0.0,0.0,0.0,0.0,0.0,0.0,0.0,0.0,0.0,-3.4505,-3.4505,-3.4951,-3.5322,0.0,-3.4829,-3.4475,-3.4446,0.0,0.0,0.0,0.0,0.0,0.0,0.0,0.0,-3.6211,-3.6179,-3.6116,-3.6005,-3.6005,-3.6005,-3.5973,-3.5973,-3.5941,-3.5957,-3.5941,-3.5941,-3.5941,-3.5941,0.0,0.0,0.0,0.0,0.0,0.0,0.0,0.0,0.0,0.0,0.0,0.0,0.0,0.0,0.0,0.0,0.0,0.0,0.0,0.0,0.0,0.0,0.0,0.0,0.0,0.0,0.0,0.0,0.0,-2.738,-2.8048,-2.8198,-2.8423,-2.859,0.0,0.0,0.0,0.0,0.0,0.0,0.0,0.0,0.0,-3.4078,-3.4059,-3.4452,-3.5331,-3.5374,-3.5712,-3.6384,-3.6724,-3.7096,-3.7485,-3.7485,-3.7256,-3.692,-3.7006,-3.6851,-3.6432,-3.5219,-3.4087,-3.3149,0.0,0.0,0.0,0.0,0.0,-3.3087,-3.3713,0.0,0.0,0.0,0.0,0.0,0.0,0.0,0.0,0.0,0.0,0.0,0.0,0.0,0.0,-3.5599,-3.583,-3.6045,-3.6045,-3.5814,-3.5599,0.0,-3.5845,-3.6045,-3.6045,0.0,0.0,0.0,0.0,0.0,-3.6383,-3.6383,-3.6352,-3.6289,-3.6289,-3.6226,-3.6116,-3.6116,-3.6085,-3.6005,-3.6005,-3.6005,-3.6005,-3.6005,-3.6005,0.0,0.0,0.0,0.0,0.0,0.0,0.0,0.0,0.0,0.0,0.0,0.0,0.0,0.0,0.0,0.0,0.0,0.0,0.0,0.0,0.0,0.0,0.0,0.0,0.0,0.0,0.0,0.0,-2.8873,-2.9516,-2.9604,-3.018,-3.0625,0.0,0.0,0.0,0.0,0.0,0.0,-3.3906,-3.4723,-3.5341,-3.572,-3.627,-3.6659,-3.6837,-3.6837,-3.7096,-3.757,-3.7776,-3.8149,-3.8683,-3.8654,-3.8375,-3.7942,-3.8184,-3.8032,-3.7515,-3.5862,-3.4682,-3.3934,-3.3795,-3.3385,-3.2916,-3.3336,-3.3637,-3.3888,-3.4651,-3.4994,-3.5039,-3.4787,0.0,-3.4455,-3.3856,0.0,0.0,0.0,0.0,-3.5429,-3.6291,0.0,-3.6492,-3.6492,-3.6492,-3.6492,-3.6492,-3.6492,-3.6492,0.0,-3.6492,-3.6492,-3.6492,0.0,0.0,0.0,0.0,-3.6492,-3.6492,-3.6492,-3.6492,-3.6492,-3.6492,-3.6445,-3.6274,-3.6274,-3.6211,-3.6132,-3.6132,-3.6132,-3.6132,-3.6132,-3.6132,-3.6132,0.0,0.0,0.0,0.0,0.0,0.0,0.0,0.0,0.0,0.0,0.0,0.0,0.0,0.0,0.0,0.0,0.0,0.0,0.0,0.0,0.0,0.0,0.0,0.0,0.0,0.0,0.0,0.0,0.0,-3.0946,-3.1542,0.0,0.0,0.0,0.0,-3.4567,-3.491,-3.5396,-3.6108,-3.6179,-3.6519,-3.7166,-3.7214,-3.7598,-3.8294,-3.8294,-3.8311,-3.8359,-3.9039,-3.9424,-3.9457,-3.9386,-3.9311,-3.9253,-3.8341,-3.809,-3.8288,-3.7553,-3.6857,-3.6183,-3.5537,-3.5262,-3.5198,-3.4916,-3.5295,-3.5903,-3.5649,-3.5806,-3.612,-3.6104,-3.5868,-3.5614,-3.5582,-3.555,0.0,0.0,-3.6039,-3.6414,-3.6492,-3.6492,-3.6492,-3.6492,-3.6492,-3.6492,-3.6492,-3.6492,-3.6492,0.0,-3.6492,-3.6492,-3.6492,0.0,-3.6492,-3.6492,-3.6492,-3.6492,-3.6492,-3.6492,-3.6492,-3.6492,-3.6492,-3.6492,-3.6492,-3.6492,-3.6492,-3.6492,-3.646,-3.646,-3.646,-3.646,-3.646,-3.646,-3.646,0.0,0.0,0.0,0.0,0.0,0.0,0.0,0.0,0.0,0.0,0.0,0.0,0.0,0.0,0.0,0.0,0.0,0.0,0.0,0.0,0.0,0.0,0.0,0.0,0.0,0.0,0.0,0.0,-3.1833,-3.2815,0.0,-3.3572,-3.4345,-3.4904,-3.5117,-3.6017,-3.6578,-3.6628,-3.7277,-3.7842,-3.8319,-3.8335,-3.8571,-3.9097,-3.9324,-3.9443,-3.9443,-3.9922,-4.0124,-4.0124,-3.9645,-3.9086,-3.8569,-3.855,-3.8073,-3.7316,-3.746,-3.7253,-3.6827,-3.6522,-3.5859,-3.5063,-3.5355,-3.5429,-3.537,-3.5661,-3.6041,-3.6508,-3.6662,-3.6476,-3.6211,-3.6211,-3.6211,-3.6303,-3.6746,-3.7011,-3.7168,-3.7286,-3.7347,-3.7393,-3.7721,-3.7549,-3.7347,-3.7347,-3.7565,-3.78,-3.78,-3.7092,-3.6492,-3.6492,-3.6492,-3.6492,-3.6492,-3.6492,-3.6492,-3.6492,-3.6492,-3.6492,-3.6492,-3.6492,-3.6492,-3.6492,-3.6492,-3.6492,-3.6492,-3.6492,-3.6492,-3.6492,-3.6492,-3.6492,-3.6492,-3.6492,-3.6492,0.0,0.0,0.0,0.0,0.0,0.0,0.0,0.0,0.0,0.0,0.0,0.0,0.0,0.0,0.0,0.0,0.0,0.0,0.0,0.0,0.0,0.0,0.0,0.0,0.0,0.0,-3.2654,-3.2996,-3.3979,-3.468,-3.4844,-3.5522,-3.6098,-3.6316,-3.7151,-3.7719,-3.7857,-3.844,-3.8934,-3.9264,-3.9143,-3.9291,-3.9659,-3.9768,-3.9892,-4.0015,-4.0586,-4.0717,-4.0514,-4.0244,-3.9676,-3.8925,-3.8962,-3.8499,-3.7666,-3.778,-3.7703,-3.7467,-3.6822,-3.6096,-3.5486,-3.5793,-3.5722,-3.5442,-3.5766,-3.6228,-3.6743,-3.7106,-3.72,-3.7169,-3.7169,-3.7169,-3.7261,-3.7707,-3.7846,-3.7875,-3.7991,-3.8034,-3.8083,-3.824,-3.8508,-3.8618,-3.835,-3.8523,-3.8697,-3.8523,-3.7784,-3.7169,-3.7169,-3.7169,-3.7169,-3.7169,-3.7169,-3.7169,-3.7169,-3.7169,-3.7169,-3.7169,-3.7169,-3.7169,-3.7169,-3.7169,-3.7076,-3.6846,-3.683,-3.6738,-3.6507,-3.6492,-3.6492,-3.6492,-3.6492,-3.6492,-3.6492,0.0,0.0,0.0,0.0,0.0,0.0,0.0,0.0,0.0,0.0,0.0,0.0,0.0,0.0,0.0,0.0,0.0,0.0,0.0,0.0,0.0,0.0,0.0,-3.1959,-3.3085,-3.4107,-3.4517,-3.5029,-3.5496,-3.5923,-3.6266,-3.7008,-3.832,-3.8415,-3.8884,-3.9906,-3.9691,-3.9676,-4.0017,-3.9723,-3.9755,-4.0081,-3.9771,-3.9771,-4.0097,-4.1069,-4.1221,-4.0662,-4.1221,-4.1136,-4.0532,-3.9556,-3.9286,-3.953,-3.8606,-3.8292,-3.8243,-3.6452,-3.6115,-3.6646,-3.6307,-3.6257,-3.6335,-3.6093,-3.6343,-3.6876,-3.7443,-3.8013,-3.8508,-3.8508,-3.8508,-3.8508,-3.8539,-3.8539,-3.8554,-3.8569,-3.8569,-3.8442,-3.7986,-3.9216,-4.028,-3.9406,-3.9232,-3.9106,-3.8664,-3.8569,-3.8554,-3.8523,-3.8508,-3.8508,-3.8508,-3.8508,0.0,-3.8508,-3.8508,-3.8508,-3.8508,-3.8508,-3.8508,-3.8508,-3.8508,-3.8231,-3.7569,-3.7507,-3.7215,-3.6553,-3.6507,-3.6492,-3.6492,-3.6492,-3.6492,-3.6492,0.0,0.0,0.0,0.0,0.0,0.0,0.0,0.0,0.0,0.0,0.0,0.0,0.0,0.0,0.0,0.0,0.0,0.0,0.0,0.0,0.0,0.0,-3.4571,-3.4112,-3.4635,-3.525,-3.5788,-3.6274,-3.6778,-3.7342,-3.768,-3.8026,-3.8445,-3.8921,-3.9235,-3.9251,-3.9881,-4.0385,-4.0709,-4.1111,-4.1492,-4.1883,-4.2041,-4.2163,-4.2231,-4.2268,-4.2198,-4.2021,-4.122,-4.0675,-4.0367,-3.9952,-3.9487,-3.9116,-3.9247,-3.9057,-3.8641,-3.7352,-3.6623,-3.6234,-3.6173,-3.5875,-3.5565,-3.5892,-3.6343,-3.6876,-3.7443,-3.8013,-3.8508,-3.8508,-3.8508,-3.8616,-3.9108,-3.9247,-3.9354,-3.9813,-3.9936,-3.992,-3.9809,-4.0127,-4.0449,-4.0192,-4.0127,-4.0096,-3.9985,-3.9936,-3.9628,-3.8677,-3.8508,-3.8508,-3.8508,0.0,0.0,-3.8508,-3.8508,-3.8508,-3.8508,-3.8508,-3.8508,-3.8508,-3.8508,-3.8431,-3.8246,-3.7769,-3.7415,-3.723,-3.6753,-3.6492,-3.6492,-3.6492,-3.6492,0.0,0.0,0.0,0.0,0.0,0.0,0.0,0.0,0.0,0.0,0.0,0.0,0.0,0.0,0.0,0.0,0.0,0.0,0.0,0.0,0.0,0.0,-3.5064,-3.5598,-3.5933,-3.5952,-3.6167,-3.6781,-3.7079,-3.7468,-3.8134,-3.834,-3.8681,-3.9277,-3.9687,-4.0167,-4.0696,-4.1133,-4.1538,-4.1863,-4.2109,-4.2421,-4.2824,-4.286,-4.2829,-4.2674,-4.2609,-4.2325,-4.1783,-4.1278,-4.0865,0.0,-4.0096,-3.9669,-3.9268,-3.9339,-3.9159,0.0,0.0,0.0,0.0,0.0,-3.706,-3.6789,-3.712,-3.7584,-3.8069,-3.8385,-3.8878,-3.9383,-3.9346,-3.9354,-3.9413,-3.9797,-3.9905,-3.9997,-4.0397,-4.0489,-4.0489,-4.0489,-4.0489,-4.0489,-4.0489,-4.0489,-4.0489,-4.0489,0.0,0.0,-3.9459,-3.9354,-3.9354,-3.9354,-3.9354,-3.9354,0.0,-3.9354,-3.9354,-3.9354,-3.9354,-3.9354,-3.9354,-3.9354,0.0,0.0,0.0,-3.8092,-3.7523,-3.7123,0.0,0.0,0.0,-3.6492,0.0,0.0,0.0,0.0,-3.6492,-3.6492,0.0,0.0,0.0,0.0,0.0,0.0,0.0,0.0,0.0,0.0,0.0,0.0,0.0,0.0,0.0,0.0,-3.5691,-3.6122,-3.7338,-3.7046,-3.6953,-3.7538,-3.7615,-3.7908,-3.8662,-3.8739,-3.9259,-4.0628,-4.0735,-4.1418,-4.2945,0.0,0.0,0.0,0.0,-4.2947,-4.3276,-4.2901,-4.2542,-4.2291,-4.2424,-4.1908,-4.084,-4.136,-4.1283,-4.0674,-4.0112,-3.9887,-3.9845,-3.9338,-3.9113,-3.9099,-3.8958,-3.8902,-3.8902,-3.8902,-3.8902,0.0,0.0,0.0,0.0,-3.9691,-4.0121,-4.0588,-4.0538,-4.0565,-4.0616,-4.0616,-4.0685,-4.0735,-4.0735,-4.0735,-4.072,-4.0689,-4.0593,-4.0543,-4.077,-4.0786,-4.0735,-4.0735,-4.0735,-4.0705,-4.0628,-4.0551,-4.0489,-4.0489,-4.0489,0.0,-4.0489,-4.0489,-4.0489,-4.0489,0.0,0.0,-4.0489,-4.0489,-4.0243,-3.9644,-3.9521,-3.8921,-3.7677,-3.7615,-3.7338,-3.6738,-3.6722,-3.6722,-3.6722,-3.6722,-3.6722,-3.6722,-3.6569,-3.6492,0.0,0.0,0.0,0.0,0.0,0.0,0.0,0.0,0.0,0.0,0.0,0.0,0.0,0.0,0.0,-3.6122,-3.6753,-3.72,-3.7461,-3.7861,-3.8169,-3.8292,-3.8323,-3.88,-3.9982,-4.0105,-4.0674,-4.2109,-4.2202,-4.2361,-4.2695,-4.3131,0.0,-4.3519,-4.3947,-4.4225,-4.43,-4.3714,-4.3358,-4.3301,0.0,0.0,-4.1473,-4.1099,-4.083,-4.0688,-4.0575,-4.0519,-4.0519,-4.0393,-4.0336,-4.0252,-3.9296,-3.8902,-3.8902,-3.8902,-3.8902,-3.8902,-3.8902,-3.924,-3.9704,-3.9693,-4.0135,-4.0622,-4.0588,-4.095,0.0,-4.139,-4.1772,-4.2202,-4.2202,-4.2202,-4.2104,-4.173,-4.103,-4.0902,-4.2345,-4.2412,-4.2202,-4.2202,-4.2202,-4.2032,-4.1478,-4.0874,-4.0489,-4.0489,-4.0489,-4.0489,-4.0489,-4.0489,-4.0489,-4.0489,-4.0489,-4.0489,-4.0489,-4.0489,-4.0443,-4.0305,-3.9782,-3.9154,-3.8354,-3.8323,-3.8262,-3.8123,-3.8123,-3.8123,-3.8123,-3.8123,-3.8123,-3.8092,-3.6999,-3.6492,0.0,0.0,0.0,0.0,0.0,0.0,0.0,0.0,0.0,0.0,0.0,-3.4267,0.0,0.0,-3.6333,-3.6906,-3.7569,-3.8123,-3.8462,-3.9093,-3.949,-3.949,-3.949,-4.0028,-4.1397,-4.1535,-4.1986,-4.3017,-4.3094,-4.3233,-4.3571,-4.3932,-4.4117,-4.4117,-4.444,-4.461,-4.461,-4.3953,-4.3419,-4.3086,-4.2152,-4.1505,-4.1198,-4.0859,-4.0702,-4.0702,-4.0702,-4.0702,-4.0702,-4.0702,-4.0702,-4.0631,-4.0027,-3.9788,-3.9788,-3.9788,-3.9788,-3.9788,-3.9788,-3.9969,-4.023,-4.0535,-4.0871,-4.1165,-4.152,-4.1805,-4.2095,-4.2095,-4.2331,-4.2602,-4.2602,-4.2602,-4.2535,-4.2324,-4.2046,-4.2113,-4.3009,-4.3025,-4.2911,-4.2911,-4.273,-4.2494,-4.2171,-4.1801,-4.1289,-4.0597,-4.0489,-4.0489,-4.0489,-4.0489,-4.0489,-4.0489,-4.0489,-4.0489,-4.0489,-4.0489,-4.0489,-4.0489,-4.0182,-3.969,-3.9046,-3.9016,-3.8846,-3.8523,-3.8508,-3.8508,-3.8508,-3.8508,-3.8508,-3.8492,-3.7815,-3.7507,0.0,0.0,0.0,0.0,0.0,0.0,0.0,-3.3787,-3.3906,-3.5401,-3.5385,-3.546,-3.6491,-3.7138,-3.7538,-3.7677,-3.8262,-3.8939,-3.9582,-4.0274,-4.0797,-4.1078,-4.0981,-4.1381,-4.2679,-4.2802,-4.3063,-4.3747,-4.3809,-4.404,-4.4594,-4.461,-4.461,-4.461,-4.4458,-4.4427,-4.4426,-4.3645,-4.2966,-4.242,-4.1811,-4.1241,-4.0702,-4.0702,-4.0702,-4.0702,-4.0702,-4.0702,-4.0702,-4.0702,-4.0702,-4.0702,-4.0702,-4.0702,-4.0702,-4.0702,-4.0702,-4.0702,-4.0702,-4.0702,-4.0774,-4.1273,-4.1423,-4.1536,-4.2061,-4.2326,-4.2453,-4.2565,-4.2692,-4.284,-4.295,-4.2987,-4.2987,-4.2987,-4.325,-4.3478,-4.3478,-4.3478,-4.3478,-4.3478,-4.3198,-4.2956,-4.2817,-4.2802,-4.2371,-4.1089,-4.0905,-4.0843,-4.072,-4.0705,-4.0659,-4.0505,-4.0489,-4.0489,-4.0489,-4.0489,-4.0489,-4.0489,-4.0489,-4.0259,-3.9705,-3.9674,-3.9428,-3.8908,-3.8908,-3.8908,-3.8908,-3.8908,-3.8908,-3.8908,-3.8908,-3.8769,-3.1146,-3.1441,-3.2167,-3.3306,-3.3923,-3.4404,0.0,-3.5262,-3.5431,-3.623,-3.6353,-3.6521,-3.7261,-3.7446,-3.7692,-3.8292,-3.897,-3.9613,-4.029,-4.1032,-4.1909,-4.3131,-4.2725,-4.2663,-4.3424,-4.3501,-4.3778,-4.4456,-4.4502,-4.4533,-4.461,-4.461,-4.461,-4.461,-4.402,-4.3698,-4.3693,-4.2515,-4.1861,-4.1784,-4.1126,-4.0773,-4.0702,-4.0702,-4.0702,-4.0702,-4.0702,-4.0702,-4.0702,-4.0702,-4.0702,-4.0702,-4.0702,-4.0702,-4.0702,-4.0702,-4.0702,-4.0702,-4.0702,-4.0702,-4.073,-4.0774,-4.0788,-4.0817,-4.0887,-4.1306,-4.1925,-4.2507,-4.3065,-4.3613,-4.4243,-4.4394,-4.4394,-4.4394,-4.4409,-4.444,-4.444,-4.444,-4.444,-4.444,-4.4409,-4.4209,-4.3593,-4.3501,-4.3217,-4.2479,-4.2371,-4.2155,-4.1555,-4.1478,-4.1232,-4.0566,-4.0489,-4.0489,-4.0489,-4.0489,-4.0489,-4.0489,-4.0489,-4.0459,-4.0382,-4.0382,-4.0336,-4.0274,-4.0274,-4.0274,-4.0274,-4.0274,-4.0274,-4.0274,-4.0274,-3.9628,-3.2497,-3.2991,-3.3682,-3.4576,-3.494,-3.5275,-3.5953,-3.6076,-3.6153,-3.643,-3.6799,-3.7169,-3.7446,-3.8138,-3.8769,0.0,-4.0016,-4.0832,-4.1109,-4.2078,-4.2992,-4.3531,-4.3716,-4.3864,-4.4163,-4.4194,-4.4317,-4.4594,-4.461,-4.461,-4.461,-4.461,-4.4419,-4.402,-4.3747,-4.3425,-4.3016,-4.2149,-4.169,-4.1686,-4.1,-4.0702,-4.0702,-4.0702,-4.0702,-4.0702,-4.0702,-4.0702,-4.0702,-4.0702,-4.0702,-4.0702,-4.0702,-4.0702,-4.0702,-4.0702,-4.0702,-4.0702,-4.0702,-4.0702,-4.0773,-4.1156,-4.1283,-4.1395,-4.217,-4.2578,-4.2941,-4.363,-4.3996,-4.4266,-4.4534,-4.461,-4.461,-4.461,-4.461,-4.461,-4.461,-4.461,-4.461,-4.461,-4.461,-4.4533,-4.424,-4.4194,-4.4101,-4.3802,-4.3094,-4.2509,-4.2217,-4.2186,-4.1925,-4.1217,-4.1155,-4.0986,-4.0536,-4.0489,-4.0489,-4.0489,-4.0489,-4.0489,-4.0489,-4.0489,-4.0489,-4.0489,-4.0489,-4.0489,-4.0489,-4.0489,-4.0489,-4.0489,-4.0489,-4.0197,-3.3743,-3.4273,-3.4787,-3.5584,-3.5799,-3.5891,-3.6384,-3.6492,-3.6538,-3.6738,-3.7153,-3.7615,-3.7984,-3.8862,-3.9551,-3.9736,-4.0816,-4.1663,-4.1848,-4.2848,-4.367,-4.3855,-4.4317,-4.461,-4.461,-4.461,-4.461,-4.461,-4.461,-4.461,-4.461,-4.4419,-4.4097,-4.363,-4.3269,-4.2842,-4.2376,-4.1732,-4.1419,-4.1433,-4.0944,-4.0702,-4.0702,-4.0702,-4.0702,-4.0702,-4.0702,-4.0702,-4.0702,-4.0702,-4.0702,-4.0702,-4.0702,-4.0702,-4.0702,-4.0702,-4.0702,-4.0702,-4.0702,-4.0702,-4.0787,-4.1283,-4.1395,-4.1604,-4.2537,-4.282,-4.2941,-4.3615,-4.381,-4.3849,-4.402,-4.4043,-4.4097,-4.4305,-4.4343,-4.4381,-4.4572,-4.461,-4.461,-4.461,-4.461,-4.461,-4.461,-4.461,-4.461,-4.461,-4.3756,-4.3079,-4.2894,-4.2709,-4.2417,-4.1925,-4.1878,-4.1586,-4.0843,-4.0782,-4.0705,-4.0505,-4.0489,-4.0489,-4.0489,-4.0489,-4.0489,-4.0489,-4.0489,-4.0489,-4.0489,-4.0489,-4.0489,-4.0489,-4.0489,-4.0489,-3.4358,-3.474,-3.5062,-3.6199,-3.6461,-3.6461,-3.6492,-3.6492,-3.6676,-3.7338,-3.7492,-3.7908,-3.9216,-3.9459,-3.9705,-4.0351,-4.1124,-4.1832,-4.2479,-4.314,-4.3855,-4.4502,-4.461,-4.461,0.0,-4.461,-4.461,-4.461,-4.461,-4.461,-4.461,-4.3981,-4.363,-4.3591,-4.242,-4.1756,-4.1726,-4.1056,-4.073,-4.073,-4.0702,-4.0702,-4.0702,-4.0702,-4.0702,-4.0702,-4.0702,-4.0702,-4.0702,-4.0702,-4.0702,-4.0702,-4.0702,-4.0702,-4.0702,-4.0702,-4.0702,-4.0702,-4.0702,-4.0702,-4.0702,-4.073,-4.0744,-4.0744,-4.0787,-4.0787,-4.0944,-4.1604,-4.1771,-4.1922,-4.2522,-4.267,-4.2831,-4.3457,-4.363,-4.3825,-4.4458,-4.461,-4.461,-4.461,-4.461,-4.461,-4.461,-4.461,-4.461,-4.461,-4.4579,-4.4317,-4.3655,-4.2987,-4.2602,-4.2586,-4.2586,-4.2309,-4.1617,-4.1571,-4.1263,-4.0536,-4.0489,-4.0489,-4.0489,-4.0489,-4.0489,-4.0489,-4.0489,-4.0489,-4.0489,-4.0489,-4.0489,-4.0489,-4.0489,-4.0489,-3.5033,-3.5656,-3.6013,-3.6399,-3.6492,-3.6492,-3.6492,-3.6846,-3.723,-3.7446,-3.8215,-3.897,-3.9431,-3.9844,-4.0228,-4.0459,-4.1509,-4.234,-4.2571,-4.3556,-4.4363,-4.4594,-4.461,0.0,0.0,0.0,0.0,-4.461,-4.461,-4.461,-4.461,-4.3942,-4.3379,-4.2966,-4.212,-4.1501,-4.1056,-4.0802,-4.0702,-4.0702,-4.0702,-4.0702,-4.0702,-4.0702,-4.0702,-4.0702,-4.0702,-4.0702,-4.0702,-4.0702,-4.0702,-4.0702,-4.0702,-4.0702,-4.0702,-4.0702,-4.0702,-4.0702,-4.0702,-4.0702,-4.0702,-4.0702,-4.0702,-4.0787,-4.1241,-4.1367,-4.1479,-4.2129,-4.2278,-4.236,-4.2548,-4.2926,-4.3299,-4.3551,-4.3942,-4.4305,-4.4396,-4.4396,-4.4374,-4.4358,-4.4319,-4.4404,-4.4588,-4.4434,-4.4304,-4.422,-4.4435,-4.4533,-4.4302,-4.4086,-4.3741,-4.3294,-4.3285,-4.2987,-4.2325,-4.2263,-4.2171,-4.1925,-4.1494,-4.1232,-4.1232,-4.0751,-4.0489,-4.0489,-4.0489,-4.0489,-4.0489,-4.0489,-4.0489,-4.0489,-4.0489,-4.0489,-3.5503,-3.6085,-3.6492,-3.6492,-3.6492,-3.6492,-3.6492,-3.7015,-3.7569,-3.7815,-3.8739,-3.9518,-3.9558,-4.0094,-4.042,-4.0246,-4.1551,-4.2602,-4.2602,-4.3741,-4.461,-4.461,-4.461,-4.461,0.0,0.0,0.0,-4.461,-4.461,-4.461,-4.461,-4.3732,-4.3046,-4.2589,-4.1794,-4.1155,-4.0688,-4.0702,-4.0702,-4.0702,-4.0702,-4.0702,-4.0702,-4.0702,-4.0702,-4.0702,-4.0702,-4.0702,-4.0702,-4.0702,-4.0702,-4.0702,-4.0702,-4.0702,-4.0702,-4.0702,-4.0702,-4.0702,-4.0702,-4.0702,-4.0702,-4.0702,-4.0702,-4.0787,-4.1198,-4.1353,-4.1437,-4.1784,-4.1908,-4.1908,-4.1908,-4.2374,-4.2875,-4.3061,-4.3576,-4.4058,-4.4166,-4.4243,-4.4297,-4.4212,-4.4166,-4.4189,-4.4373,-4.4196,-4.4112,-4.4205,-4.4358,-4.4496,-4.4496,-4.4549,-4.4418,-4.3896,-4.3925,-4.3664,-4.2892,-4.2919,-4.2863,-4.2633,-4.2202,-4.1971,-4.1971,-4.1509,-4.1228,-4.1228,-4.1032,-4.0874,-4.0874,-4.0612,-4.0628,-4.0874,-4.0874,-4.1012,-3.572,-3.6116,-3.6492,-3.6492,-3.6492,-3.6492,-3.6492,-3.7046,-3.7738,-3.8385,-3.9044,-3.9566,0.0,0.0,-4.0281,-3.9824,-4.1305,-4.2571,-4.2602,-4.371,-4.4579,0.0,0.0,0.0,0.0,0.0,0.0,-4.461,0.0,-4.4587,-4.4534,-4.3324,-4.2603,-4.2548,-4.1339,-4.0702,-4.0702,-4.0702,-4.0702,-4.0702,-4.0702,-4.0702,-4.0702,-4.0702,-4.0702,-4.0702,-4.0702,-4.0702,-4.0702,-4.0702,-4.0702,-4.0702,-4.0702,-4.0702,-4.0702,-4.0702,-4.0702,-4.0702,-4.0702,-4.0702,-4.0702,-4.0702,-4.0702,-4.0702,-4.0702,-4.0702,-4.0702,-4.0702,-4.0702,-4.0659,-4.0659,-4.1001,-4.1507,-4.2143,-4.2659,-4.3195,-4.3856,-4.4127,-4.4266,-4.4197,-4.4121,-4.4037,-4.4037,-4.3915,-4.3953,-4.448,-4.4396,-4.4281,-4.4281,-4.4473,-4.4511,-4.432,-4.4473,-4.425,-4.3417,-4.3558,-4.3371,-4.274,-4.2679,-4.2663,-4.2663,-4.2633,-4.2602,-4.2602,-4.1986,-4.1648,-4.1648,-4.0935,-4.0986,-4.1648,-4.1648,-4.1986,-3.6195,-3.6398,-3.6492,-3.6492,-3.6492,-3.6492,-3.6492,-3.74,-3.8292,-3.8477,-3.9108,-3.9768,-4.0216,-4.0071,0.0,-4.0246,-4.1172,0.0,-4.254,-4.331,0.0,-4.4548,-4.461,-4.461,-4.461,-4.461,0.0,0.0,-4.461,-4.4381,-4.3864,-4.3046,-4.24,-4.1922,-4.1114,-4.0702,-4.0702,-4.0702,-4.0702,-4.0702,-4.0702,-4.0702,-4.0702,-4.0702,-4.0702,-4.0702,-4.0702,-4.0702,-4.0702,-4.0702,-4.0702,-4.0702,-4.0702,-4.0702,-4.0702,-4.0702,-4.0702,-4.0702,-4.0702,-4.0702,-4.0702,-4.0702,-4.0702,-4.0702,-4.0702,-4.0702,-4.0702,-4.0702,-4.043,-4.017,-4.017,-4.0372,-4.0774,-4.1574,-4.2382,-4.3135,-4.384,-4.4026,-4.4119,-4.4165,-4.4341,-4.4454,-4.4428,-4.4149,-4.3865,-4.366,-4.3738,-4.3949,-4.4243,-4.4358,-4.4358,-4.432,-4.4358,-4.4282,-4.4075,-4.425,-4.4211,-4.3906,-4.3528,-4.3362,-4.3362,-4.2863,-4.2602,-4.2602,-4.2432,-4.2355,-4.2355,-4.2171,-4.2171,-4.2355,-4.2355,-4.2448,-3.6429,-3.6492,-3.6492,-3.6492,-3.6492,-3.6569,-3.6861,-3.7347,-3.7796,-3.8101,-3.8333,-3.8551,-3.8906,-3.9123,-3.9355,0.0,0.0,0.0,-4.2509,-4.3156,-4.3855,0.0,-4.461,0.0,-4.461,-4.461,-4.461,0.0,-4.4343,-4.3981,-4.363,-4.2699,-4.2046,-4.1688,-4.1029,-4.0702,-4.0702,-4.0702,-4.0702,-4.0702,-4.0702,-4.0702,-4.0702,-4.0702,-4.0702,-4.0702,0.0,-4.0702,-4.0702,-4.0702,-4.0702,-4.0702,-4.0702,-4.0702,-4.0702,-4.0702,-4.0702,-4.0702,-4.0702,-4.0702,-4.0702,-4.0702,-4.0702,-4.0702,-4.0702,-4.0702,-4.0702,-4.0702,-4.053,-4.03,-4.03,-4.0559,-4.0958,-4.1713,-4.2371,-4.3006,-4.3699,-4.3871,-4.3955,-4.4302,-4.4194,-4.4022,-4.4019,-4.3841,-4.3672,-4.3551,-4.3606,-4.3754,-4.4026,-4.4089,-4.4127,-4.4065,-4.4205,-4.4243,-4.4181,-4.4435,-4.4496,-4.432,-4.4044,-4.3905,-4.3905,-4.3552,-4.3405,-4.3479,-4.3187,-4.3033,-4.3033,-4.274,-4.2756,-4.3033,-4.3033,-4.3187,-3.6492,-3.6492,-3.6492,-3.6492,-3.6492,-3.6645,-3.7135,-3.6982,-3.6833,-3.7372,-3.7109,-3.6808,-3.6961,-3.7843,-3.8627,-3.8779,0.0,-4.1724,-4.2494,-4.3094,-4.3762,-4.4533,-4.461,-4.461,-4.461,-4.461,-4.461,-4.461,-4.3981,-4.3551,-4.3457,-4.2415,-4.1729,-4.1563,-4.0986,-4.0702,-4.0702,-4.0702,-4.0702,-4.0702,-4.0702,-4.0702,-4.0702,-4.0702,-4.0702,-4.0702,0.0,0.0,-4.0702,-4.0702,-4.0702,-4.0702,-4.0702,-4.0702,-4.0702,-4.0702,-4.0702,-4.0702,-4.0702,-4.0702,-4.0702,-4.0702,-4.0702,-4.0702,-4.0702,-4.0702,-4.0702,-4.0616,-4.0573,-4.0487,-4.043,-4.0702,-4.1114,-4.1757,-4.2155,-4.2633,-4.3344,-4.3636,-4.3868,-4.4339,-4.3864,-4.3367,-4.3313,-4.3286,-4.3416,-4.3672,-4.3669,-4.3651,-4.3651,-4.3832,-4.391,-4.3729,-4.4026,-4.4127,-4.3988,-4.432,-4.4435,-4.4281,-4.4281,-4.432,-4.4358,-4.4358,-4.4435,-4.461,-4.404,-4.3747,-4.3747,-4.314,-4.3156,-4.3747,-4.3747,-4.4055,-3.6492,-3.6492,-3.6492,-3.6492,-3.6492,-3.6413,-3.6095,-3.6388,-3.6598,-3.6268,-3.6195,-3.6307,-3.6814,-3.7497,-3.813,-3.8617,-3.9832,-4.112,-4.2432,-4.2709,-4.3217,0.0,-4.461,-4.461,-4.461,-4.461,0.0,0.0,0.0,0.0,-4.2805,-4.2548,-4.1949,-4.0901,-4.0773,-4.0702,-4.0702,-4.0702,-4.0702,-4.0702,-4.0702,-4.0702,-4.0702,-4.0702,-4.0702,-4.0702,0.0,0.0,-4.0702,-4.0702,-4.0702,-4.0702,-4.0702,-4.0702,-4.0702,-4.0702,-4.0702,-4.0702,-4.0702,-4.0702,-4.0702,-4.0702,-4.0702,-4.0702,-4.0702,-4.0702,-4.0616,-4.0213,-3.9821,-3.9438,-3.9038,-3.8737,-3.8724,-3.9519,-4.049,-4.1462,-4.233,-4.326,-4.3871,-4.3587,-4.3735,-4.376,-4.3364,-4.3284,-4.3299,-4.3394,-4.3369,-4.3384,-4.3384,-4.3596,-4.3729,-4.369,-4.3769,-4.3808,-4.3769,-4.3988,-4.4104,-4.4065,-4.4205,-4.4358,-4.4549,-4.4549,-4.4572,-4.461,-4.4502,-4.444,-4.444,-4.4295,-4.4295,-4.444,-4.444,-4.4502,-3.6492,-3.6492,-3.6492,-3.6492,-3.6492,-3.6444,-3.6254,-3.5974,-3.5703,-3.5536,-3.5006,-3.4789,-3.5367,-3.5975,-3.6808,-3.8031,-3.8983,-4.015,-4.1843,-4.2386,-4.2971,-4.3978,-4.4409,-4.461,-4.461,-4.461,0.0,0.0,0.0,0.0,-4.314,-4.2482,-4.1673,-4.0744,-4.0702,-4.0702,-4.0702,-4.0702,-4.0702,-4.0702,-4.0702,-4.0702,-4.0702,-4.0702,-4.0702,-4.0702,-4.0702,0.0,-4.0702,-4.0702,-4.0702,-4.0702,-4.0702,-4.0702,-4.0702,-4.0702,-4.0702,-4.0702,-4.0702,-4.0702,-4.0702,-4.0702,-4.0702,-4.0702,-4.0702,-4.0702,-4.0616,-4.0124,-3.9854,-3.9536,-3.9092,-3.8827,-3.88,-3.959,-4.0717,-4.1726,-4.2058,-4.2941,-4.3581,-4.3329,-4.3468,-4.3578,-4.3344,-4.329,-4.329,-4.329,-4.329,-4.329,-4.329,-4.3423,-4.3503,-4.3503,-4.3596,-4.369,-4.369,-4.3871,-4.3949,-4.3832,-4.3949,-4.4065,-4.4281,-4.4281,-4.4396,-4.4587,-4.461,-4.4549,-4.4435,-4.4435,-4.4435,-4.4435,-4.4435,-4.4435,-3.6492,-3.6492,-3.6492,-3.6492,-3.6492,-3.6458,-3.6336,-3.5576,-3.4857,-3.4718,-3.3952,-3.3431,-3.3922,-3.4611,-3.5662,-3.7346,-3.8222,-3.9384,-4.1331,-4.2186,-4.2848,-4.3531,-4.4194,0.0,-4.461,-4.461,0.0,0.0,0.0,0.0,-4.322,-4.2102,-4.1241,-4.0702,-4.0702,-4.0702,-4.0702,-4.0702,-4.0702,-4.0702,-4.0702,-4.0702,-4.0702,-4.0702,-4.0702,-4.0702,-4.0702,0.0,0.0,-4.0702,-4.0702,-4.0702,-4.0702,-4.0702,-4.0702,-4.0702,-4.0702,-4.0702,-4.0702,-4.0702,-4.0702,-4.0702,-4.0702,-4.0702,-4.0702,-4.0702,-4.0616,-4.0126,-3.9997,-3.985,-3.9297,-3.9172,-3.9292,-3.9911,-4.1029,-4.1961,-4.199,-4.2699,-4.329,-4.329,-4.329,-4.329,-4.329,-4.329,-4.329,-4.329,-4.329,-4.329,-4.329,-4.329,-4.329,-4.329,-4.3503,-4.3596,-4.3596,-4.3754,-4.3793,-4.3729,-4.369,-4.3808,-4.3988,-4.3988,-4.4127,-4.4473,-4.4496,-4.4473,-4.4281,-4.4358,-4.4358,-4.4358,-4.432,-4.4281,-3.6492,-3.6492,-3.6492,-3.6492,-3.6492,-3.6241,-3.5294,-3.4986,-3.4639,-3.3648,-3.3389,-3.3304,-3.3361,-3.4312,-3.5517,-3.6777,-3.7938,-3.9384,-4.1331,-4.2186,-4.2848,-4.3531,0.0,0.0,-4.461,-4.461,0.0,0.0,0.0,0.0,0.0,-4.1198,-4.0773,-4.0702,-4.0702,-4.0702,-4.0702,-4.0702,-4.0702,-4.0702,-4.0702,-4.0702,-4.0702,-4.0702,-4.0702,-4.0702,0.0,0.0,0.0,-4.0702,-4.0702,-4.0702,-4.0702,-4.0702,-4.0702,-4.0702,-4.0702,-4.0702,-4.0702,-4.0702,-4.0702,-4.0702,-4.0702,-4.0702,-4.0702,-4.0702,-4.0603,-4.0135,-4.0,-3.9768,-3.8886,-3.8647,-3.8769,-3.9179,-4.0029,-4.0986,-4.1811,-4.2699,-4.329,-4.329,-4.329,-4.329,-4.329,-4.329,-4.329,-4.329,-4.329,-4.329,-4.329,-4.329,-4.329,-4.329,-4.3329,-4.3329,-4.3329,-4.3329,-4.3463,-4.369,-4.369,-4.3808,-4.3988,-4.3988,-4.4026,-4.4065,-4.4243,-4.432,-4.4281,-4.4473,-4.4572,-4.4572,-4.4396,-4.4281,-3.6492,-3.6492,-3.6492,-3.6492,-3.6492,-3.6226,-3.5139,-3.4909,-3.4591,-3.3521,-3.329,-3.329,-3.329,-3.3684,-3.463,-3.6575,-3.6993,-3.7875,-4.0157,-4.1374,-4.2149,-4.2408,-4.3722,0.0,0.0,0.0,0.0,0.0,0.0,0.0,0.0,-4.1451,-4.1114,-4.0702,-4.0702,-4.0702,-4.0702,-4.0702,-4.0702,-4.0702,-4.0702,-4.0702,-4.0702,-4.0702,-4.0702,-4.0702,0.0,0.0,0.0,-4.0702,-4.0702,-4.0702,-4.0702,-4.053,-4.0257,-4.0257,-4.0083,-3.9851,-3.9842,-3.9844,-3.9871,-3.9837,-3.9865,-3.9952,-4.053,-4.0504,-4.0162,-3.9722,-3.9595,-3.9352,-3.8402,-3.8161,-3.8207,-3.8395,-3.9533,-4.0689,-4.1071,-4.1852,-4.2659,-4.321,-4.3273,-4.3297,-4.331,-4.329,-4.329,-4.329,-4.329,-4.329,-4.329,-4.329,-4.329,-4.329,-4.329,-4.329,-4.329,-4.329,-4.3344,-4.3463,-4.3463,-4.3557,-4.3793,-4.3832,-4.3871,-4.3988,-4.4065,-4.4065,-4.3949,-4.4127,-4.4243,-4.4243,-4.4166,-4.4127,-3.6492,-3.6492,-3.6492,-3.6492,-3.6383,-3.6022,-3.5121,-3.4776,-3.439,-3.3486,-3.329,-3.329,-3.329,-3.329,-3.4023,-3.6251,-3.642,-3.7066,-3.9379,-4.1025,-4.1984,-4.1984,0.0,0.0,0.0,0.0,0.0,0.0,0.0,0.0,0.0,-4.1813,-4.1409,-4.0702,-4.0702,-4.0702,-4.0702,-4.0702,-4.0702,-4.0702,-4.0702,-4.0702,-4.0702,-4.0573,-4.0487,-4.0487,0.0,0.0,0.0,-4.043,-4.0386,-4.03,-4.03,-4.0083,-3.9777,-3.9777,-3.9584,-3.9288,-3.9316,-3.9299,-3.9288,-3.9315,-3.9208,-3.9222,-4.0021,-4.0076,-3.9723,-3.9373,-3.92,-3.8934,-3.8285,-3.8011,-3.79,-3.79,-3.9073,-4.0202,-4.0202,-4.0901,-4.1852,-4.2739,-4.2679,-4.2673,-4.323,-4.309,-4.2996,-4.325,-4.329,-4.329,-4.329,-4.329,-4.329,-4.329,-4.329,-4.329,-4.329,-4.329,-4.329,-4.329,-4.329,-4.3384,-4.3557,-4.3596,-4.3636,-4.3778,-4.3871,-4.3832,-4.369,-4.391,-4.3988,-4.3988,-4.3949,-4.3871,-3.6492,-3.6492,-3.6492,-3.6492,-3.6085,-3.5591,-3.5008,-3.4476,-3.3948,-3.3417,-3.329,-3.329,-3.329,-3.329,-3.3882,-3.5719,-3.6491,-3.756,-3.9429,-4.1366,-4.2602,0.0,0.0,0.0,0.0,0.0,0.0,0.0,0.0,0.0,0.0,0.0,-4.1409,-4.0702,-4.0702,-4.0702,-4.0702,-4.0702,-4.0702,-4.0702,-4.0702,-4.0702,-4.0702,-4.0213,-3.9996,0.0,0.0,0.0,0.0,-3.9821,-3.9733,-3.9305,-3.9305,-3.9305,-3.9305,-3.9305,-3.9297,-3.9303,-3.9301,-3.9289,-3.9306,-3.9289,-3.8991,-3.8707,-3.9177,-3.9308,-3.93,-3.9288,-3.8966,-3.8634,-3.8617,-3.8264,-3.79,-3.79,-3.8549,-3.921,-3.921,-3.9942,-4.0901,-4.1811,-4.1254,-4.1197,-4.2996,-4.2578,-4.2333,-4.317,-4.329,-4.329,-4.329,-4.329,-4.329,-4.329,-4.329,-4.329,-4.329,-4.329,-4.329,-4.329,-4.329,-4.329,-4.329,-4.329,-4.329,-4.329,-4.3557,-4.369,-4.369,-4.391,-4.3988,-4.3988,-4.3808,-4.3557,-3.6492,-3.6492,-3.6429,-3.6053,-3.5816,-3.5447,-3.4543,-3.4206,-3.3948,-3.3417,-3.329,-3.329,-3.329,-3.329,-3.3882,-3.5719,-3.6171,-3.6944,-3.8824,0.0,0.0,-4.1969,0.0,0.0,0.0,0.0,0.0,0.0,0.0,0.0,0.0,0.0,-4.184,-4.073,-4.0702,-4.0702,-4.0702,-4.0702,-4.0702,-4.0702,-4.0343,-4.0198,-4.0196,-3.9716,0.0,0.0,0.0,0.0,0.0,-3.9482,-3.9438,-3.9305,-3.9305,-3.9083,-3.8827,-3.8827,-3.8629,-3.8351,-3.8357,-3.8345,-3.8359,-3.8345,-3.8254,-3.8129,-3.8286,-3.8585,-3.8826,-3.8814,-3.8506,-3.8116,-3.8122,-3.8011,-3.79,-3.79,-3.8549,-3.921,-3.921,-3.9417,-3.9899,-4.0859,-4.0817,-4.0901,-4.1898,-4.253,-4.2996,-4.325,-4.329,-4.329,-4.329,-4.329,-4.329,-4.329,-4.329,-4.329,-4.329,-4.329,-4.329,-4.329,-4.329,-4.329,-4.329,-4.329,-4.329,-4.329,-4.3384,-4.3423,-4.3423,-4.3675,-4.3793,-4.3808,-4.3729,-4.3557,-3.6258,-3.6195,-3.6085,-3.5512,-3.5252,-3.4909,-3.424,-3.3948,-3.3701,-3.3382,-3.329,-3.329,-3.329,-3.329,-3.3825,-3.5424,-3.5863,-3.6671,-3.8532,0.0,0.0,-4.2727,0.0,0.0,0.0,0.0,0.0,0.0,0.0,0.0,0.0,0.0,-4.1798,-4.073,-4.0702,-4.0702,-4.0702,-4.0702,-4.0616,-4.043,-4.0126,-3.9892,-3.9714,-3.923,0.0,0.0,0.0,0.0,0.0,-3.8948,-3.8904,-3.8782,-3.8782,-3.8602,-3.8344,-3.8344,-3.8161,-3.79,-3.79,-3.79,-3.79,-3.79,-3.79,-3.79,-3.79,-3.8076,-3.8355,-3.833,-3.8116,-3.79,-3.79,-3.79,-3.79,-3.79,-3.8304,-3.8715,-3.8715,-3.8715,-3.897,-3.9899,-3.9796,-4.0029,-4.1459,-4.1843,-4.2254,-4.314,-4.329,-4.329,-4.329,-4.329,-4.329,-4.329,-4.329,-4.329,-4.329,-4.329,-4.329,-4.329,-4.329,-4.329,-4.329,-4.329,-4.329,-4.329,-4.329,-4.329,-4.329,-4.3463,-4.3557,-4.3557,-4.3557,-4.3463,0.0,-3.572,-3.5623,-3.5041,-3.4509,-3.4153,-3.4051,-3.3667,0.0,-3.329,-3.329,-3.329,-3.329,-3.329,-3.3719,-3.4992,-3.5696,-3.6693,0.0,-4.0516,0.0,0.0,0.0,0.0,0.0,0.0,0.0,0.0,0.0,0.0,0.0,0.0,0.0,-4.0702,-4.0659,-4.0659,-4.0702,-4.0702,-4.0487,-3.9996,-3.9952,-3.9689,-3.9216,-3.8782,0.0,0.0,0.0,0.0,0.0,-3.8389,-3.8298,-3.79,-3.79,-3.79,-3.79,-3.79,-3.79,-3.79,-3.79,-3.79,-3.79,-3.79,-3.79,-3.79,-3.79,-3.79,-3.79,-3.79,-3.79,-3.79,-3.79,-3.79,-3.79,-3.79,-3.79,-3.79,-3.79,-3.79,-3.8148,-3.8957,-3.8517,-3.8832,-4.1407,-4.0731,-4.0646,-4.2951,-4.329,-4.329,-4.329,-4.329,-4.329,-4.329,-4.329,-4.329,-4.329,-4.329,-4.329,-4.329,-4.329,-4.329,-4.329,-4.329,-4.329,-4.329,-4.329,-4.329,-4.329,-4.329,-4.329,-4.329,-4.329,-4.329,-3.5863,0.0,-3.6085,-3.5154,-3.4824,-3.4491,0.0,-3.3382,-3.329,-3.329,-3.329,-3.329,-3.329,-3.329,-3.3719,-3.4992,-3.6057,-3.7157,-3.859,0.0,0.0,0.0,0.0,0.0,0.0,0.0,0.0,0.0,0.0,0.0,0.0,0.0,0.0,-4.0702,-4.0343,-4.0343,-4.0702,-4.0702,-4.0487,-3.9996,-3.9645,-3.9216,-3.8737,-3.8298,0.0,0.0,0.0,0.0,-3.79,-3.8037,-3.7992,-3.79,-3.79,-3.79,-3.79,-3.79,-3.79,-3.79,-3.79,-3.79,-3.79,-3.79,-3.79,-3.79,-3.79,-3.79,-3.79,-3.79,-3.79,-3.79,-3.79,-3.79,-3.79,-3.79,-3.79,-3.79,-3.79,-3.79,-3.7946,-3.8194,-3.8594,-3.9186,-4.0081,-4.09,-4.1889,-4.3101,-4.329,-4.329,-4.329,-4.329,-4.329,-4.329,-4.329,-4.329,-4.329,-4.329,-4.329,-4.329,-4.329,-4.329,-4.329,-4.329,-4.329,-4.329,-4.329,-4.329,-4.329,-4.329,-4.329,-4.329,-4.329,-4.329,-3.6163,-3.6085,-3.5894,-3.481,-3.471,-3.4624,-3.3542,-3.3472,-3.3612,-3.3347,-3.329,-3.329,-3.329,-3.3748,-3.4441,-3.5408,-3.6324,0.0,0.0,0.0,0.0,0.0,0.0,0.0,0.0,0.0,0.0,0.0,0.0,0.0,0.0,0.0,0.0,0.0,-3.9908,-3.9908,-4.0343,-4.017,-3.9821,-3.9349,-3.9083,-3.8737,-3.8253,-3.8037,0.0,0.0,0.0,0.0,-3.79,-3.79,-3.79,-3.79,-3.79,-3.79,-3.79,-3.79,-3.79,-3.79,-3.79,-3.79,-3.79,-3.79,-3.79,-3.79,-3.79,-3.79,-3.79,-3.79,-3.79,-3.79,-3.79,-3.79,-3.79,-3.79,-3.79,-3.79,-3.79,-3.79,-3.79,-3.79,-3.8272,-3.8917,-3.9951,-4.1043,-4.2109,-4.3145,-4.329,-4.329,-4.329,-4.329,-4.329,-4.329,-4.329,-4.329,-4.329,-4.329,-4.329,-4.329,-4.329,-4.329,-4.329,-4.329,-4.329,-4.329,-4.329,-4.329,-4.329,-4.329,-4.329,-4.329,-4.329,-4.329,-3.6492,-3.6148,-3.5576,-3.4576,-3.461,-3.4658,-3.3736,-3.377,-3.3894,-3.3507,-3.3347,-3.3354,-3.3529,-3.4411,-3.5357,0.0,0.0,0.0,0.0,0.0,0.0,0.0,0.0,0.0,0.0,0.0,0.0,0.0,0.0,0.0,0.0,0.0,0.0,0.0,-3.9438,-3.9394,-3.9777,-3.9482,-3.9038,-3.8602,-3.8602,-3.8344,-3.79,-3.79,0.0,0.0,0.0,0.0,-3.79,-3.79,-3.79,-3.79,-3.79,-3.79,-3.79,-3.79,-3.79,-3.79,-3.79,-3.79,-3.79,-3.79,-3.79,-3.79,-3.79,-3.79,-3.79,-3.79,-3.79,-3.79,-3.79,-3.79,-3.79,-3.79,-3.79,-3.79,-3.79,-3.79,-3.79,-3.79,-3.79,-3.8408,-4.0087,-4.0814,-4.1581,-4.2905,-4.3076,-4.317,-4.329,-4.329,-4.329,-4.329,-4.329,-4.329,-4.329,-4.329,-4.329,-4.329,-4.329,-4.329,-4.329,-4.329,-4.329,-4.329,-4.329,-4.329,-4.329,-4.329,-4.329,-4.329,-4.329,-4.329,-3.6492,-3.6429,-3.6226,-3.5623,-3.5172,-3.4843,-3.4691,-3.4011,-3.3542,-3.3894,-3.3597,-3.3607,-3.4651,-3.4998,-3.5642,-3.7248,0.0,0.0,0.0,0.0,0.0,0.0,0.0,0.0,0.0,0.0,0.0,0.0,0.0,0.0,0.0,0.0,0.0,0.0,-3.8948,-3.8737,-3.8827,-3.9127,-3.9038,-3.8602,-3.8602,-3.8344,-3.79,-3.79,-3.79,0.0,0.0,-3.79,-3.79,-3.79,-3.79,-3.79,-3.79,-3.79,-3.79,-3.79,-3.79,-3.79,-3.79,-3.79,-3.79,-3.79,-3.79,-3.79,-3.79,-3.79,-3.79,-3.79,-3.79,-3.79,-3.79,-3.79,-3.79,-3.79,-3.79,-3.79,-3.79,-3.79,-3.79,-3.79,-3.79,-3.8226,-3.9254,-3.9502,-4.0172,-4.1949,-4.2211,-4.2456,-4.321,-4.329,-4.329,-4.329,-4.329,-4.329,-4.329,-4.329,-4.329,-4.329,-4.329,-4.329,-4.329,-4.329,-4.329,-4.329,-4.329,-4.329,-4.329,-4.329,-4.329,-4.329,-4.329,-4.329,-3.6492,-3.6492,-3.6429,-3.6179,-3.5958,-3.5623,-3.5041,-3.4725,-3.4591,-3.4543,-3.4133,-3.408,-3.5321,-3.5575,-3.6193,-3.8032,0.0,0.0,0.0,0.0,0.0,0.0,0.0,0.0,0.0,0.0,0.0,0.0,0.0,0.0,0.0,0.0,0.0,0.0,-3.8466,-3.8207,-3.8207,-3.8434,-3.8434,-3.8207,-3.8207,-3.8129,-3.79,-3.79,-3.79,-3.79,0.0,-3.79,-3.79,-3.79,-3.79,-3.79,-3.79,-3.79,-3.79,-3.79,-3.79,-3.79,-3.79,-3.79,-3.79,-3.79,-3.79,-3.79,-3.79,-3.79,-3.79,-3.79,-3.79,-3.79,-3.79,-3.79,-3.79,-3.79,-3.79,-3.79,-3.79,-3.79,-3.79,-3.79,-3.79,-3.8194,-3.9033,-3.921,-3.9681,-4.1029,-4.1254,-4.138,-4.1796,-4.2278,-4.2578,-4.2578,-4.3036,-4.329,-4.329,-4.329,-4.329,-4.329,-4.329,-4.329,-4.329,-4.329,-4.329,-4.329,-4.329,-4.329,-4.329,-4.329,-4.329,-4.329,-4.329,-4.329,-3.6492,-3.6492,-3.6492,-3.6492,-3.6398,-3.6116,-3.5415,-3.5382,-3.5415,-3.5154,-3.4808,-3.4898,-3.6088,-3.6628,0.0,-3.8766,0.0,0.0,0.0,0.0,0.0,0.0,0.0,0.0,0.0,0.0,0.0,0.0,0.0,0.0,0.0,0.0,0.0,0.0,-3.8083,-3.79,-3.79,-3.79,-3.79,-3.79,-3.79,-3.79,-3.79,-3.79,-3.79,-3.79,-3.79,-3.79,-3.79,-3.79,-3.79,-3.79,-3.79,-3.79,-3.79,-3.79,-3.79,-3.79,-3.79,-3.79,-3.79,-3.79,-3.79,-3.79,-3.79,-3.79,-3.79,-3.79,-3.79,-3.79,-3.79,-3.79,-3.79,-3.79,-3.79,-3.79,-3.79,-3.79,-3.79,-3.79,-3.79,-3.8103,-3.8792,-3.8881,-3.9224,-4.0116,-4.0289,-4.0332,-4.0546,-4.1351,-4.1906,-4.199,-4.2795,-4.329,-4.329,-4.329,-4.329,-4.329,-4.329,-4.329,-4.329,-4.329,-4.329,-4.329,-4.329,-4.329,-4.329,-4.329,-4.329,-4.329,-4.329,-4.329,-3.6492,-3.6492,-3.6492,-3.6492,-3.6116,-3.5847,-3.6289,-3.564,-3.5088,-3.5559,-3.5695,-3.6151,-3.7365,-3.8587,-3.9469,-3.9595,0.0,0.0,0.0,0.0,0.0,0.0,0.0,0.0,0.0,0.0,0.0,0.0,0.0,0.0,0.0,0.0,0.0,0.0,0.0,-3.79,-3.79,-3.79,-3.79,-3.79,-3.79,-3.79,-3.79,-3.79,-3.79,-3.79,-3.79,-3.79,-3.79,-3.79,-3.79,-3.79,-3.79,-3.79,-3.79,-3.79,-3.79,-3.79,-3.79,-3.79,-3.79,-3.79,-3.79,-3.79,-3.79,-3.79,-3.79,-3.79,-3.79,-3.79,-3.79,-3.79,-3.79,-3.79,-3.79,-3.79,-3.79,-3.79,-3.79,-3.79,-3.79,-3.79,-3.7979,-3.7979,-3.8272,-3.9166,-3.9285,-3.9637,-4.0504,-4.1153,-4.1637,-4.1976,-4.2795,-4.329,-4.329,-4.329,-4.329,-4.329,-4.329,-4.329,-4.329,-4.329,-4.329,-4.329,-4.329,-4.329,-4.329,-4.329,-4.329,-4.329,-4.329,-4.329,-3.6492,-3.6492,-3.6492,-3.6492,-3.6352,-3.6258,-3.646,-3.5926,-3.5664,-3.6618,-3.66,-3.6683,-3.7605,0.0,-3.9126,0.0,0.0,0.0,0.0,0.0,0.0,0.0,0.0,0.0,0.0,0.0,0.0,0.0,0.0,0.0,0.0,0.0,0.0,0.0,0.0,-3.79,-3.79,-3.79,-3.79,-3.79,-3.79,-3.79,-3.79,-3.79,-3.79,-3.79,-3.79,-3.79,-3.79,-3.79,-3.79,-3.79,-3.79,-3.79,-3.79,-3.79,-3.79,-3.79,-3.79,-3.79,-3.79,-3.79,-3.79,-3.79,-3.79,-3.79,-3.79,-3.79,-3.79,-3.79,-3.79,-3.79,-3.79,-3.79,-3.79,-3.79,-3.79,-3.79,-3.79,-3.79,-3.79,-3.79,-3.79,-3.79,-3.8024,-3.8349,-3.8395,-3.8517,-3.8877,-4.0088,-4.1,-4.1113,-4.2441,-4.329,-4.329,-4.329,-4.329,-4.329,-4.329,-4.329,-4.329,-4.329,-4.329,-4.329,-4.329,-4.329,-4.329,-4.329,-4.329,-4.329,-4.329,-4.329,-3.6492,-3.6492,-3.6492,-3.6492,-3.6352,-3.6289,-3.646,-3.6226,-3.6251,-3.729,-3.7523,-3.7815,-3.8537,-3.8871,0.0,0.0,0.0,0.0,0.0,0.0,0.0,0.0,0.0,0.0,0.0,0.0,0.0,0.0,0.0,0.0,0.0,0.0,0.0,0.0,0.0,0.0,-3.79,-3.79,-3.79,-3.79,-3.79,-3.79,-3.79,-3.79,-3.79,-3.79,-3.79,-3.79,-3.79,-3.79,-3.79,-3.79,-3.79,-3.79,-3.79,-3.79,-3.79,-3.79,-3.79,-3.79,-3.79,-3.79,-3.79,-3.79,-3.79,-3.79,-3.79,-3.79,-3.79,-3.79,-3.79,-3.79,-3.79,-3.79,-3.79,-3.79,-3.79,-3.79,-3.79,-3.79,-3.79,-3.79,-3.79,-3.79,-3.79,-3.79,-3.79,-3.79,-3.79,-3.8996,-4.0022,-4.0802,-4.2316,-4.329,-4.329,-4.329,-4.329,-4.329,-4.329,-4.329,-4.329,-4.329,-4.329,-4.329,-4.329,-4.329,-4.329,-4.329,-4.329,-4.329,-4.329,-4.329,-3.6492,-3.6492,-3.6492,-3.6492,-3.6085,-3.5847,-3.6398,-3.6492,-3.6692,-3.7384,-3.8552,-3.9705,-4.0366,-4.0036,0.0,0.0,0.0,0.0,0.0,0.0,0.0,0.0,0.0,0.0,0.0,0.0,0.0,0.0,0.0,0.0,0.0,0.0,0.0,0.0,0.0,0.0,-3.79,-3.79,-3.79,-3.79,-3.79,-3.79,-3.79,-3.79,-3.79,-3.79,-3.79,-3.79,-3.79,-3.79,-3.79,-3.79,-3.79,-3.79,-3.79,-3.79,-3.79,-3.79,-3.79,-3.79,-3.79,-3.79,-3.79,-3.79,-3.79,-3.79,-3.79,-3.79,-3.79,-3.79,-3.79,-3.79,-3.79,-3.79,-3.79,-3.79,-3.79,-3.79,-3.79,-3.79,-3.79,-3.79,-3.79,-3.79,-3.79,-3.79,-3.79,-3.79,-3.79,-3.792,-3.8842,-4.1232,-4.2555,-4.329,-4.329,-4.329,-4.329,-4.329,-4.329,-4.329,-4.329,-4.329,-4.329,-4.329,-4.329,-4.329,-4.329,-4.329,-4.329,-4.329,-4.329,-4.329,-3.6492,-3.6492,-3.6492,-3.6492,-3.6383,-3.6289,-3.646,-3.6578,-3.7073,-3.8578,-3.8951,-3.9212,-3.9814,-3.9111,0.0,0.0,0.0,0.0,0.0,0.0,0.0,0.0,0.0,0.0,0.0,0.0,0.0,0.0,0.0,0.0,0.0,0.0,0.0,0.0,0.0,0.0,-3.79,-3.79,-3.79,-3.79,-3.79,-3.79,-3.79,-3.79,-3.79,-3.79,-3.79,-3.79,-3.79,-3.79,-3.79,-3.79,-3.79,-3.79,-3.79,-3.79,-3.79,-3.79,-3.79,-3.79,-3.79,-3.79,-3.79,-3.79,-3.79,-3.79,-3.79,-3.79,-3.79,-3.79,-3.79,-3.79,-3.79,-3.79,-3.79,-3.79,-3.79,-3.79,-3.79,-3.79,-3.79,-3.79,-3.79,-3.79,-3.79,-3.79,-3.79,-3.8103,-3.8715,-3.8791,-3.9341,-4.0732,-4.1169,-4.1672,-4.2319,-4.2415,-4.2659,-4.325,-4.329,-4.329,-4.329,-4.329,-4.329,-4.329,-4.329,-4.329,-4.329,-4.329,-4.329,-4.329,-4.329,-4.329,-3.6492,-3.6492,-3.6492,-3.6492,-3.6492,-3.6569,-3.683,-3.7175,-3.76,-3.8304,-3.8842,-3.9199,-3.9307,-3.8745,0.0,0.0,0.0,0.0,0.0,0.0,0.0,0.0,0.0,0.0,0.0,0.0,0.0,0.0,0.0,0.0,0.0,0.0,0.0,0.0,0.0,0.0,-3.79,-3.79,-3.79,-3.79,-3.79,-3.79,-3.79,-3.79,-3.79,-3.79,-3.79,-3.79,-3.79,-3.79,-3.79,-3.79,-3.79,-3.79,-3.79,-3.79,-3.79,-3.79,-3.79,-3.79,-3.79,-3.79,-3.79,-3.79,-3.79,-3.79,-3.79,-3.79,-3.79,-3.79,-3.79,-3.79,-3.79,-3.79,-3.79,-3.79,-3.79,-3.79,-3.79,-3.79,-3.79,-3.79,-3.79,-3.79,-3.79,-3.79,-3.79,-3.8103,-3.8639,-3.9002,-3.9417,-3.9986,-4.0375,-4.0817,-4.138,-4.1421,-4.1672,-4.2181,-4.2222,-4.24,-4.2795,-4.313,-4.329,-4.329,-4.329,-4.329,-4.329,-4.329,-4.329,-4.329,-4.329,-4.329,-3.646,-3.6492,-3.6492,-3.6492,-3.6492,-3.6645,-3.7198,-3.7952,-3.8211,-3.7174,-3.8376,-3.9415,-3.8782,0.0,0.0,0.0,0.0,0.0,0.0,0.0,0.0,0.0,0.0,0.0,0.0,0.0,0.0,0.0,0.0,0.0,0.0,0.0,0.0,0.0,0.0,0.0,-3.79,-3.79,-3.79,0.0,-3.79,-3.79,-3.79,-3.79,-3.79,-3.79,-3.79,-3.79,-3.79,-3.79,-3.79,-3.79,-3.79,-3.79,-3.79,-3.79,-3.79,-3.79,-3.79,-3.79,-3.79,-3.79,-3.79,-3.79,-3.79,-3.79,-3.79,-3.79,-3.79,-3.79,-3.79,-3.79,-3.79,-3.79,-3.79,-3.79,-3.79,-3.79,-3.79,-3.79,-3.79,-3.79,-3.79,-3.79,-3.79,-3.79,-3.79,-3.79,-3.79,-3.8594,-3.9077,-3.9077,-3.9855,-4.0389,-4.0475,-4.0461,-4.0504,-4.0603,-4.0603,-4.0986,-4.1852,-4.2714,-4.321,-4.329,-4.329,-4.329,-4.329,-4.329,-4.329,-4.329,-4.329,-4.329,-3.646,-3.6492,-3.6492,-3.6492,-3.6492,-3.6429,-3.6172,-3.7325,-3.8448,-3.8256,-3.8618,-3.8694,-3.7715,0.0,0.0,0.0,0.0,0.0,0.0,0.0,0.0,0.0,0.0,0.0,0.0,0.0,0.0,0.0,0.0,0.0,0.0,0.0,0.0,0.0,0.0,-3.79,-3.79,-3.79,-3.79,0.0,-3.79,-3.79,-3.79,-3.79,-3.79,-3.79,-3.79,-3.79,-3.79,-3.79,-3.79,-3.79,-3.79,-3.79,-3.79,-3.79,-3.79,-3.79,-3.79,-3.79,-3.79,-3.79,-3.79,-3.79,-3.79,-3.79,-3.79,-3.79,-3.79,-3.79,-3.79,-3.79,-3.79,-3.79,-3.79,-3.79,-3.79,-3.79,-3.79,-3.79,-3.79,-3.79,-3.79,-3.79,-3.79,-3.79,-3.79,-3.79,-3.79,-3.807,-3.8194,-3.8194,-3.8362,-3.8742,-3.9431,-3.9505,-3.9812,-4.0546,-4.0603,-4.0689,-4.0901,-4.1811,-4.2618,-4.329,-4.329,-4.329,-4.329,-4.329,-4.329,-4.329,-4.329,-4.329,-3.632,-3.6352,-3.6352,-3.6352,-3.6414,-3.6352,-3.5816,-3.6715,-3.7525,-3.7105,-3.7981,-3.8323,0.0,0.0,0.0,0.0,0.0,0.0,0.0,0.0,0.0,0.0,0.0,0.0,0.0,0.0,0.0,0.0,0.0,0.0,0.0,0.0,0.0,0.0,-3.79,-3.79,-3.79,-3.79,-3.79,-3.79,-3.79,-3.79,-3.79,-3.79,-3.79,-3.79,-3.79,-3.79,-3.79,-3.79,-3.79,-3.79,-3.79,-3.79,-3.79,-3.79,-3.79,-3.79,-3.79,-3.79,-3.79,-3.79,-3.79,-3.79,-3.79,-3.79,-3.79,-3.79,-3.79,-3.79,-3.79,-3.79,-3.79,-3.79,-3.79,-3.79,-3.79,-3.79,-3.79,-3.79,-3.79,-3.79,-3.79,-3.79,-3.79,-3.79,-3.79,-3.79,-3.79,-3.79,-3.79,-3.79,-3.79,-3.807,-3.8549,-3.8594,-3.8774,-3.9295,-3.9295,-3.9722,-4.0546,-4.1071,-4.1755,-4.2659,-4.309,-4.329,-4.329,-4.329,-4.329,-4.329,-4.329,-4.329,-3.6133,-3.6242,-3.6242,-3.6179,-3.6352,-3.6352,-3.5879,-3.6265,-3.6403,-3.5396,-3.6894,0.0,0.0,0.0,0.0,0.0,0.0,0.0,0.0,0.0,0.0,0.0,0.0,0.0,0.0,0.0,0.0,0.0,0.0,0.0,0.0,0.0,-3.7769,-3.79,-3.79,-3.79,-3.79,-3.79,-3.79,-3.79,-3.79,-3.79,-3.79,-3.79,-3.79,-3.79,-3.79,-3.79,-3.79,-3.79,-3.79,-3.79,-3.79,-3.79,-3.79,-3.79,-3.79,-3.79,-3.79,-3.79,-3.79,-3.79,-3.79,-3.79,-3.79,-3.79,-3.79,-3.79,-3.79,-3.79,-3.79,-3.79,-3.79,-3.79,-3.79,-3.79,-3.79,-3.79,-3.79,-3.79,-3.79,-3.79,-3.79,-3.79,-3.79,-3.79,-3.79,-3.79,-3.79,-3.79,-3.79,-3.79,-3.79,-3.79,-3.79,-3.79,-3.79,-3.79,-3.79,-3.8575,-4.0057,-4.0432,-4.0986,-4.1728,-4.278,-4.329,-4.329,-4.329,-4.329,-4.329,-4.329,-4.329,-3.6101,-3.6352,-3.6383,-3.61,-3.6273,-3.6429,-3.6179,-3.6427,-3.6302,0.0,0.0,0.0,0.0,0.0,0.0,0.0,0.0,0.0,0.0,0.0,0.0,0.0,0.0,0.0,0.0,0.0,0.0,0.0,0.0,0.0,0.0,-3.7127,-3.7363,-3.7887,-3.79,-3.79,-3.79,-3.79,-3.79,-3.79,-3.79,-3.79,-3.79,-3.79,-3.79,-3.79,-3.79,-3.79,-3.79,-3.79,-3.79,-3.79,-3.79,-3.79,-3.79,-3.79,-3.79,-3.79,-3.79,-3.79,-3.79,-3.79,-3.79,-3.79,-3.79,-3.79,-3.79,-3.79,-3.79,-3.79,-3.79,-3.79,-3.79,-3.79,-3.79,-3.79,-3.79,-3.79,-3.79,-3.79,-3.79,-3.79,-3.79,-3.79,-3.79,-3.79,-3.79,-3.79,-3.79,-3.79,-3.79,-3.79,-3.79,-3.79,-3.79,-3.79,-3.79,-3.79,-3.79,-3.8037,-3.8239,-3.9766,-4.0646,-4.0774,-4.2441,-4.329,-4.329,-4.329,-4.329,-4.329,-4.329,-4.329,-3.527,-3.58,-3.6289,-3.6068,-3.5847,-3.5625,-3.5222,-3.4834,-3.4337,0.0,0.0,0.0,0.0,0.0,0.0,0.0,0.0,0.0,0.0,0.0,0.0,0.0,0.0,0.0,0.0,0.0,0.0,0.0,0.0,0.0,-3.6488,-3.6506,-3.6624,-3.6881,-3.722,0.0,-3.7403,-3.773,-3.79,-3.79,-3.79,-3.79,-3.79,-3.79,-3.79,-3.79,-3.79,-3.79,-3.79,-3.79,-3.79,-3.79,-3.79,-3.79,-3.79,-3.79,-3.79,-3.79,-3.79,-3.79,-3.79,-3.79,-3.79,-3.79,-3.79,-3.79,-3.79,-3.79,-3.79,-3.79,-3.79,-3.79,-3.79,-3.79,-3.79,-3.79,-3.79,-3.79,-3.79,-3.79,-3.79,-3.79,-3.79,-3.79,-3.79,-3.79,-3.79,-3.79,-3.79,-3.79,-3.79,-3.79,-3.79,-3.79,-3.79,-3.79,-3.79,-3.79,-3.79,-3.8103,-3.8594,-3.9387,-4.0073,-4.0603,-4.24,-4.329,-4.329,-4.329,-4.329,-4.329,-4.329,-4.329,-3.4776,-3.535,-3.5879,-3.5878,-3.5462,-3.4927,-3.448,0.0,-3.2822,0.0,0.0,0.0,0.0,0.0,0.0,0.0,0.0,0.0,0.0,0.0,0.0,0.0,0.0,0.0,0.0,0.0,0.0,0.0,0.0,0.0,-3.5887,-3.59,-3.5966,-3.6109,-3.6541,-3.6776,-3.6776,-3.722,-3.7521,-3.7678,-3.7678,-3.7756,-3.79,-3.79,-3.79,-3.79,-3.79,-3.79,-3.79,-3.79,-3.79,-3.79,-3.79,-3.79,-3.79,-3.79,-3.79,-3.79,-3.79,-3.79,-3.79,-3.79,-3.79,-3.79,-3.79,-3.79,-3.79,-3.79,-3.79,-3.79,-3.79,-3.79,-3.79,-3.79,-3.79,-3.79,-3.79,-3.79,-3.79,-3.79,-3.79,-3.79,-3.79,-3.79,-3.79,-3.79,-3.79,-3.79,-3.79,-3.79,-3.79,-3.79,-3.79,-3.79,-3.79,-3.79,-3.79,-3.79,-3.79,-3.8181,-3.8836,-3.9077,-3.9505,-4.0246,-4.1796,-4.2739,-4.2955,-4.2955,-4.3076,-4.329,-4.329,-4.329,-3.5311,-3.5231,-3.507,-3.5424,-3.5231,-3.4843,0.0,0.0,0.0,0.0,0.0,0.0,0.0,0.0,0.0,0.0,0.0,0.0,0.0,0.0,0.0,0.0,0.0,0.0,0.0,0.0,0.0,0.0,0.0,0.0,-3.5312,-3.5338,-3.5574,-3.6083,-3.6136,-3.6149,-3.6149,-3.6188,-3.6488,-3.705,-3.705,-3.7351,-3.79,-3.79,-3.79,-3.79,-3.79,-3.79,-3.79,-3.79,-3.79,-3.79,-3.79,-3.79,-3.79,-3.79,-3.79,-3.79,-3.79,-3.79,-3.79,-3.79,-3.79,-3.79,-3.79,-3.79,-3.79,-3.79,-3.79,-3.79,-3.79,-3.79,-3.79,-3.79,-3.79,-3.79,-3.79,-3.79,-3.79,-3.79,-3.79,-3.79,-3.79,-3.79,-3.79,-3.79,-3.79,-3.79,-3.79,-3.79,-3.79,-3.79,-3.79,-3.79,-3.79,-3.79,-3.79,-3.79,-3.79,-3.79,-3.7992,-3.876,-3.9197,-3.9285,-4.0246,-4.1169,-4.2073,-4.2073,-4.2496,-4.329,-4.329,-4.329,-3.4104,-3.3988,-3.4022,-3.4172,-3.4104,-3.3851,-3.3304,-3.2777,0.0,0.0,0.0,0.0,0.0,0.0,0.0,0.0,0.0,0.0,0.0,0.0,0.0,0.0,0.0,0.0,0.0,0.0,0.0,0.0,0.0,0.0,-3.4711,-3.4724,-3.4816,-3.4999,-3.5378,-3.5757,-3.6109,-3.6109,-3.6214,-3.6423,-3.6423,-3.6541,-3.675,-3.675,-3.6942,-3.7318,-3.7326,-3.7547,-3.79,-3.79,-3.79,-3.79,-3.79,-3.79,-3.79,-3.79,-3.79,-3.79,-3.79,-3.79,-3.79,-3.79,-3.79,-3.79,-3.79,-3.79,-3.79,-3.79,-3.79,-3.79,-3.79,-3.79,-3.79,-3.79,-3.79,-3.79,-3.79,-3.79,-3.79,-3.79,-3.79,-3.79,-3.79,-3.79,-3.79,-3.79,-3.79,-3.79,-3.79,-3.79,-3.79,-3.79,-3.79,-3.79,-3.79,-3.79,-3.79,-3.79,-3.79,-3.79,-3.79,-3.8181,-3.8349,-3.8349,-3.8697,-3.959,-4.1113,-4.1728,-4.2155,-4.2496,-4.3036,-4.329,-3.363,-3.3318,-3.3073,-3.3332,-3.3213,-3.2897,-3.2398,0.0,0.0,0.0,0.0,0.0,0.0,0.0,0.0,0.0,0.0,0.0,0.0,0.0,0.0,0.0,0.0,0.0,0.0,0.0,0.0,0.0,0.0,0.0,-3.4397,-3.4397,-3.4397,-3.4397,-3.4789,-3.5168,-3.5534,-3.5534,-3.5639,-3.5835,-3.5835,-3.5926,-3.6109,-3.6109,-3.6317,-3.6709,-3.6713,-3.7155,-3.79,-3.79,-3.79,-3.79,-3.79,-3.79,-3.79,-3.79,-3.79,-3.79,-3.79,-3.79,-3.79,-3.79,-3.79,-3.79,-3.79,-3.79,-3.79,-3.79,-3.79,-3.79,-3.79,-3.79,-3.79,-3.79,-3.79,-3.79,-3.79,-3.79,-3.79,-3.79,-3.79,-3.79,-3.79,-3.79,-3.79,-3.79,-3.79,-3.79,-3.79,-3.79,-3.79,-3.79,-3.79,-3.79,-3.79,-3.79,-3.79,-3.79,-3.79,-3.79,-3.79,-3.79,-3.79,-3.79,-3.79,-3.8485,-3.9722,-4.0603,-4.1212,-4.1547,-4.214,-4.2386,0.0,0.0,0.0,-3.2981,0.0,0.0,-3.2074,0.0,0.0,0.0,0.0,0.0,0.0,0.0,0.0,0.0,0.0,0.0,0.0,0.0,0.0,0.0,0.0,0.0,0.0,0.0,0.0,0.0,0.0,-3.4384,-3.4397,-3.4397,-3.4397,-3.4397,-3.4397,-3.4397,-3.4397,-3.4397,-3.4685,-3.5273,-3.5273,-3.5547,-3.6057,-3.6057,-3.6057,-3.6083,-3.6083,-3.675,-3.7848,-3.7848,-3.7861,-3.7874,-3.7874,-3.7887,-3.79,-3.79,-3.79,-3.79,-3.79,-3.79,-3.79,-3.79,-3.79,-3.79,-3.79,-3.79,-3.79,-3.79,-3.79,-3.79,-3.79,-3.79,-3.79,-3.79,-3.79,-3.79,-3.79,-3.79,-3.79,-3.79,-3.79,-3.79,-3.79,-3.79,-3.79,-3.79,-3.79,-3.79,-3.79,-3.79,-3.79,-3.79,-3.79,-3.79,-3.79,-3.79,-3.79,-3.79,-3.79,-3.79,-3.79,-3.79,-3.79,-3.79,-3.79,-3.79,-3.79,-3.8747,-3.9681,-4.0546,-4.0603,-4.0603,-3.3457,0.0,0.0,0.0,0.0,0.0,0.0,0.0,0.0,0.0,0.0,0.0,0.0,0.0,0.0,0.0,0.0,0.0,0.0,0.0,0.0,0.0,0.0,0.0,0.0,0.0,0.0,0.0,-3.3809,-3.3979,-3.4384,-3.4397,-3.4397,-3.4397,-3.4397,-3.4397,-3.4397,-3.4397,-3.4476,-3.4646,-3.4646,-3.4724,-3.4868,-3.4868,-3.5103,-3.5521,-3.5521,-3.5926,-3.6606,-3.6606,-3.6867,-3.726,-3.726,-3.7521,-3.79,-3.79,-3.79,-3.79,-3.79,-3.79,-3.79,-3.79,-3.79,-3.79,-3.79,-3.79,-3.79,-3.79,-3.79,-3.79,-3.79,-3.79,-3.79,-3.79,-3.79,-3.79,-3.79,-3.79,-3.79,-3.79,-3.79,-3.79,-3.79,-3.79,-3.79,-3.79,-3.79,-3.79,-3.79,-3.79,-3.79,-3.79,-3.79,-3.79,-3.79,-3.79,-3.79,-3.79,-3.79,-3.79,-3.79,-3.79,-3.79,-3.79,-3.79,-3.79,-3.79,-3.8747,-3.9329,-3.9593,-4.0289,-4.0603,-3.3178,-3.2101,-3.0986,-3.0986,0.0,0.0,-3.1086,-3.1334,0.0,0.0,0.0,0.0,0.0,0.0,0.0,0.0,0.0,0.0,0.0,0.0,0.0,0.0,0.0,0.0,0.0,0.0,0.0,0.0,-3.3208,-3.347,-3.4031,-3.428,-3.4397,-3.4397,-3.4397,-3.4397,-3.4397,-3.4397,-3.4397,-3.4397,-3.4397,-3.4397,-3.4397,-3.4397,-3.458,-3.492,-3.492,-3.5103,-3.5391,-3.5391,-3.5874,-3.6619,-3.6619,-3.6841,-3.7181,-3.7429,-3.7521,-3.756,-3.7808,-3.79,-3.79,-3.79,-3.79,-3.79,-3.79,-3.79,-3.79,-3.79,-3.79,-3.79,-3.79,-3.79,-3.79,-3.79,-3.79,-3.79,-3.79,-3.79,-3.79,-3.79,-3.79,-3.79,-3.79,-3.79,-3.79,-3.79,-3.79,-3.79,-3.79,-3.79,-3.79,-3.79,-3.79,-3.79,-3.79,-3.79,-3.79,-3.79,-3.79,-3.79,-3.79,-3.79,-3.79,-3.79,-3.79,-3.79,-3.79,-3.8395,-3.8684,-3.8671,-3.9193,-3.9458,-3.3178,-3.2101,-3.0986,-3.0986,0.0,0.0,-3.0986,-3.0986,0.0,0.0,0.0,0.0,0.0,0.0,0.0,0.0,0.0,0.0,0.0,0.0,0.0,0.0,0.0,0.0,0.0,0.0,-3.2529,-3.2594,-3.2659,-3.2921,-3.347,-3.3953,-3.4241,-3.4306,-3.4306,-3.4332,-3.4397,-3.4397,-3.4397,-3.4397,-3.4397,-3.4397,-3.4397,-3.4397,-3.4397,-3.4397,-3.4397,-3.4397,-3.4397,-3.4397,-3.5038,-3.6018,-3.6018,-3.6057,-3.6162,-3.6711,-3.6907,-3.6985,-3.7599,-3.7808,-3.7808,-3.7887,-3.79,-3.79,-3.79,-3.79,-3.79,-3.79,-3.79,-3.79,-3.79,-3.79,-3.79,-3.79,-3.79,-3.79,-3.79,-3.79,-3.79,-3.79,-3.79,-3.79,-3.79,-3.79,-3.79,-3.79,-3.79,-3.79,-3.79,-3.79,-3.79,-3.79,-3.79,-3.79,-3.79,-3.79,-3.79,-3.79,-3.79,-3.79,-3.79,-3.79,-3.79,-3.79,-3.79,-3.79,-3.79,-3.79,-3.79,-3.79,-3.79,-3.79,-3.3178,-3.2101,-3.0986,0.0,0.0,0.0,-3.0986,-3.0986,-3.0986,0.0,0.0,0.0,0.0,0.0,0.0,0.0,0.0,0.0,0.0,0.0,0.0,0.0,0.0,0.0,0.0,0.0,-3.1509,-3.1941,-3.2437,-3.2738,-3.2868,-3.2973,-3.3247,-3.3731,-3.3757,-3.3953,-3.4397,-3.4397,-3.4397,-3.4397,-3.4397,-3.4397,-3.4397,-3.4397,-3.4397,-3.4397,-3.4397,-3.4397,-3.4397,-3.4397,-3.4816,-3.5456,-3.5456,-3.5717,-3.6123,-3.624,-3.6279,-3.6358,-3.6972,-3.7181,-3.726,-3.7743,-3.79,-3.79,-3.79,-3.79,-3.79,-3.79,-3.79,-3.79,-3.79,-3.79,-3.79,-3.79,-3.79,-3.79,-3.79,-3.79,-3.79,-3.79,-3.79,-3.79,-3.79,-3.79,-3.79,-3.79,-3.79,-3.79,-3.79,-3.79,-3.79,-3.79,-3.79,-3.79,-3.79,-3.79,-3.79,-3.79,-3.79,-3.79,-3.79,-3.79,-3.79,-3.79,-3.79,-3.79,-3.79,-3.79,-3.79,-3.79,-3.79,-3.79,0.0,0.0,0.0,-3.0986,0.0,0.0,0.0,-3.0986,-3.0986,0.0,0.0,0.0,0.0,0.0,0.0,0.0,0.0,0.0,0.0,0.0,0.0,0.0,0.0,0.0,0.0,0.0,-3.1104,-3.1392,-3.194,-3.2267,-3.2267,-3.2542,-3.2829,-3.313,-3.343,-3.3731,-3.3992,-3.4267,-3.4397,-3.4397,-3.4397,-3.4397,-3.4397,-3.4397,-3.4397,-3.4397,-3.4397,-3.4397,-3.4397,-3.4397,-3.458,-3.4842,-3.4842,-3.5012,-3.5286,-3.5587,-3.5704,-3.5783,-3.6358,-3.6554,-3.6658,-3.726,-3.7456,-3.7508,-3.7808,-3.79,-3.79,-3.79,-3.79,-3.79,-3.79,-3.79,-3.79,-3.79,-3.79,-3.79,-3.79,-3.79,-3.79,-3.79,-3.79,-3.79,-3.79,-3.79,-3.79,-3.79,-3.79,-3.79,-3.79,-3.79,-3.79,-3.79,-3.79,-3.79,-3.79,-3.79,-3.79,-3.79,-3.79,-3.79,-3.79,-3.79,-3.79,-3.79,-3.79,-3.79,-3.79,-3.79,-3.79,-3.79,-3.79,-3.79,0.0,0.0,0.0,0.0,0.0,-3.0986,0.0,0.0,0.0,0.0,0.0,0.0,0.0,0.0,0.0,0.0,0.0,0.0,0.0,0.0,0.0,0.0,0.0,0.0,0.0,0.0,-3.0986,-3.0986,-3.1418,-3.1641,-3.1641,-3.211,-3.2411,-3.2515,-3.2999,-3.3313,-3.3417,-3.3966,-3.4241,-3.4241,-3.4345,-3.4397,-3.4397,-3.4397,-3.4397,-3.4397,-3.4397,-3.4397,-3.4397,-3.4397,-3.4397,-3.4397,-3.4397,-3.4397,-3.4463,-3.4946,-3.5129,-3.5208,-3.5757,-3.5953,-3.6044,-3.6632,-3.6907,-3.7116,-3.773,-3.79,-3.79,-3.79,-3.79,-3.79,-3.79,-3.79,-3.79,-3.79,-3.79,-3.79,-3.79,-3.79,-3.79,-3.79,-3.79,-3.79,-3.79,-3.79,-3.79,-3.79,-3.79,-3.79,-3.79,-3.79,-3.79,-3.79,-3.79,-3.79,-3.79,-3.79,-3.79,-3.79,-3.79,-3.79,-3.79,-3.79,-3.79,-3.79,-3.79,-3.79,-3.79,-3.79,-3.79,-3.79,-3.79,-3.79,0.0,0.0,0.0,0.0,-3.0986,0.0,0.0,0.0,0.0,0.0,0.0,-3.0986,-3.0986,0.0,0.0,0.0,0.0,0.0,0.0,0.0,0.0,0.0,0.0,0.0,0.0,0.0,0.0,-3.0986,-3.1052,-3.1078,-3.1078,-3.1143,-3.1418,-3.1889,-3.1967,-3.2241,-3.279,-3.3378,-3.3679,-3.3692,-3.4162,-3.4397,-3.4397,-3.4397,-3.4397,-3.4397,-3.4397,-3.4397,-3.4397,-3.4397,-3.4397,-3.4397,-3.4397,-3.4397,-3.441,-3.4476,-3.4502,-3.458,-3.5182,-3.5391,-3.5482,-3.6031,-3.6567,-3.7116,-3.773,-3.79,-3.79,-3.79,-3.79,-3.79,-3.79,-3.79,-3.79,-3.79,-3.79,-3.79,-3.79,-3.79,-3.79,-3.79,-3.79,-3.79,-3.79,-3.79,-3.79,-3.79,-3.79,-3.79,-3.79,-3.79,-3.79,-3.79,-3.79,-3.79,-3.79,-3.79,-3.79,-3.79,-3.79,-3.79,-3.79,-3.79,-3.79,-3.79,-3.79,-3.79,-3.79,-3.79,-3.79,-3.79,-3.79,-3.79,0.0,0.0,0.0,0.0,0.0,0.0,-3.0986,0.0,-3.0986,0.0,0.0,0.0,0.0,0.0,0.0,0.0,0.0,0.0,0.0,0.0,0.0,0.0,0.0,0.0,0.0,0.0,0.0,0.0,0.0,-3.0986,-3.0986,-3.0986,-3.1091,-3.1339,-3.1628,-3.1915,-3.2163,-3.2777,-3.3247,-3.3587,-3.3822,-3.4097,-3.4397,-3.4397,-3.4397,-3.4397,-3.4397,-3.4397,-3.4397,-3.4397,-3.4397,-3.4397,-3.4397,-3.4397,-3.4397,-3.4397,-3.4397,-3.4437,-3.4685,-3.4776,-3.4884,-3.5434,-3.6035,-3.6593,-3.7194,-3.7377,-3.7456,-3.7808,-3.79,-3.79,-3.79,-3.79,-3.79,-3.79,-3.79,-3.79,-3.79,-3.79,-3.79,-3.79,-3.79,-3.79,-3.79,-3.79,-3.79,-3.79,-3.79,-3.79,-3.79,-3.79,-3.79,-3.79,-3.79,-3.79,-3.79,-3.79,-3.79,-3.79,-3.79,-3.79,-3.79,-3.79,-3.79,-3.79,-3.79,-3.79,-3.79,-3.79,-3.79,-3.79,-3.79,-3.79,-3.2897,0.0,0.0,0.0,0.0,0.0,0.0,0.0,0.0,0.0,0.0,0.0,0.0,0.0,-3.0934,-3.0777,0.0,0.0,0.0,0.0,0.0,0.0,0.0,0.0,0.0,0.0,0.0,0.0,0.0,0.0,-3.0986,-3.0986,-3.0986,-3.0986,-3.1392,-3.1575,-3.1575,-3.2176,-3.2672,-3.3117,-3.343,-3.3796,-3.4188,-3.4332,-3.4397,-3.4397,-3.4397,-3.4397,-3.4397,-3.4397,-3.4397,-3.4397,-3.4397,-3.4397,-3.4397,-3.4397,-3.4397,-3.4397,-3.4397,-3.4397,-3.4504,-3.5107,-3.5581,-3.5991,-3.6577,-3.6873,-3.709,-3.7534,-3.7782,-3.79,-3.79,-3.79,-3.79,-3.79,-3.79,-3.79,-3.79,-3.79,-3.79,-3.79,-3.79,-3.79,-3.79,-3.79,-3.79,-3.79,-3.79,-3.79,-3.79,-3.79,-3.79,-3.79,-3.79,-3.79,-3.79,-3.79,-3.79,-3.79,-3.79,-3.79,-3.79,-3.79,-3.79,-3.79,-3.79,-3.79,-3.79,-3.79,-3.79,-3.79,-3.79,-3.79,0.0,0.0,0.0,-3.0986,0.0,0.0,0.0,0.0,-3.0986,0.0,0.0,0.0,0.0,-3.0986,-3.0803,-3.0218,-3.062,0.0,0.0,0.0,0.0,0.0,0.0,0.0,0.0,0.0,0.0,0.0,0.0,0.0,-3.0986,-3.0986,-3.0986,-3.0986,-3.0999,-3.1013,-3.1013,-3.1536,-3.1836,-3.1876,-3.3051,-3.36,-3.3639,-3.4162,-3.4397,-3.4397,-3.4397,-3.4397,-3.4397,-3.4397,-3.4397,-3.4397,-3.4397,-3.4397,-3.4397,-3.4397,-3.4397,-3.4397,-3.4397,-3.4397,-3.4515,-3.5109,-3.5296,-3.5436,-3.5983,-3.6516,-3.6998,-3.7024,-3.7456,-3.79,-3.79,-3.79,-3.79,-3.79,-3.79,-3.79,-3.79,-3.79,-3.79,-3.79,-3.79,-3.79,-3.79,-3.79,-3.79,-3.79,-3.79,-3.79,-3.79,-3.79,-3.79,-3.79,-3.79,-3.79,-3.79,-3.79,-3.79,-3.79,-3.79,-3.79,-3.79,-3.79,-3.79,-3.79,-3.79,-3.79,-3.79,-3.79,-3.79,-3.79,-3.79,-3.79,0.0,0.0,-3.0986,-3.0986,0.0,0.0,0.0,0.0,0.0,0.0,0.0,0.0,0.0,-3.0986,-3.0921,-3.0725,-3.0869,-3.0921,0.0,0.0,0.0,0.0,0.0,0.0,0.0,0.0,0.0,0.0,0.0,0.0,0.0,-3.0986,-3.0986,-3.0986,-3.0986,-3.0986,-3.0986,-3.1169,-3.147,-3.181,-3.2202,-3.2842,-3.36,-3.3783,-3.4058,-3.4397,-3.4397,-3.4397,-3.4397,-3.4397,-3.4397,-3.4397,-3.4397,-3.4397,-3.4397,-3.4397,-3.4397,-3.4397,-3.4397,-3.4397,-3.4437,-3.463,-3.4688,-3.4816,-3.5392,-3.5697,-3.5953,-3.6305,-3.6841,-3.7312,-3.7312,-3.7599,-3.79,-3.79,-3.79,-3.79,-3.79,-3.79,-3.79,-3.79,-3.79,-3.79,-3.79,-3.79,-3.79,-3.79,-3.79,-3.79,-3.79,-3.79,-3.79,-3.79,-3.79,-3.79,-3.79,-3.79,-3.79,-3.79,-3.79,-3.79,-3.79,-3.79,-3.79,-3.79,-3.79,-3.79,-3.79,-3.79,-3.79,-3.79,-3.79,-3.79,-3.1713,-3.1371,0.0,-3.0986,-3.0986,0.0,-3.0986,0.0,0.0,0.0,0.0,0.0,0.0,-3.0986,-3.0986,-3.0986,-3.0986,-3.0986,0.0,-3.0986,0.0,0.0,0.0,0.0,0.0,0.0,0.0,0.0,-3.0986,0.0,0.0,0.0,-3.0986,-3.0986,-3.0986,-3.0986,-3.0986,-3.0986,-3.1169,-3.1497,-3.1706,-3.2202,-3.2986,-3.3404,-3.3783,-3.4123,-3.4319,-3.4397,-3.4397,-3.4397,-3.4397,-3.4397,-3.4397,-3.4397,-3.4397,-3.4397,-3.4397,-3.4397,-3.4397,-3.4397,-3.4397,-3.4397,-3.4397,-3.4465,-3.4857,-3.5128,-3.5417,-3.5953,-3.6384,-3.6737,-3.6946,-3.7129,-3.726,-3.726,-3.726,-3.7325,-3.7534,-3.7586,-3.7639,-3.7861,-3.79,-3.79,-3.79,-3.79,-3.79,-3.79,-3.79,-3.79,-3.79,-3.79,-3.79,-3.79,-3.79,-3.79,-3.79,-3.79,-3.79,-3.79,-3.79,-3.79,-3.79,-3.79,-3.7808,-3.7586,-3.7795,-3.7795,-3.7586,-3.7795,-3.79,-3.79,-3.79,-3.79]}]]